[[{"header":{"parameterUnit":"m.s-1","parameterCategory":1,"la1":31.0,"la2":29.5877,"lo1":-88.7671,"lo2":-86.6584,"dy":0.0162,"dx":0.0185,"nx":115,"ny":88,"refTime":"2023-06-03T06:00:00:Z","depth":0,"parameterNumber":2,"parameterNumberName":"U-component_of_WINDS"},"data":[0.0,0.0,0.0,0.0,0.0,0.0,0.0,0.0,0.0,0.0,0.0,0.0,0.0,0.0,0.0,0.0,0.0,0.0,0.0,0.0,0.0,0.0,0.0,0.0,0.0,0.0,0.0,0.0,0.0,0.0,0.0,0.0,0.0,0.0,0.0,0.0,0.0,0.0,0.0,0.0,0.0,0.0,0.0,0.0,0.0,0.0,0.0,0.0,0.0,0.0,0.0,0.0,0.0,0.0,0.0,0.0,0.0,0.0,0.0,0.0,0.0,0.0,0.0,0.0,0.0,0.0,0.0,0.0,0.0,0.0,0.0,0.0,0.0,0.0,0.0,0.0,0.0,0.0,0.0,0.0,0.0,0.0,0.0,0.0,0.0,0.0,0.0,0.0,0.0,0.0,0.0,0.0,0.0,0.0,0.0,0.0,0.0,0.0,0.0,0.0,0.0,0.0,0.0,0.0,0.0,0.0,0.0,0.0,0.0,0.0,0.0,0.0,0.0,0.0,0.0,0.0,0.0,0.0,0.0,0.0,0.0,0.0,0.0,0.0,0.0,0.0,0.0,0.0,0.0,0.0,0.0,0.0,0.0,0.0,0.0,0.0,0.0,0.0,0.0,0.0,0.0,0.0,0.0,0.0,0.0,0.0,0.0,0.0,0.0,0.0,0.0,0.0,0.0,0.0,0.0,0.0,0.0,0.0,0.0,0.0,0.0,0.0,0.0,0.0,0.0,0.0,0.0,0.0,0.0,0.0,0.0,0.0,0.0,0.0,0.0,0.0,0.0,0.0,0.0,0.0,0.0,0.0,0.0,0.0,0.0,0.0,0.0,0.0,0.0,0.0,0.0,0.0,0.0,0.0,0.0,0.0,0.0,0.0,0.0,0.0,0.0,0.0,0.0,0.0,0.0,0.0,0.0,0.0,0.0,0.0,0.0,0.0,0.0,0.0,0.0,0.0,0.0,0.0,0.0,0.0,0.0,0.0,0.0,0.0,0.0,0.0,0.0,0.0,0.0,0.0,0.0,0.0,0.0,0.0,0.0,0.0,0.0,0.0,0.0,0.0,0.0,0.0,0.0,0.0,0.0,0.0,0.0,0.0,0.0,0.0,0.0,0.0,0.0,0.0,0.0,0.0,0.0,0.0,0.0,0.0,0.0,0.0,0.0,0.0,0.0,0.0,0.0,0.0,0.0,0.0,0.0,0.0,0.0,0.0,0.0,0.0,0.0,0.0,0.0,0.0,0.0,0.0,0.0,0.0,0.0,0.0,0.0,0.0,0.0,0.0,0.0,0.0,0.0,0.0,0.0,0.0,0.0,0.0,0.0,0.0,0.0,0.0,0.0,0.0,0.0,0.0,0.0,0.0,0.0,0.0,0.0,0.0,0.0,0.0,0.0,0.0,0.0,0.0,0.0,0.0,0.0,0.0,0.0,0.0,0.0,0.0,0.0,0.0,0.0,0.0,0.0,0.0,0.0,0.0,0.0,0.0,0.0,0.0,0.0,0.0,0.0,0.0,0.0,0.0,0.0,0.0,0.0,0.0,0.0,0.0,0.0,0.0,0.0,0.0,0.0,0.0,0.0,0.0,0.0,0.0,0.0,0.0,0.0,0.0,0.0,0.0,0.0,0.0,0.0,0.0,0.0,0.0,0.0,0.0,0.0,0.0,0.0,0.0,0.0,0.0,0.0,0.0,0.0,0.0,0.0,0.0,0.0,0.0,0.0,0.0,0.0,0.0,0.0,0.0,0.0,0.0,0.0,0.0,0.0,0.0,0.0,0.0,0.0,0.0,0.0,0.0,0.0,0.0,0.0,0.0,0.0,0.0,0.0,0.0,0.0,0.0,0.0,0.0,0.0,0.0,0.0,0.0,0.0,0.0,0.0,0.0,0.0,0.0,0.0,0.0,0.0,0.0,0.0,0.0,0.0,0.0,0.0,0.0,0.0,0.0,0.0,0.0,0.0,0.0,0.0,0.0,0.0,0.0,0.0,0.0,0.0,0.0,0.0,0.0,0.0,0.0,0.0,0.0,0.0,0.0,0.0,0.0,0.0,0.0,0.0,0.0,0.0,0.0,0.0,0.0,0.0,0.0,0.0,0.0,0.0,0.0,0.0,0.0,0.0,0.0,0.0,0.0,0.0,0.0,0.0,0.0,0.0,0.0,0.0,0.0,0.0,0.0,0.0,0.0,0.0,0.0,0.0,0.0,0.0,0.0,0.0,0.0,0.0,0.0,0.0,0.0,0.0,0.0,0.0,0.0,0.0,0.0,0.0,0.0,0.0,0.0,0.0,0.0,0.0,0.0,0.0,0.0,0.0,0.0,0.0,0.0,0.0,0.0,0.0,0.0,0.0,0.0,0.0,0.0,0.0,0.0,0.0,0.0,0.0,0.0,0.0,0.0,0.0,0.0,0.0,0.0,0.0,0.0,0.0,0.0,0.0,0.0,0.0,0.0,0.0,0.0,0.0,0.0,0.0,0.0,0.0,0.0,0.0,0.0,0.0,0.0,0.0,0.0,0.0,0.0,0.0,0.0,0.0,0.0,0.0,0.0,0.0,0.0,0.0,0.0,0.0,0.0,0.0,0.0,0.0,0.0,0.0,0.0,0.0,0.0,0.0,0.0,0.0,0.0,0.0,0.0,0.0,0.0,0.0,0.0,0.0,0.0,0.0,0.0,0.0,0.0,0.0,0.0,0.0,0.0,0.0,0.0,0.0,0.0,0.0,0.0,0.0,0.0,0.0,0.0,0.0,0.0,0.0,0.0,0.0,0.0,0.0,0.0,0.0,0.0,0.0,0.0,0.0,0.0,0.0,0.0,0.0,0.0,0.0,0.0,0.0,0.0,0.0,0.0,0.0,0.0,0.0,0.0,0.0,0.0,0.0,0.0,0.0,0.0,0.0,0.0,0.0,0.0,0.0,0.0,0.0,0.0,0.0,0.0,0.0,0.0,0.0,0.0,0.0,0.0,0.0,0.0,0.0,0.0,0.0,0.0,0.0,0.0,0.0,0.0,0.0,0.0,0.0,0.0,0.0,0.0,0.0,0.0,0.0,0.0,0.0,0.0,0.0,0.0,0.0,0.0,0.0,0.0,0.0,0.0,0.0,0.0,0.0,0.0,0.0,0.0,0.0,0.0,0.0,0.0,0.0,0.0,0.0,0.0,0.0,0.0,0.0,0.0,0.0,0.0,0.0,0.0,0.0,0.0,0.0,0.0,0.0,0.0,0.0,0.0,0.0,0.0,0.0,0.0,0.0,0.0,0.0,0.0,0.0,0.0,0.0,0.0,0.0,0.0,0.0,0.0,0.0,0.0,0.0,0.0,0.0,0.0,0.0,0.0,0.0,0.0,0.0,0.0,0.0,0.0,0.0,0.0,0.0,0.0,0.0,0.0,0.0,0.0,0.0,0.0,0.0,0.0,0.0,0.0,0.0,0.0,0.0,0.0,0.0,0.0,0.0,0.0,0.0,0.0,0.0,0.0,0.0,0.0,0.0,0.0,0.0,0.0,0.0,0.0,0.0,0.0,0.0,0.0,0.0,0.0,0.0,0.0,0.0,0.0,0.0,0.0,0.0,0.0,0.0,0.0,0.0,0.0,0.0,0.0,0.0,0.0,0.0,0.0,0.0,0.0,0.0,0.0,0.0,0.0,0.0,0.0,0.0,0.0,0.0,0.0,0.0,0.0,0.0,0.0,0.0,0.0,0.0,0.0,0.0,0.0,0.0,0.0,0.0,0.0,0.0,0.0,0.0,0.0,0.0,0.0,0.0,0.0,0.0,0.0,0.0,0.0,0.0,0.0,0.0,0.0,0.0,0.0,0.0,0.0,0.0,0.0,0.0,0.0,0.0,0.0,0.0,0.0,0.0,0.0,0.0,0.0,0.0,0.0,0.0,0.0,0.0,0.0,0.0,0.0,0.0,0.0,0.0,0.0,0.0,0.0,0.0,0.0,0.0,0.0,0.0,0.0,0.0,0.0,0.0,0.0,0.0,0.0,0.0,0.0,0.0,0.0,0.0,0.0,0.0,0.0,0.0,0.0,0.0,0.0,0.0,0.0,0.0,0.0,0.0,0.0,0.0,0.0,0.0,0.0,0.0,0.0,0.0,0.0,0.0,0.0,0.0,0.0,0.0,0.0,0.0,0.0,0.0,0.0,0.0,0.0,0.0,0.0,0.0,0.0,0.0,0.0,0.0,0.0,0.0,0.0,0.0,0.0,0.0,0.0,0.0,0.0,0.0,0.0,0.0,0.0,0.0,0.0,3.9458,0.0,0.0,0.0,3.8719,0.0,0.0,0.0,0.0,0.0,0.0,0.0,0.0,0.0,0.0,0.0,0.0,0.0,0.0,0.0,0.0,0.0,0.0,0.0,0.0,0.0,0.0,0.0,0.0,0.0,0.0,0.0,0.0,0.0,0.0,0.0,0.0,0.0,0.0,0.0,0.0,0.0,0.0,0.0,0.0,0.0,0.0,0.0,0.0,0.0,0.0,0.0,0.0,0.0,0.0,0.0,0.0,0.0,0.0,0.0,0.0,0.0,0.0,0.0,0.0,0.0,0.0,0.0,0.0,0.0,0.0,0.0,0.0,0.0,0.0,0.0,0.0,0.0,0.0,0.0,0.0,0.0,0.0,0.0,0.0,0.0,0.0,0.0,0.0,0.0,0.0,0.0,0.0,0.0,0.0,0.0,0.0,0.0,0.0,0.0,0.0,0.0,0.0,0.0,0.0,0.0,0.0,0.0,0.0,0.0,0.0,0.0,0.0,0.0,0.0,3.9551,3.9219,3.9092,3.8968,3.887,0.0,0.0,0.0,0.0,0.0,0.0,0.0,0.0,0.0,0.0,0.0,0.0,0.0,0.0,0.0,0.0,0.0,0.0,0.0,0.0,0.0,0.0,0.0,0.0,0.0,0.0,0.0,0.0,0.0,0.0,0.0,0.0,0.0,0.0,0.0,0.0,0.0,0.0,0.0,0.0,0.0,0.0,0.0,0.0,0.0,0.0,0.0,0.0,0.0,0.0,0.0,0.0,0.0,0.0,0.0,0.0,0.0,0.0,0.0,0.0,0.0,0.0,0.0,0.0,0.0,0.0,0.0,0.0,0.0,0.0,0.0,0.0,0.0,0.0,0.0,0.0,0.0,0.0,0.0,0.0,0.0,0.0,0.0,0.0,0.0,0.0,0.0,0.0,0.0,0.0,0.0,0.0,0.0,0.0,0.0,0.0,0.0,0.0,0.0,0.0,0.0,0.0,0.0,0.0,0.0,0.0,0.0,0.0,0.0,0.0,0.0,0.0,3.9129,3.9064,3.9064,0.0,0.0,0.0,0.0,0.0,0.0,0.0,0.0,0.0,0.0,0.0,0.0,0.0,0.0,0.0,0.0,0.0,0.0,0.0,0.0,0.0,0.0,0.0,0.0,0.0,0.0,0.0,0.0,0.0,0.0,0.0,0.0,0.0,0.0,0.0,0.0,0.0,0.0,0.0,0.0,0.0,0.0,0.0,0.0,0.0,0.0,0.0,0.0,0.0,0.0,0.0,0.0,0.0,0.0,0.0,0.0,0.0,0.0,0.0,0.0,0.0,0.0,0.0,0.0,0.0,0.0,0.0,0.0,0.0,0.0,0.0,0.0,0.0,0.0,0.0,0.0,0.0,0.0,0.0,0.0,0.0,0.0,0.0,0.0,0.0,0.0,0.0,0.0,0.0,0.0,0.0,0.0,0.0,0.0,0.0,0.0,0.0,0.0,0.0,0.0,0.0,0.0,0.0,0.0,0.0,0.0,0.0,0.0,0.0,0.0,3.9647,3.9401,3.9264,0.0,3.9272,0.0,0.0,0.0,0.0,0.0,0.0,0.0,0.0,0.0,0.0,0.0,0.0,0.0,0.0,0.0,0.0,0.0,0.0,0.0,0.0,0.0,0.0,0.0,0.0,0.0,0.0,0.0,0.0,0.0,0.0,0.0,0.0,0.0,0.0,0.0,0.0,0.0,0.0,0.0,0.0,0.0,0.0,0.0,0.0,0.0,0.0,0.0,0.0,0.0,0.0,0.0,0.0,0.0,0.0,0.0,0.0,0.0,0.0,0.0,0.0,0.0,0.0,0.0,0.0,0.0,0.0,0.0,0.0,0.0,0.0,0.0,0.0,0.0,0.0,0.0,0.0,0.0,0.0,0.0,0.0,0.0,0.0,0.0,0.0,0.0,0.0,0.0,0.0,0.0,0.0,0.0,0.0,0.0,0.0,0.0,0.0,0.0,0.0,0.0,0.0,0.0,0.0,0.0,0.0,0.0,0.0,0.0,0.0,0.0,0.0,3.9575,3.9401,3.8824,3.851,0.0,0.0,0.0,0.0,0.0,0.0,0.0,0.0,0.0,0.0,0.0,0.0,0.0,0.0,0.0,0.0,0.0,0.0,0.0,0.0,0.0,0.0,0.0,0.0,0.0,0.0,0.0,0.0,0.0,0.0,0.0,0.0,0.0,0.0,0.0,0.0,0.0,0.0,0.0,0.0,0.0,0.0,0.0,0.0,0.0,0.0,0.0,0.0,0.0,0.0,0.0,0.0,0.0,0.0,0.0,0.0,0.0,0.0,0.0,0.0,0.0,0.0,0.0,0.0,0.0,0.0,0.0,0.0,0.0,0.0,0.0,0.0,0.0,0.0,0.0,0.0,0.0,0.0,0.0,0.0,0.0,0.0,0.0,0.0,0.0,0.0,0.0,0.0,0.0,0.0,0.0,0.0,0.0,0.0,0.0,0.0,0.0,0.0,0.0,0.0,0.0,0.0,0.0,0.0,0.0,0.0,0.0,0.0,0.0,0.0,3.9458,3.9376,3.9253,3.8428,3.8018,3.8103,0.0,0.0,0.0,0.0,0.0,0.0,0.0,0.0,0.0,0.0,0.0,0.0,0.0,0.0,0.0,0.0,0.0,0.0,0.0,0.0,0.0,0.0,0.0,0.0,0.0,0.0,0.0,0.0,0.0,0.0,0.0,0.0,0.0,0.0,0.0,0.0,0.0,0.0,0.0,0.0,0.0,0.0,0.0,0.0,0.0,0.0,0.0,0.0,0.0,0.0,0.0,0.0,0.0,0.0,0.0,0.0,0.0,0.0,0.0,0.0,0.0,0.0,0.0,0.0,0.0,0.0,0.0,0.0,0.0,0.0,0.0,0.0,0.0,0.0,0.0,0.0,0.0,0.0,0.0,0.0,0.0,0.0,0.0,0.0,0.0,0.0,0.0,0.0,0.0,0.0,0.0,0.0,0.0,0.0,0.0,0.0,0.0,0.0,0.0,0.0,0.0,0.0,0.0,0.0,0.0,0.0,0.0,0.0,3.8924,3.898,3.8989,3.8865,3.8238,3.7973,0.0,0.0,0.0,0.0,0.0,0.0,0.0,0.0,0.0,0.0,0.0,0.0,0.0,0.0,0.0,0.0,0.0,0.0,0.0,0.0,0.0,0.0,0.0,0.0,0.0,0.0,0.0,0.0,0.0,0.0,0.0,0.0,0.0,0.0,0.0,0.0,0.0,0.0,0.0,0.0,0.0,0.0,0.0,0.0,0.0,0.0,0.0,0.0,0.0,0.0,0.0,0.0,0.0,0.0,0.0,0.0,0.0,0.0,0.0,0.0,0.0,0.0,0.0,0.0,0.0,0.0,0.0,0.0,0.0,0.0,0.0,0.0,0.0,0.0,0.0,0.0,0.0,0.0,0.0,0.0,0.0,0.0,0.0,0.0,0.0,0.0,0.0,0.0,0.0,0.0,0.0,0.0,0.0,0.0,0.0,0.0,0.0,0.0,0.0,0.0,0.0,0.0,0.0,0.0,0.0,0.0,0.0,0.0,0.0,3.7572,3.7538,3.7356,3.697,3.5999,3.5449,0.0,0.0,0.0,0.0,0.0,0.0,0.0,0.0,0.0,0.0,0.0,0.0,0.0,0.0,0.0,0.0,0.0,0.0,0.0,0.0,0.0,0.0,0.0,0.0,0.0,0.0,0.0,0.0,0.0,0.0,0.0,0.0,0.0,0.0,0.0,0.0,0.0,0.0,0.0,0.0,0.0,0.0,0.0,0.0,0.0,0.0,0.0,0.0,0.0,0.0,0.0,0.0,0.0,0.0,0.0,0.0,0.0,0.0,0.0,0.0,0.0,0.0,0.0,0.0,0.0,0.0,0.0,0.0,0.0,0.0,0.0,0.0,0.0,0.0,0.0,0.0,0.0,0.0,0.0,0.0,0.0,0.0,0.0,0.0,0.0,0.0,0.0,0.0,0.0,0.0,0.0,0.0,0.0,0.0,0.0,0.0,0.0,0.0,0.0,0.0,0.0,0.0,0.0,0.0,0.0,0.0,0.0,0.0,0.0,3.4006,0.0,3.3539,3.3252,3.2668,3.2513,0.0,0.0,0.0,0.0,0.0,0.0,0.0,0.0,0.0,0.0,0.0,0.0,0.0,0.0,0.0,0.0,0.0,0.0,0.0,0.0,0.0,0.0,0.0,0.0,0.0,0.0,0.0,0.0,0.0,0.0,0.0,0.0,0.0,0.0,0.0,0.0,0.0,0.0,0.0,0.0,0.0,0.0,0.0,0.0,0.0,0.0,0.0,0.0,0.0,0.0,0.0,0.0,0.0,0.0,0.0,0.0,0.0,0.0,0.0,0.0,0.0,0.0,0.0,0.0,0.0,0.0,0.0,0.0,0.0,0.0,0.0,0.0,0.0,0.0,0.0,0.0,0.0,0.0,0.0,0.0,0.0,0.0,0.0,0.0,0.0,0.0,0.0,0.0,0.0,0.0,0.0,0.0,0.0,0.0,0.0,0.0,0.0,0.0,0.0,0.0,0.0,0.0,0.0,0.0,0.0,0.0,0.0,0.0,2.9092,2.7885,2.7372,2.7076,2.7503,2.8046,2.9197,0.0,0.0,0.0,0.0,0.0,0.0,0.0,0.0,0.0,0.0,0.0,0.0,0.0,0.0,0.0,0.0,0.0,0.0,0.0,0.0,0.0,0.0,0.0,0.0,0.0,0.0,0.0,0.0,0.0,0.0,0.0,0.0,0.0,0.0,0.0,0.0,0.0,0.0,0.0,0.0,0.0,0.0,0.0,0.0,0.0,0.0,0.0,0.0,0.0,0.0,0.0,0.0,0.0,0.0,0.0,0.0,0.0,0.0,0.0,0.0,0.0,0.0,0.0,0.0,0.0,0.0,0.0,0.0,0.0,0.0,0.0,0.0,0.0,0.0,0.0,0.0,0.0,0.0,0.0,0.0,0.0,0.0,0.0,0.0,0.0,0.0,0.0,0.0,0.0,0.0,0.0,0.0,0.0,0.0,0.0,0.0,0.0,0.0,0.0,0.0,0.0,0.0,0.0,0.0,0.0,0.0,0.0,0.0,0.0,1.8807,1.742,1.6523,1.6472,1.9551,2.2338,0.0,0.0,0.0,0.0,0.0,0.0,0.0,0.0,0.0,0.0,0.0,0.0,0.0,0.0,0.0,0.0,0.0,0.0,0.0,0.0,0.0,0.0,0.0,0.0,0.0,0.0,0.0,0.0,0.0,0.0,0.0,0.0,0.0,0.0,0.0,0.0,0.0,0.0,0.0,0.0,0.0,0.0,0.0,0.0,0.0,0.0,0.0,0.0,0.0,0.0,0.0,0.0,0.0,0.0,0.0,0.0,0.0,0.0,0.0,0.0,0.0,0.0,0.0,0.0,0.0,0.0,0.0,0.0,0.0,0.0,0.0,0.0,0.0,0.0,0.0,0.0,0.0,0.0,0.0,0.0,0.0,0.0,0.0,0.0,0.0,0.0,0.0,0.0,0.0,0.0,0.0,0.0,0.0,0.0,0.0,0.0,0.0,0.0,0.0,0.0,0.0,0.0,0.0,0.0,0.0,0.0,0.0,0.0,0.0,0.2384,0.3781,0.4436,0.432,0.8641,1.3078,1.7421,0.0,0.0,0.0,0.0,0.0,0.0,0.0,0.0,0.0,0.0,0.0,0.0,0.0,0.0,0.0,0.0,0.0,0.0,0.0,0.0,0.0,0.0,0.0,0.0,0.0,0.0,0.0,0.0,0.0,0.0,0.0,0.0,0.0,0.0,0.0,0.0,0.0,0.0,0.0,0.0,0.0,0.0,0.0,0.0,0.0,0.0,0.0,0.0,0.0,0.0,0.0,0.0,0.0,0.0,0.0,0.0,0.0,0.0,0.0,0.0,0.0,0.0,0.0,0.0,0.0,0.0,0.0,0.0,0.0,0.0,0.0,0.0,0.0,0.0,0.0,0.0,0.0,0.0,0.0,0.0,0.0,0.0,0.0,0.0,0.0,0.0,0.0,0.0,0.0,0.0,0.0,0.0,0.0,0.0,0.0,0.0,0.0,0.0,0.0,0.0,0.0,0.0,0.0,0.0,0.0,0.0,0.0,0.0,-1.9124,-1.2812,-0.9135,-0.8375,-0.363,0.2233,0.0,0.0,0.0,0.0,0.0,0.0,0.0,0.0,0.0,0.0,0.0,0.0,0.0,0.0,0.0,0.0,0.0,0.0,0.0,0.0,0.0,0.0,0.0,0.0,0.0,0.0,0.0,0.0,0.0,0.0,0.0,0.0,0.0,0.0,0.0,0.0,0.0,0.0,0.0,0.0,0.0,0.0,0.0,0.0,0.0,0.0,0.0,0.0,0.0,0.0,0.0,0.0,0.0,0.0,0.0,0.0,0.0,0.0,0.0,0.0,0.0,0.0,0.0,0.0,0.0,0.0,0.0,0.0,0.0,0.0,0.0,0.0,0.0,0.0,0.0,0.0,0.0,0.0,0.0,0.0,0.0,0.0,0.0,0.0,0.0,0.0,0.0,0.0,0.0,0.0,0.0,0.0,0.0,0.0,0.0,0.0,0.0,0.0,0.0,0.0,0.0,0.0,0.0,0.0,0.0,0.0,0.0,0.0,0.0,-2.6756,-2.8152,-2.6034,-2.0191,-1.202,-0.4926,0.0,0.0,0.0,0.0,0.0,0.0,0.0,0.0,0.0,0.0,0.0,0.0,0.0,0.0,0.0,0.0,0.0,0.0,0.0,0.0,0.0,0.0,0.0,0.0,0.0,0.0,0.0,0.0,0.0,0.0,0.0,0.0,0.0,0.0,0.0,0.0,0.0,0.0,0.0,0.0,0.0,0.0,0.0,0.0,0.0,0.0,0.0,0.0,0.0,0.0,0.0,0.0,0.0,0.0,0.0,0.0,0.0,0.0,0.0,0.0,0.0,0.0,0.0,0.0,0.0,0.0,0.0,0.0,0.0,0.0,0.0,0.0,0.0,0.0,0.0,0.0,0.0,0.0,0.0,0.0,0.0,0.0,0.0,0.0,0.0,0.0,0.0,0.0,0.0,0.0,0.0,0.0,0.0,0.0,0.0,0.0,0.0,0.0,0.0,0.0,0.0,0.0,0.0,0.0,0.0,0.0,0.0,0.0,-2.6973,-3.2166,-3.5528,-3.5155,-3.0814,-2.1521,-1.3557,0.0,0.0,0.0,0.0,0.0,0.0,0.0,0.0,0.0,0.0,0.0,0.0,0.0,0.0,0.0,0.0,0.0,0.0,0.0,0.0,0.0,0.0,0.0,0.0,0.0,0.0,0.0,0.0,0.0,0.0,0.0,0.0,0.0,0.0,0.0,0.0,0.0,0.0,0.0,0.0,0.0,0.0,0.0,0.0,0.0,0.0,0.0,0.0,0.0,0.0,0.0,0.0,0.0,0.0,0.0,0.0,0.0,0.0,0.0,0.0,0.0,0.0,0.0,0.0,0.0,0.0,0.0,0.0,0.0,0.0,0.0,0.0,0.0,0.0,0.0,0.0,0.0,0.0,0.0,0.0,0.0,0.0,0.0,0.0,0.0,0.0,0.0,0.0,0.0,0.0,0.0,0.0,0.0,0.0,0.0,0.0,0.0,0.0,0.0,0.0,0.0,0.0,0.0,0.0,0.0,0.0,0.0,0.0,-3.0812,-3.5496,-3.7752,-3.897,-3.8944,-3.0459,-2.2205,0.0,0.0,0.0,0.0,0.0,0.0,0.0,0.0,0.0,0.0,0.0,0.0,0.0,0.0,0.0,0.0,0.0,0.0,0.0,0.0,0.0,0.0,0.0,0.0,0.0,0.0,0.0,0.0,0.0,0.0,0.0,0.0,0.0,0.0,0.0,0.0,0.0,0.0,0.0,0.0,0.0,0.0,0.0,0.0,0.0,0.0,0.0,0.0,0.0,0.0,0.0,0.0,0.0,0.0,0.0,0.0,0.0,0.0,0.0,0.0,0.0,0.0,0.0,0.0,0.0,0.0,0.0,0.0,0.0,0.0,0.0,0.0,0.0,0.0,0.0,0.0,0.0,0.0,0.0,0.0,0.0,0.0,0.0,0.0,0.0,0.0,0.0,0.0,0.0,0.0,0.0,0.0,0.0,0.0,0.0,0.0,0.0,0.0,0.0,0.0,0.0,0.0,0.0,0.0,0.0,0.0,0.0,0.0,-3.389,-3.6753,-3.8968,-3.9825,-3.9189,-3.2004,-2.5723,0.0,0.0,0.0,0.0,0.0,0.0,0.0,0.0,0.0,0.0,0.0,0.0,0.0,0.0,0.0,0.0,0.0,0.0,0.0,0.0,0.0,0.0,0.0,0.0,0.0,0.0,0.0,0.0,0.0,0.0,0.0,0.0,0.0,0.0,0.0,0.0,0.0,0.0,0.0,0.0,0.0,0.0,0.0,0.0,0.0,0.0,0.0,0.0,0.0218,0.0,0.0,0.0,0.0,0.0,0.0,0.0,0.0,0.0,0.0,0.0,0.0,0.0,0.0,0.0,0.0,0.0,0.0,0.0,0.0,0.0,0.0,0.0,0.0,0.0,0.0,0.0,0.0,0.0,0.0,0.0,0.0,0.0,0.0,0.0,0.0,0.0,0.0,0.0,0.0,0.0,0.0,0.0,0.0,0.0,0.0,0.0,0.0,0.0,0.0,0.0,0.0,0.0,0.0,0.0,0.0,0.0,0.0,0.0,-3.5848,-3.8048,-3.9598,-3.9993,-3.8967,-3.3828,-2.8861,0.0,0.0,0.0,0.0,0.0,0.0,0.0,0.0,0.0,0.0,0.0,0.0,0.0,0.0,0.0,0.0,0.0,0.0,0.0,0.0,0.0,0.0,0.0,0.0,0.0,0.0,0.0,0.0,0.0,0.0,0.0,0.0,0.0,0.0,0.0,0.0,0.0,0.0,0.0,0.0,0.0,0.0,0.0,0.0,0.0,0.0,0.0,0.0,0.0,0.0,0.0,0.0,0.0,0.0,0.0,0.0,0.0,0.0,0.0,0.0,0.0,0.0,0.0,0.0,0.0,0.0,0.0,0.0,0.0,0.0,0.0,0.0,0.0,0.0,0.0,0.0,0.0,0.0,0.0,0.0,0.0,0.0,0.0,0.0,0.0,0.0,0.0,0.0,0.0,0.0,0.0,0.0,0.0,0.0,0.0,0.0,0.0,0.0,0.0,0.0,0.0,0.0,0.0,0.0,0.0,0.0,0.0,-3.4568,-3.7147,-3.9058,-3.9877,-3.9859,-3.895,-3.5403,-3.1366,-2.6796,0.0,0.0,0.0,0.0,0.0,0.0,0.0,0.0,0.0,0.0,0.0,0.0,0.0,0.0,0.0,0.0,0.0,0.0,0.0,0.0,0.0,0.0,0.0,0.0,0.0,0.0,0.0,0.0,0.0,0.0,0.0,0.0,0.0,0.0,0.0,0.0,0.0,0.0,-0.5725,-1.1734,0.0,0.0,0.0,0.0,0.0,0.0,0.0,0.0,-1.4351,0.0,0.0,0.0,0.0,0.0,0.0,0.0,0.0,0.0,0.0,0.0,0.0,0.0,0.0,0.0,0.0,0.0,0.0,0.0,0.0,0.0,0.0,0.0,0.0,0.0,0.0,0.0,0.0,0.0,0.0,0.0,0.0,0.0,0.0,0.0,0.0,0.0,0.0,0.0,0.0,0.0,0.0,0.0,0.0,0.0,0.0,0.0,0.0,0.0,0.0,0.0,0.0,0.0,0.0,0.0,0.0,-3.3033,-3.5683,-3.7751,-3.9232,-3.9891,-3.9791,-3.8879,-3.562,-3.2466,-2.9391,0.0,0.0,0.0,0.0,0.0,0.0,0.0,0.0,0.0,0.0,0.0,0.0,0.0,0.0,0.0,0.0,0.0,0.0,0.0,0.0,0.0,0.0,0.0,0.0,0.0,0.0,0.0,0.0,0.0,0.0,0.0,0.0,0.0,0.0,0.0,0.0,0.0,0.0,0.0,-1.9943,-2.3071,0.0,0.0,0.0,0.0,0.0,0.0,0.0,0.0,-1.757,0.0,0.0,0.0,0.0,0.0,0.0,0.0,0.0,0.0,0.0,0.0,0.0,0.0,0.0,0.0,0.0,0.0,0.0,0.0,0.0,0.0,0.0,0.0,0.0,0.0,0.0,0.0,0.0,0.0,0.0,0.0,0.0,0.0,0.0,0.0,0.0,0.0,0.0,0.0,0.0,0.0,0.0,0.0,0.0,0.0,0.0,0.0,0.0,0.0,0.0,0.0,0.0,0.0,0.0,0.0,-3.4231,-3.6422,-3.8113,-3.9313,-3.9863,-3.9733,-3.8846,-3.5699,-3.2859,0.0,0.0,0.0,0.0,0.0,0.0,0.0,0.0,0.0,0.0,0.0,0.0,0.0,0.0,0.0,0.0,0.0,0.0,0.0,0.0,0.0,0.0,0.0,0.0,0.0,0.0,0.0,0.0,0.0,0.0,0.0,0.0,0.0,0.0,0.0,0.0,0.0,0.0,0.0,0.0,-2.5797,-2.8779,-3.0124,0.0,0.0,0.0,0.0,0.0,0.0,-2.9653,-2.6095,0.0,0.0,0.0,0.0,0.0,0.0,0.0,0.0,0.0,0.0,0.0,0.0,0.0,0.0,0.0,0.0,0.0,0.0,0.0,0.0,0.0,0.0,0.0,0.0,0.0,0.0,0.0,0.0,0.0,0.0,0.0,0.0,0.0,0.0,0.0,0.0,0.0,0.0,0.0,0.0,0.0,0.0,0.0,0.0,0.0,0.0,0.0,0.0,0.0,0.0,0.0,0.0,0.0,0.0,0.0,-3.5243,-3.7006,-3.8371,-3.9361,-3.9829,-3.9603,-3.8544,-3.5687,-3.3025,0.0,0.0,0.0,0.0,0.0,0.0,0.0,0.0,0.0,0.0,0.0,0.0,0.0,0.0,0.0,0.0,0.0,0.0,0.0,0.0,0.0,0.0,0.0,0.0,0.0,0.0,0.0,0.0,0.0,0.0,0.0,0.0,0.0,0.0,0.0,0.0,0.0,0.0,0.0,0.0,0.0,-3.3694,-3.5097,-3.5011,0.0,0.0,0.0,0.0,-3.5224,-3.5611,0.0,0.0,0.0,0.0,0.0,0.0,0.0,0.0,0.0,0.0,0.0,0.0,0.0,0.0,0.0,0.0,0.0,0.0,0.0,0.0,0.0,0.0,0.0,0.0,0.0,0.0,0.0,0.0,0.0,0.0,0.0,0.0,0.0,0.0,0.0,0.0,0.0,0.0,0.0,0.0,0.0,0.0,0.0,0.0,0.0,0.0,0.0,0.0,0.0,0.0,0.0,0.0,0.0,0.0,0.0,0.0,-3.5974,-3.7443,-3.8554,-3.937,-3.973,-3.9235,-3.7787,-3.5529,-3.3122,0.0,0.0,0.0,0.0,0.0,0.0,0.0,0.0,0.0,0.0,0.0,0.0,0.0,0.0,0.0,0.0,0.0,0.0,0.0,0.0,0.0,0.0,0.0,0.0,0.0,0.0,0.0,0.0,0.0,0.0,0.0,0.0,0.0,0.0,0.0,0.0,0.0,0.0,0.0,0.0,0.0,-3.7416,-3.9381,-3.897,-3.8241,0.0,0.0,-3.7332,-3.7895,-3.7756,0.0,0.0,0.0,0.0,0.0,0.0,0.0,0.0,0.0,0.0,0.0,0.0,0.0,0.0,0.0,0.0,0.0,0.0,0.0,0.0,0.0,0.0,0.0,0.0,0.0,0.0,0.0,0.0,0.0,0.0,0.0,0.0,0.0,0.0,0.0,0.0,0.0,0.0,0.0,0.0,0.0,0.0,0.0,0.0,0.0,0.0,0.0,0.0,0.0,0.0,0.0,0.0,0.0,0.0,0.0,-3.3517,-3.5737,-3.6462,-3.7136,-3.785,-3.8239,-3.7929,-3.6885,-3.5001,-3.3052,0.0,0.0,0.0,0.0,0.0,0.0,0.0,0.0,0.0,0.0,0.0,0.0,0.0,0.0,0.0,0.0,0.0,0.0,0.0,0.0,0.0,0.0,0.0,0.0,0.0,0.0,0.0,0.0,0.0,0.0,0.0,0.0,0.0,0.0,0.0,0.0,0.0,0.0,0.0,0.0,0.0,0.0,-4.1441,-4.1526,0.0,0.0,0.0,-3.9923,-4.034,0.0,0.0,0.0,0.0,0.0,0.0,0.0,0.0,0.0,0.0,0.0,0.0,0.0,0.0,0.0,0.0,0.0,0.0,0.0,0.0,0.0,0.0,0.0,0.0,0.0,0.0,0.0,0.0,0.0,0.0,0.0,0.0,0.0,0.0,0.0,0.0,0.0,0.0,0.0,0.0,0.0,0.0,0.0,0.0,0.0,0.0,0.0,0.0,0.0,0.0,0.0,0.0,0.0,0.0,0.0,0.0,0.0,-3.5534,-3.5857,-3.621,-3.6679,-3.708,-3.6892,-3.6091,-3.4604,0.0,0.0,0.0,0.0,0.0,0.0,0.0,0.0,0.0,0.0,0.0,0.0,0.0,0.0,0.0,0.0,0.0,0.0,0.0,0.0,0.0,0.0,0.0,0.0,0.0,0.0,0.0,-3.177,0.0,0.0,0.0,0.0,0.0,0.0,0.0,0.0,0.0,0.0,0.0,0.0,0.0,0.0,-4.1687,-4.3111,-4.3395,-4.3391,0.0,0.0,-4.1882,-4.2077,-4.1155,-3.9989,0.0,0.0,0.0,0.0,0.0,0.0,0.0,0.0,0.0,0.0,0.0,0.0,0.0,0.0,0.0,0.0,0.0,0.0,0.0,0.0,0.0,0.0,0.0,0.0,0.0,0.0,0.0,0.0,0.0,0.0,0.0,0.0,0.0,0.0,0.0,0.0,0.0,0.0,0.0,0.0,0.0,0.0,0.0,0.0,0.0,0.0,0.0,0.0,0.0,0.0,0.0,0.0,0.0,0.0,-3.4788,-3.5762,-3.6454,-3.6726,-3.6617,-3.6996,-3.6652,-3.5485,-3.4623,-3.3308,0.0,0.0,0.0,0.0,0.0,0.0,0.0,0.0,0.0,0.0,0.0,0.0,0.0,0.0,0.0,0.0,0.0,0.0,0.0,0.0,0.0,0.0,0.0,0.0,0.0,0.0,0.0,0.0,0.0,0.0,0.0,0.0,0.0,0.0,0.0,0.0,0.0,0.0,0.0,0.0,0.0,-4.2911,-4.494,-4.4584,-4.4017,0.0,-4.3388,-4.305,-4.2709,-4.1841,-4.0785,-3.9543,0.0,0.0,0.0,0.0,0.0,0.0,0.0,0.0,0.0,0.0,0.0,0.0,0.0,0.0,0.0,0.0,0.0,0.0,0.0,0.0,0.0,0.0,0.0,0.0,0.0,0.0,0.0,0.0,0.0,0.0,0.0,0.0,0.0,0.0,0.0,0.0,0.0,0.0,0.0,0.0,0.0,0.0,0.0,0.0,0.0,0.0,0.0,0.0,0.0,0.0,0.0,0.0,0.0,-3.5371,-3.5724,-3.5912,-3.5879,-3.5687,-3.5666,-3.5337,-3.4686,-3.4165,-3.3358,0.0,0.0,0.0,0.0,0.0,0.0,0.0,0.0,0.0,0.0,0.0,0.0,0.0,0.0,0.0,0.0,0.0,0.0,0.0,0.0,0.0,0.0,0.0,0.0,0.0,0.0,0.0,0.0,-3.4583,-3.5002,-3.4921,0.0,0.0,0.0,0.0,0.0,0.0,0.0,0.0,0.0,0.0,-4.3262,-4.5071,-4.4989,0.0,0.0,-4.3858,-4.3576,-4.325,-4.2,-4.0815,-4.0111,-3.7929,0.0,0.0,0.0,0.0,0.0,0.0,0.0,0.0,0.0,0.0,0.0,0.0,0.0,0.0,0.0,0.0,0.0,0.0,0.0,0.0,0.0,0.0,0.0,0.0,0.0,0.0,0.0,0.0,0.0,0.0,0.0,0.0,0.0,0.0,0.0,0.0,0.0,0.0,0.0,0.0,0.0,0.0,0.0,0.0,0.0,0.0,0.0,0.0,0.0,0.0,0.0,0.0,-3.5685,-3.5684,-3.5465,-3.5257,-3.5064,-3.4851,-3.4567,-3.4293,-3.3998,-3.3542,0.0,0.0,0.0,0.0,0.0,0.0,0.0,0.0,0.0,0.0,0.0,0.0,0.0,0.0,0.0,0.0,0.0,0.0,0.0,0.0,0.0,0.0,0.0,0.0,0.0,0.0,0.0,0.0,-3.5383,-3.5652,-3.5593,0.0,0.0,0.0,0.0,0.0,0.0,0.0,0.0,0.0,0.0,-4.365,-4.4982,-4.4954,-4.4625,-4.4213,-4.3962,-4.3666,-4.3201,-4.1907,-4.0732,-4.0131,0.0,0.0,0.0,0.0,0.0,0.0,0.0,0.0,0.0,0.0,0.0,0.0,0.0,0.0,0.0,0.0,0.0,0.0,0.0,0.0,0.0,0.0,0.0,0.0,0.0,0.0,0.0,-3.4244,0.0,0.0,-3.2521,0.0,0.0,0.0,0.0,0.0,0.0,0.0,0.0,0.0,0.0,0.0,0.0,0.0,0.0,0.0,0.0,0.0,0.0,0.0,0.0,0.0,0.0,-3.5659,-3.5582,-3.5341,-3.5143,-3.4997,-3.4811,-3.4645,-3.4495,-3.4293,-3.3979,-3.3486,0.0,0.0,0.0,0.0,0.0,0.0,0.0,0.0,0.0,0.0,0.0,0.0,0.0,0.0,0.0,0.0,0.0,0.0,0.0,0.0,0.0,0.0,0.0,0.0,0.0,0.0,-3.5841,-3.5828,-3.5793,0.0,0.0,0.0,0.0,0.0,0.0,0.0,0.0,0.0,-4.2731,-4.3569,-4.4203,-4.4798,-4.4556,-4.4202,-4.3868,-4.3712,-4.3287,-4.2488,-4.1595,-4.0604,0.0,0.0,0.0,0.0,0.0,0.0,0.0,0.0,0.0,0.0,0.0,0.0,0.0,0.0,0.0,0.0,0.0,0.0,0.0,0.0,0.0,0.0,0.0,0.0,0.0,0.0,0.0,-3.4663,-3.4539,0.0,0.0,0.0,0.0,0.0,0.0,0.0,0.0,0.0,0.0,0.0,-3.6877,-3.746,0.0,0.0,0.0,0.0,0.0,0.0,0.0,0.0,0.0,0.0,0.0,0.0,-3.5496,-3.5328,-3.5159,-3.4997,-3.487,-3.4749,-3.4685,-3.458,-3.4409,-3.408,-3.3569,0.0,0.0,0.0,0.0,0.0,0.0,0.0,0.0,0.0,0.0,0.0,0.0,0.0,0.0,0.0,0.0,0.0,0.0,0.0,0.0,0.0,0.0,0.0,0.0,0.0,-3.5989,0.0,0.0,0.0,0.0,0.0,0.0,0.0,0.0,0.0,0.0,0.0,-4.1292,-4.3385,-4.366,-4.3836,-4.4308,-4.4165,-4.3905,0.0,0.0,0.0,0.0,0.0,0.0,0.0,0.0,0.0,0.0,0.0,0.0,0.0,0.0,-3.3368,-3.3223,-3.3333,-3.3247,-3.2866,0.0,0.0,0.0,0.0,0.0,0.0,0.0,0.0,0.0,0.0,0.0,0.0,0.0,0.0,-3.4594,0.0,-3.4146,0.0,0.0,0.0,0.0,0.0,0.0,0.0,0.0,-3.7303,-3.7957,-3.8422,-3.8499,-3.8404,0.0,-3.8102,-3.7406,0.0,0.0,0.0,0.0,0.0,0.0,0.0,0.0,-3.5283,-3.513,-3.4997,-3.487,-3.4768,-3.4727,-3.4687,-3.4645,-3.4495,-3.4173,-3.3726,-3.2889,-3.2475,0.0,0.0,0.0,0.0,0.0,0.0,0.0,0.0,0.0,0.0,0.0,0.0,0.0,0.0,0.0,0.0,0.0,0.0,0.0,0.0,0.0,0.0,0.0,-3.5956,0.0,0.0,0.0,0.0,0.0,0.0,0.0,0.0,0.0,-4.0641,-4.1236,-4.2184,-4.3561,-4.37,-4.3759,-4.3923,0.0,0.0,0.0,0.0,0.0,0.0,0.0,-4.0815,-4.0251,-3.9283,-3.847,-3.8139,-3.769,-3.704,-3.6027,0.0,0.0,-3.45,-3.4193,-3.395,-3.3589,-3.3027,-3.2492,-3.2112,-3.1596,-3.1108,0.0,0.0,0.0,0.0,0.0,0.0,0.0,0.0,-3.4181,-3.4225,0.0,-3.4179,0.0,0.0,0.0,0.0,0.0,-3.5999,0.0,0.0,-3.8367,-3.9044,-3.993,-4.0017,-3.9859,-3.9486,-3.9382,-3.8782,-3.7655,-3.7205,0.0,0.0,0.0,0.0,0.0,0.0,-3.5049,-3.4982,-3.4851,-3.4752,-3.4687,-3.4706,-3.4706,-3.4706,-3.4495,-3.4245,-3.3921,-3.3606,-3.2951,-3.1928,-3.2547,0.0,0.0,0.0,0.0,0.0,0.0,0.0,0.0,0.0,0.0,0.0,0.0,0.0,0.0,0.0,0.0,0.0,0.0,0.0,0.0,-3.5932,0.0,0.0,0.0,0.0,0.0,0.0,0.0,0.0,0.0,0.0,-4.0377,-4.2276,-4.3664,-4.3372,0.0,0.0,0.0,0.0,-4.3303,-4.3303,-4.3408,-4.3217,-4.2622,-4.1746,-4.0841,-3.9873,0.0,0.0,-3.8091,-3.8576,-3.8452,-3.7288,-3.6735,-3.6388,-3.5492,-3.5128,-3.4927,-3.4673,-3.373,-3.2967,-3.264,-3.1842,-3.1029,-4.076,0.0,0.0,0.0,0.0,-3.67,-3.6204,-3.5761,-3.5861,-3.5695,-3.5452,-3.5487,0.0,0.0,0.0,0.0,0.0,0.0,-3.7489,-3.8026,-3.893,-3.9573,-3.9949,-4.006,-3.9597,-3.8653,-3.8408,-3.7905,-3.7199,-3.6501,-3.6279,-3.6508,0.0,0.0,0.0,0.0,-3.487,-3.4868,-3.4751,-3.4728,-3.4687,-3.4706,-3.4706,-3.4706,-3.4539,-3.4358,-3.4049,-3.3185,-3.2811,-3.2998,-3.2087,0.0,0.0,0.0,0.0,0.0,0.0,0.0,0.0,0.0,0.0,0.0,0.0,0.0,0.0,0.0,0.0,0.0,0.0,0.0,-3.5018,-3.5572,-3.5889,0.0,0.0,0.0,0.0,0.0,0.0,0.0,0.0,0.0,-4.024,-4.1952,-4.3348,0.0,0.0,-4.3458,-4.3375,-4.3268,-4.325,-4.3321,-4.2999,0.0,-4.2724,-4.1459,-4.0351,-3.9976,-3.9218,-3.8561,-3.832,-3.8304,-3.7885,-3.6741,-3.6134,-3.5631,-3.5138,-3.4835,-3.4578,-3.4333,-3.3822,-3.339,-3.3029,-3.2488,-3.2013,-4.1956,-4.0762,-3.9958,-3.9085,-3.8242,-3.7685,-3.7228,-3.6926,-3.6983,-3.6816,-3.6455,-3.6576,-3.636,-3.5963,-3.6113,0.0,0.0,0.0,-3.821,-3.8457,-3.9258,-3.9693,-3.9807,-3.9558,-3.9012,-3.8184,-3.7503,-3.6919,-3.6399,-3.5887,-3.5747,-3.5962,0.0,0.0,-3.5096,-3.4867,-3.4536,-3.4214,-3.4557,-3.4727,-3.4685,-3.4747,-3.4768,-3.4728,-3.4602,-3.4363,-3.4074,-3.3382,-3.3031,-3.3113,-3.2183,-3.1608,0.0,0.0,0.0,0.0,0.0,0.0,0.0,0.0,0.0,0.0,0.0,-3.4847,-3.5685,0.0,0.0,0.0,-3.4594,-3.4544,-3.5125,-3.5591,0.0,0.0,0.0,0.0,0.0,0.0,0.0,-3.9029,-3.9895,-4.0309,-3.9927,-4.1064,-4.2123,-4.2525,-4.2298,-4.2087,-4.2069,0.0,-4.2194,-4.2404,-4.2184,-4.2112,-4.2355,-4.1248,-4.0137,-3.9498,-3.9166,-3.8848,-3.8546,-3.842,-3.8056,-3.7016,-3.6314,-3.5715,-3.5091,-3.4525,-3.4169,-3.4136,-3.3882,-3.3527,-3.3049,-3.2588,-3.2083,-4.2747,-4.2302,-4.1054,-3.9712,-3.8418,-3.8221,-3.8022,-3.7896,-3.7863,-3.7715,-3.7399,-3.7473,-3.7356,-3.7122,-3.7757,0.0,-3.8322,-3.8542,-3.8736,-3.9036,-3.9282,-3.9481,-3.9538,-3.8792,-3.816,-3.7671,-3.6564,-3.5736,-3.5199,-3.5103,-3.5139,-3.5202,-3.4994,-3.4637,-3.4228,-3.4394,-3.4089,-3.3334,-3.4216,-3.4672,-3.4626,-3.4809,-3.4887,-3.4809,-3.4623,-3.4381,-3.4049,-3.3991,-3.3519,-3.2724,-3.2649,-3.1991,-3.0567,0.0,0.0,0.0,0.0,0.0,0.0,0.0,0.0,0.0,0.0,0.0,0.0,0.0,0.0,-3.5523,-3.5721,0.0,-3.5801,-3.5794,0.0,0.0,0.0,-3.6661,-3.6392,-3.7603,-3.8275,-3.7821,0.0,0.0,-3.914,-3.9606,-4.0005,-4.0022,-4.0167,-4.0291,-4.0347,-4.0492,-4.0633,-4.1134,-4.1162,-4.1285,-4.1446,-4.0654,-3.9565,-3.8505,-3.8619,-3.8582,-3.8269,-3.8395,-3.8248,-3.7257,-3.6795,-3.6089,-3.5144,-3.4134,-3.3656,-3.4039,-3.3774,-3.3345,-3.2636,-3.2073,-3.1467,-4.29,-4.2494,-4.1932,-4.1165,-4.0267,-3.9631,-3.9377,-3.9309,-3.9412,-3.8939,-3.8099,-3.8573,-3.8695,-3.8562,-3.8325,-3.8289,-3.835,-3.7463,-3.7452,-3.8181,-3.8514,-3.87,-3.8731,-3.7969,-3.6764,-3.5245,-3.3983,-3.3213,-3.2835,-3.2714,-3.2683,-3.2745,-3.304,-3.3508,-3.408,-3.3738,-3.3481,-3.3398,-3.3669,-3.4147,-3.487,-3.5001,-3.5001,-3.487,-3.4728,-3.4558,-3.4316,-3.4264,-3.4134,-3.3943,-3.2857,-3.212,-3.1806,-3.0659,0.0,0.0,0.0,0.0,0.0,0.0,0.0,0.0,0.0,-3.4457,-3.4768,0.0,-3.3509,0.0,-3.4404,-3.4831,-3.4824,-3.543,0.0,0.0,-3.6183,-3.6457,-3.6216,-3.6742,-3.7051,-3.6739,-3.6673,-3.6576,-3.6229,-3.6167,-3.6131,-3.6112,-3.832,-3.9971,-4.0161,-4.031,-4.0581,-4.0844,-4.0603,-4.0344,-3.9933,-3.8674,-3.7541,-3.6904,-3.6754,-3.6515,-3.6095,-3.5898,-3.565,-3.5149,-3.4771,-3.4371,-3.3878,-3.3383,-3.3145,-3.304,-3.2735,-3.2321,-3.1886,-3.151,-3.1009,-4.2887,-4.226,-4.2289,-4.2044,-4.1552,-4.0672,-4.0366,-4.0528,-4.0577,-3.9905,-3.879,-3.8659,-3.8629,-3.8599,-3.8404,-3.8186,-3.7817,-3.729,-3.7137,-3.7328,-3.7665,-3.7849,-3.7879,-3.6696,-3.5515,-3.4307,-3.2791,-3.1855,-3.1534,-3.1466,-3.1466,-3.1562,-3.1934,-3.2269,-3.2581,-3.2683,-3.2756,-3.2878,-3.3732,-3.4491,-3.5108,-3.5141,-3.507,-3.4963,-3.4772,-3.4626,-3.445,-3.4435,-3.4461,-3.4473,-3.3129,-3.2367,-3.24,-3.0906,-3.0066,0.0,0.0,0.0,0.0,0.0,0.0,0.0,0.0,0.0,0.0,0.0,-3.3267,-3.3635,-3.4497,-3.5018,-3.5027,-3.5466,-3.5658,-3.557,-3.5734,-3.5751,-3.5493,-3.582,-3.5906,-3.5509,-3.5426,-3.5303,-3.503,-3.48,-3.4654,-3.4633,-3.6297,-3.762,-3.79,-3.8115,-3.8425,-3.8805,-3.8744,-3.8562,-3.834,-3.7505,-3.6712,-3.6408,-3.6124,-3.5828,-3.5457,-3.5118,-3.4835,-3.4598,-3.4314,-3.4019,-3.371,-3.3134,-3.2673,-3.235,-3.1556,-3.1026,-3.1225,-3.0991,-3.0492,-4.2556,-4.1724,-4.2152,-4.2282,-4.1984,-4.1218,-4.1066,-4.1305,-4.1165,-4.0408,-3.9235,-3.8312,-3.8005,-3.8162,-3.8322,-3.7963,-3.7247,-3.7345,-3.7036,-3.6478,-3.6769,-3.6971,-3.6945,-3.5327,-3.4355,-3.3948,-3.2107,-3.1023,-3.0676,-3.0812,-3.0893,-3.0867,-3.1232,-3.1117,-3.0611,-3.1408,-3.1957,-3.2279,-3.3979,-3.5011,-3.5293,-3.5258,-3.5174,-3.5034,-3.4851,-3.4693,-3.4564,-3.4632,-3.4695,-3.4737,-3.3525,-3.2771,-3.2632,-3.129,-3.0448,0.0,-3.1053,0.0,0.0,0.0,0.0,0.0,0.0,0.0,0.0,-3.2954,-3.3341,-3.4301,-3.499,-3.5417,-3.5495,-3.5377,-3.5226,-3.5155,-3.4913,-3.4637,-3.4331,-3.4591,-3.4559,-3.4021,-3.43,-3.4427,-3.404,-3.3983,-3.3857,-3.3717,-3.3897,-3.4235,-3.465,-3.5346,-3.6046,-3.625,-3.6433,-3.6795,-3.6868,-3.6577,-3.6149,-3.5935,-3.5422,-3.5332,-3.4888,-3.4605,-3.4408,-3.4252,-3.3792,-3.3621,-3.3592,-3.2642,-3.1936,-3.1594,-3.0309,-2.9626,-3.0287,-3.0154,-2.9435,-4.1376,-4.1079,-4.1121,-4.0981,-4.0759,-4.0648,-4.0756,-4.0967,-4.0352,-3.9355,-3.8151,-3.8093,-3.8432,-3.9007,-3.8594,-3.8013,-3.7235,-3.6148,-3.5633,-3.5644,-3.585,-3.6021,-3.602,-3.4419,-3.3252,-3.242,-3.0497,-2.9503,-2.9453,-3.0057,-3.0057,-2.9517,-3.0383,-3.0497,-2.9851,0.0,0.0,0.0,-3.3627,-3.4542,-3.5262,-3.5398,-3.5369,-3.5242,-3.5088,0.0,-3.4926,-3.4978,-3.5062,-3.5136,-3.441,0.0,0.0,0.0,0.0,0.0,0.0,0.0,0.0,0.0,0.0,0.0,-3.1095,-3.1359,-3.1981,-3.2046,-3.269,-3.4129,-3.3881,-3.3865,-3.4494,-3.3901,-3.3431,-3.3314,-3.3123,-3.2823,-3.2456,-3.2242,-3.19,-3.1531,-3.1337,-3.1079,-3.097,-3.068,-3.0698,-3.0938,-3.0847,-3.1073,-3.1667,-3.4003,-3.5818,-3.627,-3.6006,-3.6006,-3.6092,-3.4936,-3.4091,-3.364,-3.289,-3.2386,-3.2128,-3.1885,-3.1625,-3.1515,-3.1105,-3.0999,-3.0835,-3.037,-3.0141,-2.9604,-2.9106,-2.8865,-2.9237,-2.8539,-2.7628,-4.0933,0.0,-4.0863,-4.0842,0.0,-4.0669,-4.0328,-3.968,-3.968,-3.8902,-3.7653,-3.7462,-3.753,-3.7703,-3.738,-3.6839,-3.6095,-3.5468,-3.5016,-3.474,-3.4926,-3.5132,-3.5208,-3.3594,-3.2597,-3.2089,-3.0241,-2.9316,-2.9312,-2.9675,-2.9678,-2.9372,-2.9884,-3.002,-2.977,-3.0045,-3.1021,-3.2669,-3.3623,-3.4537,-3.5411,-3.5528,-3.5501,-3.5345,-3.4829,0.0,0.0,0.0,0.0,0.0,0.0,0.0,0.0,0.0,0.0,-3.0734,-3.0695,-3.0714,-3.0734,-3.0767,-3.0724,-3.071,-3.061,-3.0888,-3.1678,-3.173,-3.2235,-3.3467,-3.3222,-3.3188,-3.3585,-3.3215,-3.2897,-3.2807,-3.2569,-3.2241,-3.1883,-3.1518,-3.1172,-3.0772,-3.0469,-3.0211,-2.9954,-2.9907,-2.9892,-2.9972,-3.0099,-3.0325,-3.0928,-3.2392,-3.3743,-3.424,-3.4236,-3.4124,-3.4067,-3.3481,-3.2741,-3.2499,-3.2046,-3.1584,-3.1347,-3.1144,-3.093,-3.0818,-3.0628,-3.0373,-3.0162,-2.9939,-2.9608,-2.916,-2.8547,-2.8081,-2.8073,-2.7664,-2.7121,-4.0577,-3.9993,-4.0566,-4.0703,-4.0489,-4.0537,-3.9635,-3.8212,0.0,0.0,0.0,-3.6507,-3.6229,-3.6113,-3.6124,-3.5674,-3.4924,-3.5101,-3.4768,-3.4023,-3.4269,-3.4495,-3.4551,-3.3051,-3.2298,-3.2147,-3.0471,-2.9608,-2.9551,-2.9532,-2.9589,-2.9664,-2.9663,-2.9769,-3.0,-3.0273,-3.1141,-3.2596,-3.341,-3.4229,-3.5133,-3.5152,-3.5097,-3.4976,-3.4216,-3.3834,-3.3806,-3.3204,-3.2877,-3.2941,-3.2443,-3.2103,-3.198,-3.1334,-3.0915,-3.0813,-3.0657,-3.0573,-3.0563,-3.0431,-3.0307,-3.027,-3.0148,-3.0481,-3.1388,-3.1417,-3.1738,-3.2615,-3.2532,-3.248,-3.2524,-3.2314,-3.2109,-3.1908,-3.1746,-3.1469,-3.1169,-3.1015,-3.0644,-3.0312,-3.0029,-2.9892,-2.9624,-2.9527,-2.9614,-2.966,-2.9768,-3.0245,-3.0691,-3.1262,-3.1955,-3.2424,-3.2657,-3.2468,-3.2336,-3.2166,-3.2014,-3.1917,-3.1607,-3.1406,-3.1232,-3.1028,-3.0844,-3.0581,-3.0505,-3.0202,-3.0042,-2.9651,-2.9408,-2.9007,-2.815,-2.7372,-2.7057,-2.703,-2.6791,-3.9546,-3.9342,-3.937,-3.9322,-3.9254,-3.9254,-3.8479,-3.7131,-3.6426,-3.5888,-3.5557,-3.4803,-3.5128,-3.6268,-3.6193,-3.5742,-3.5009,-3.5129,-3.4776,-3.4117,-3.4293,-3.4539,-3.4674,-3.3129,-3.2372,-3.2256,-3.0617,-2.9773,-2.9755,-2.9699,-2.9736,-2.9842,-2.9907,-3.0079,-3.0318,-3.0428,-3.0984,-3.199,-3.2155,-3.2609,-3.3439,-3.3439,-3.3409,-3.3357,-3.3215,-3.3138,-3.3141,-3.3081,-3.3103,-3.3158,-3.3135,-3.2771,-3.2046,-3.1897,-3.1579,-3.084,-3.0097,-2.9686,-2.9683,-2.8988,-2.8564,-2.8546,-2.848,-2.9031,-3.0428,-3.0595,-3.0917,-3.1725,-3.1116,-3.0701,-3.072,-3.0075,-2.934,-2.8624,-2.8802,-2.893,-2.876,-2.9101,-2.9229,-2.8861,-2.8604,-2.8475,-2.8287,-2.8153,-2.817,-2.8333,-2.8774,-2.9007,-2.986,-3.1026,-3.1972,-3.2316,-3.2425,-3.2444,-3.2086,-3.1727,-3.1201,-3.1186,-3.0452,-2.9983,-2.994,-2.976,-2.9625,-2.9384,-2.9284,-2.9039,-2.8757,-2.8401,-2.8205,-2.7809,-2.7298,-2.6826,-2.6349,-2.6145,-2.5747,-3.9373,-3.9301,-3.9275,-3.9202,-3.9054,-3.826,-3.7373,-3.6396,-3.5525,-3.5102,-3.4927,-3.4516,-3.4637,-3.5121,-3.508,-3.485,-3.4465,-3.4544,-3.4463,-3.424,-3.4363,-3.4358,-3.4054,-3.2921,-3.2179,-3.1735,-3.0563,-2.9978,-2.9959,-2.9891,-2.9907,-3.0026,-3.0123,-3.0222,-3.0378,-3.0028,-3.0062,-3.0568,-3.1443,-3.2318,-3.3132,-3.3113,-3.3073,-3.3042,-3.2615,-3.2364,-3.2327,-3.1961,-3.177,-3.1845,-3.1914,-3.1546,-3.0693,-3.0683,-3.0291,-2.9445,-2.9016,-2.8825,-2.8827,-2.845,-2.8203,-2.8198,-2.8146,-2.8365,-2.9033,-2.9038,-2.9156,-2.9536,-2.9171,-2.896,-2.8979,-2.8586,-2.8154,-2.7708,-2.7831,-2.7798,-2.7643,-2.804,-2.8113,-2.7549,-2.7608,-2.7571,-2.6986,-2.6836,-2.7006,-2.7521,-2.8257,-2.9045,-2.9514,-3.0012,-3.0582,-3.0991,-3.0814,-3.0563,-3.0494,-2.981,-2.9289,-2.9188,-2.8796,-2.8674,-2.8891,-2.8914,-2.8909,-2.9071,-2.9003,-2.8767,-2.8458,-2.8219,-2.7893,-2.7478,-2.7053,-2.6657,-2.626,-2.5754,-2.5185,-3.9338,-3.9195,-3.9144,-3.8981,-3.8626,-3.7376,-3.6537,-3.6022,-3.5287,-3.4889,-3.4771,-3.4607,-3.4431,-3.4274,-3.403,-3.3864,-3.3778,-3.366,-3.3664,-3.3825,-3.3955,-3.3805,-3.3336,-3.2574,-3.1865,-3.1283,-3.0483,-3.0083,-3.0087,-3.0053,-3.0049,-3.0157,-3.0267,-3.0271,-3.0124,-2.9616,-2.9264,-2.9221,-3.0416,-3.139,-3.2042,-3.1997,-3.197,-3.1923,-3.1304,-3.0936,-3.0926,-3.0361,-3.0062,-3.0146,-3.0177,-2.9892,-2.9277,-2.9192,-2.8903,-2.8268,-2.8015,-2.785,-2.7709,-2.7674,-2.763,-2.7643,-2.7579,-2.7505,-2.7442,-2.7354,-2.7467,-2.775,-2.7892,-2.7796,-2.7604,-2.7524,-2.74,-2.7173,-2.7139,-2.7019,-2.6856,-2.7305,-2.7401,-2.6673,-2.6923,-2.6892,-2.6291,-2.6081,-2.6465,-2.7393,-2.8393,-2.9157,-2.9357,-2.9131,-2.9232,-2.9289,-2.9059,-2.8779,-2.8618,-2.8191,-2.7801,-2.7603,-2.7623,-2.7854,-2.8212,-2.8324,-2.8502,-2.8886,-2.9071,-2.8915,-2.8543,-2.8353,-2.8081,-2.76,-2.7198,-2.6791,-2.626,-2.568,-2.5107,-3.9223,-3.8587,-3.8389,-3.7914,-3.7276,-3.6585,-3.6311,-3.6214,-3.5435,-3.5073,-3.4978,-3.4734,-3.4532,-3.4445,-3.3575,-3.3185,-3.3111,-3.243,-3.2203,-3.2389,-3.2506,-3.2632,-3.2616,-3.1863,-3.1455,-3.1259,-3.0505,-3.0094,-3.0117,-3.0075,-3.0147,-3.0279,-3.0406,-3.0076,-2.95,-2.9361,-2.9007,-2.8343,-2.8454,-2.8585,-2.865,-2.8598,-2.857,-2.8555,-2.8457,-2.8368,-2.8589,-2.8359,-2.8365,-2.8416,-2.8496,-2.8436,-2.8315,-2.8327,-2.8271,-2.812,-2.7435,-2.6711,-2.6048,-2.5937,-2.5991,-2.5924,-2.5952,-2.5901,-2.5829,-2.5778,-2.635,-2.7412,-2.7791,-2.7385,-2.6828,-2.6669,-2.6324,-2.571,-2.5999,-2.6216,-2.6134,-2.658,-2.6914,-2.6718,-2.6533,-2.6494,-2.6231,-2.6164,-2.6658,-2.749,-2.809,-2.8548,-2.8757,-2.8785,-2.8623,-2.8279,-2.7999,-2.7937,-2.7876,-2.7819,-2.7465,-2.7459,-2.7535,-2.7485,-2.7551,-2.801,-2.8496,-2.8521,-2.8862,-2.9052,-2.8743,-2.8492,-2.8191,-2.7736,-2.7324,-2.6923,-2.6154,-2.5584,-2.5201,-3.8105,-3.7788,-3.7698,-3.7235,-3.6591,-3.6388,-3.6099,-3.5687,-3.483,-3.4464,-3.44,-3.3743,-3.3601,-3.3898,-3.2985,-3.2566,-3.255,-3.2255,-3.2203,-3.2279,-3.2441,-3.2292,-3.1874,-3.1618,-3.124,-3.0757,-3.0379,-3.0226,-3.0117,-2.9761,-2.978,-3.0194,-2.9496,-2.9115,-2.9252,-2.8411,-2.776,-2.7415,-2.6967,-2.6714,-2.6822,-2.7634,-2.8106,-2.8085,-2.8047,-2.8028,-2.8099,-2.8107,-2.814,-2.8181,-2.8234,-2.7988,-2.7462,-2.7445,-2.7167,-2.6662,-2.631,-2.6013,-2.571,-2.5693,-2.5703,-2.5694,-2.5673,-2.5628,-2.555,-2.5531,-2.5817,-2.6301,-2.6429,-2.6227,-2.5938,-2.5821,-2.5595,-2.5268,-2.5381,-2.5451,-2.5292,-2.5862,-2.6115,-2.5542,-2.5686,-2.5678,-2.5326,-2.5585,-2.6111,-2.6767,-2.733,-2.7873,-2.8051,-2.789,-2.7574,-2.7272,-2.6873,-2.6757,-2.6987,-2.6632,-2.6428,-2.6288,-2.6244,-2.6242,-2.6828,-2.7424,-2.7948,-2.822,-2.8817,-2.9071,-2.8834,-2.8594,-2.8309,-2.7864,-2.7244,-2.6725,-2.6203,-2.5749,-2.5448,-3.7232,-3.7005,-3.6799,-3.6386,-3.5931,-3.6039,-3.5682,-3.496,-3.4327,-3.3954,-3.3695,-3.2752,-3.2556,-3.2841,-3.2241,-3.1958,-3.1939,-3.1784,-3.1758,-3.1844,-3.1955,-3.1685,-3.1172,-3.1167,-3.09,-3.0388,-3.0087,-2.9826,-2.9589,-2.9075,-2.9105,-2.9487,-2.8584,-2.8267,-2.854,-2.7434,-2.6797,-2.6541,-2.5979,-2.5687,-2.5878,-2.685,-2.7439,-2.7408,-2.7353,-2.7334,-2.7414,-2.7426,-2.7444,-2.7498,-2.7557,-2.7259,-2.6601,-2.6515,-2.6209,-2.5583,-2.5518,-2.5604,-2.5652,-2.5693,-2.5697,-2.5703,-2.5691,-2.5658,-2.5615,-2.555,-2.5518,-2.5534,-2.5456,-2.5481,-2.5388,-2.5332,-2.5264,-2.519,-2.508,-2.4974,-2.4932,-2.534,-2.534,-2.4735,-2.5022,-2.5023,-2.4579,-2.4948,-2.5554,-2.6073,-2.6702,-2.7217,-2.7338,-2.7071,-2.6767,-2.6504,-2.5975,-2.5915,-2.6268,-2.6002,-2.544,-2.536,-2.5447,-2.5636,-2.6063,-2.6683,-2.7386,-2.7778,-2.8577,-2.9031,-2.8906,-2.87,-2.8388,-2.7922,-2.7338,-2.6691,-2.6312,-2.5917,-2.5675,-3.7053,-3.6273,-3.5528,-3.524,-3.5162,-3.5293,-3.4942,-3.423,-3.4128,-3.3737,-3.2961,-3.2045,-3.1661,-3.1711,-3.1463,-3.1343,-3.1222,-3.0638,-3.0409,-3.0535,-3.0561,-3.0506,-3.0444,-3.0444,-3.0425,-3.024,-2.9598,-2.8837,-2.808,-2.7969,-2.7991,-2.812,-2.8008,-2.7672,-2.7211,-2.6961,-2.6513,-2.5902,-2.5746,-2.5687,-2.5707,-2.5804,-2.5887,-2.5865,-2.5699,-2.5764,-2.5754,-2.5722,-2.5775,-2.5835,-2.5897,-2.5818,-2.5671,-2.564,-2.5536,-2.5422,-2.5468,-2.5531,-2.5615,-2.5655,-2.5707,-2.5703,-2.5699,-2.5659,-2.5609,-2.5595,-2.5562,-2.5518,-2.5483,-2.5484,-2.5415,-2.5351,-2.5293,-2.5212,-2.5122,-2.5013,-2.4912,-2.4907,-2.4832,-2.4701,-2.4676,-2.4661,-2.4582,-2.4714,-2.5284,-2.5877,-2.6376,-2.6591,-2.6687,-2.6748,-2.6471,-2.5995,-2.5717,-2.5678,-2.5673,-2.5602,-2.551,-2.5437,-2.5397,-2.5399,-2.5546,-2.5869,-2.6621,-2.727,-2.788,-2.8407,-2.8787,-2.8779,-2.8404,-2.7961,-2.7417,-2.6875,-2.6504,-2.6118,-2.5844,-3.5813,-3.5579,-3.5337,-3.4948,-3.4481,-3.4548,-3.4154,-3.3383,-3.2844,-3.2451,-3.2066,-3.1264,-3.0898,-3.0898,-3.0814,-3.0733,-3.063,-3.0401,-3.033,-3.0374,-3.0444,-3.0447,-3.0398,-3.0439,-3.0141,-2.9629,-2.931,-2.8732,-2.7943,-2.744,-2.7508,-2.7769,-2.6985,-2.6612,-2.6802,-2.6403,-2.598,-2.5735,-2.5698,-2.5701,-2.5701,-2.5701,-2.569,-2.5668,-2.56,-2.5307,-2.4788,-2.5301,-2.5378,-2.49,-2.5347,-2.5606,-2.5542,-2.5418,-2.5367,-2.533,-2.5367,-2.5426,-2.5531,-2.5605,-2.5658,-2.5694,-2.5703,-2.5693,-2.5658,-2.5619,-2.5585,-2.557,-2.5524,-2.5499,-2.5468,-2.5406,-2.5332,-2.5262,-2.5176,-2.5063,-2.498,-2.4898,-2.4832,-2.4757,-2.4711,-2.4742,-2.4794,-2.4879,-2.5101,-2.5459,-2.5687,-2.5854,-2.5932,-2.6014,-2.5964,-2.5768,-2.5679,-2.5693,-2.5662,-2.5615,-2.5543,-2.5505,-2.5464,-2.5397,-2.5466,-2.5891,-2.6581,-2.6745,-2.7248,-2.7718,-2.8133,-2.8469,-2.817,-2.7883,-2.7344,-2.707,-2.6725,-2.6365,-2.6099,-3.4419,-3.4466,-3.4525,-3.4241,-3.3788,-3.3807,-3.3354,-3.2585,-3.2008,-3.1621,-3.1274,-3.0762,-3.053,-3.053,-3.053,-3.0482,-3.04,-3.0458,-3.0458,-3.0469,-3.051,-3.0501,-3.0491,-3.052,-3.0086,-2.9255,-2.8656,-2.7999,-2.7232,-2.6664,-2.6722,-2.7132,-2.6119,-2.5931,-2.6398,-2.5993,-2.5705,-2.5689,-2.5691,-2.5693,-2.5693,-2.5693,-2.5691,-2.5642,-2.5375,-2.4947,-2.4374,-2.5177,-2.524,-2.4629,-2.5182,-2.5559,-2.5473,-2.5329,-2.5264,-2.5273,-2.5284,-2.5312,-2.5445,-2.5518,-2.56,-2.5654,-2.5699,-2.57,-2.5693,-2.564,-2.5605,-2.5593,-2.557,-2.5529,-2.5507,-2.5448,-2.5369,-2.5302,-2.5179,-2.5087,-2.5025,-2.4972,-2.4917,-2.4875,-2.4889,-2.4907,-2.4949,-2.5056,-2.516,-2.5255,-2.5368,-2.5454,-2.5532,-2.558,-2.5644,-2.5694,-2.5696,-2.5691,-2.5681,-2.5655,-2.56,-2.557,-2.549,-2.5429,-2.5456,-2.5928,-2.6197,-2.6308,-2.6586,-2.7058,-2.7469,-2.789,-2.7857,-2.7617,-2.749,-2.723,-2.6891,-2.6538,-2.6312,-3.2954,-3.3032,-3.2993,-3.3082,-3.301,-3.3051,-3.258,-3.1855,-3.1805,-3.1349,-3.0787,-3.0621,-3.0602,-3.0602,-3.0602,-3.0602,-3.0593,-3.0585,-3.0595,-3.0586,-3.0585,-3.0593,-3.0593,-3.0574,-3.0089,-2.9187,-2.7602,-2.6447,-2.5751,-2.5744,-2.579,-2.5714,-2.5785,-2.5744,-2.5753,-2.5737,-2.57,-2.5661,-2.5622,-2.5583,-2.5681,-2.5521,-2.544,-2.544,-2.479,-2.4334,-2.4274,-2.5128,-2.5175,-2.4508,-2.5144,-2.5526,-2.541,-2.5274,-2.522,-2.5198,-2.519,-2.5234,-2.5302,-2.5418,-2.5529,-2.5601,-2.5646,-2.5703,-2.5689,-2.5639,-2.5604,-2.5609,-2.5595,-2.557,-2.5505,-2.5441,-2.5387,-2.5312,-2.519,-2.5099,-2.5032,-2.4985,-2.5004,-2.5012,-2.5044,-2.5099,-2.513,-2.5205,-2.5302,-2.5391,-2.5453,-2.5513,-2.559,-2.5654,-2.5683,-2.5703,-2.5703,-2.57,-2.5694,-2.5701,-2.566,-2.5624,-2.5544,-2.5488,-2.5412,-2.5707,-2.585,-2.5956,-2.6186,-2.6599,-2.6692,-2.7053,-2.735,-2.7246,-2.725,-2.7296,-2.7103,-2.6775,-2.6469,-3.2964,-3.2968,-3.3032,-3.2724,-3.228,-3.2271,-3.1786,-3.103,-3.1045,-3.0917,-3.0692,-3.0668,-3.0676,-3.0656,-3.0664,-3.0664,-3.0671,-3.0658,-3.0637,-3.0591,-3.0602,-3.061,-3.061,-3.0582,-2.9873,-2.8407,-2.674,-2.581,-2.5626,-2.5605,-2.5601,-2.5654,-2.5691,-2.5698,-2.5702,-2.5703,-2.5703,-2.5605,-2.4922,-2.4609,-2.4726,-2.4257,-2.4003,-2.3944,-2.369,-2.3319,-2.2792,-2.4042,-2.4335,-2.3579,-2.4849,-2.5511,-2.5351,-2.5198,-2.5118,-2.5069,-2.5069,-2.5111,-2.5222,-2.5339,-2.5466,-2.5513,-2.5595,-2.5662,-2.5694,-2.5626,-2.5613,-2.56,-2.5607,-2.5583,-2.551,-2.548,-2.5423,-2.5313,-2.5231,-2.5153,-2.5101,-2.5063,-2.5087,-2.513,-2.5198,-2.5253,-2.5312,-2.5401,-2.5459,-2.5502,-2.5554,-2.5593,-2.5654,-2.5683,-2.5703,-2.5703,-2.5703,-2.5703,-2.5699,-2.5689,-2.5662,-2.5634,-2.5582,-2.5524,-2.5472,-2.5462,-2.5572,-2.565,-2.5861,-2.5973,-2.6061,-2.6282,-2.6594,-2.6839,-2.6871,-2.7,-2.7168,-2.6901,-2.6336,-3.2116,-3.2164,-3.2192,-3.1939,-3.1482,-3.1468,-3.1146,-3.068,-3.0683,-3.0697,-3.0697,-3.0704,-3.0691,-3.0691,-3.0698,-3.0704,-3.0704,-3.0697,-3.0503,-3.0314,-3.0559,-3.063,-3.0521,-2.9931,-2.9038,-2.7667,-2.6229,-2.559,-2.5634,-2.5648,-2.5676,-2.5696,-2.5702,-2.5703,-2.5702,-2.5683,-2.5585,-2.5175,-2.4531,-2.4081,-2.3867,-2.3437,-2.3164,-2.3144,-2.289,-2.242,-2.2008,-2.3218,-2.368,-2.3478,-2.4647,-2.5398,-2.5302,-2.5184,-2.5057,-2.5006,-2.5012,-2.5051,-2.513,-2.5262,-2.5363,-2.5446,-2.5554,-2.5638,-2.5679,-2.5629,-2.5598,-2.56,-2.5599,-2.5583,-2.5538,-2.5524,-2.548,-2.5406,-2.5293,-2.522,-2.5176,-2.5168,-2.5192,-2.5264,-2.5351,-2.5401,-2.5471,-2.5511,-2.5561,-2.5613,-2.5642,-2.564,-2.5703,-2.5702,-2.57,-2.57,-2.57,-2.5702,-2.5703,-2.5694,-2.5676,-2.564,-2.5629,-2.5564,-2.549,-2.5472,-2.553,-2.5354,-2.5456,-2.5337,-2.5388,-2.5723,-2.6038,-2.6207,-2.633,-2.63,-2.6295,-2.6065,-2.5669,-3.0668,-3.07,-3.0727,-3.0792,-3.0775,-3.0769,-3.0698,-3.0601,-3.058,-3.0489,-3.045,-3.032,-3.0397,-3.0495,-3.0286,-3.0286,-3.0514,-3.0364,-2.998,-2.9722,-2.9989,-3.0294,-3.0113,-2.8888,-2.7837,-2.6987,-2.6048,-2.5656,-2.5675,-2.5701,-2.5697,-2.5703,-2.5703,-2.57,-2.5696,-2.5697,-2.5308,-2.4624,-2.4273,-2.3746,-2.3063,-2.2868,-2.2829,-2.2789,-2.2165,-2.1753,-2.1767,-2.2628,-2.3238,-2.3431,-2.4743,-2.5376,-2.5292,-2.5172,-2.5057,-2.498,-2.4991,-2.4972,-2.5019,-2.5145,-2.5274,-2.5408,-2.5531,-2.5634,-2.568,-2.5634,-2.5598,-2.5609,-2.5604,-2.5593,-2.5601,-2.5601,-2.5557,-2.551,-2.5376,-2.5313,-2.5312,-2.5293,-2.534,-2.5382,-2.5464,-2.5525,-2.5581,-2.5598,-2.5632,-2.5672,-2.5702,-2.5702,-2.5676,-2.5687,-2.5701,-2.5703,-2.5689,-2.5698,-2.5703,-2.5701,-2.567,-2.5668,-2.5648,-2.5609,-2.5512,-2.5483,-2.5432,-2.5252,-2.5076,-2.4908,-2.4851,-2.5208,-2.5397,-2.552,-2.5541,-2.5437,-2.5442,-2.5403,-2.5335,-3.069,-3.0704,-3.0698,-3.0704,-3.071,-3.0748,-3.0378,-2.9858,-2.9825,-2.9479,-2.9031,-2.8844,-2.8946,-2.8887,-2.8907,-2.8848,-2.8965,-2.8926,-2.879,-2.8618,-2.8735,-2.8875,-2.8686,-2.779,-2.7132,-2.6762,-2.6061,-2.5687,-2.5701,-2.5698,-2.5703,-2.5698,-2.5693,-2.5685,-2.5701,-2.5661,-2.5232,-2.4354,-2.3304,-2.2664,-2.2158,-2.1576,-2.1265,-2.1246,-2.1089,-2.0967,-2.1015,-2.2271,-2.3664,-2.4793,-2.5147,-2.533,-2.5175,-2.5084,-2.4968,-2.4864,-2.4865,-2.487,-2.4953,-2.5087,-2.5254,-2.5403,-2.5517,-2.5633,-2.5701,-2.5648,-2.5604,-2.5609,-2.5613,-2.5607,-2.5607,-2.5604,-2.5585,-2.5574,-2.5464,-2.5385,-2.5385,-2.5414,-2.5459,-2.5479,-2.554,-2.5585,-2.5619,-2.5644,-2.5679,-2.5683,-2.5698,-2.5687,-2.5654,-2.5668,-2.5681,-2.5693,-2.5703,-2.5693,-2.5701,-2.5703,-2.5699,-2.5685,-2.5681,-2.5648,-2.556,-2.5492,-2.541,-2.5274,-2.5111,-2.4934,-2.4719,-2.4793,-2.4856,-2.4962,-2.4915,-2.4931,-2.5288,-2.537,-2.5195,-3.0183,-3.0189,-3.02,-3.0185,-3.021,-3.0219,-2.9756,-2.9074,-2.8973,-2.8746,-2.8317,-2.8246,-2.8229,-2.8229,-2.8249,-2.8268,-2.8249,-2.8249,-2.8056,-2.763,-2.7342,-2.7371,-2.7468,-2.7114,-2.6747,-2.636,-2.5949,-2.5726,-2.5698,-2.5703,-2.5696,-2.5701,-2.5671,-2.5662,-2.5616,-2.5272,-2.4726,-2.3793,-2.2669,-2.1835,-2.1251,-2.0804,-2.0629,-2.057,-2.0586,-2.075,-2.1535,-2.2177,-2.3347,-2.4849,-2.5084,-2.4764,-2.4664,-2.4583,-2.4499,-2.4428,-2.4611,-2.4823,-2.4893,-2.5038,-2.5184,-2.534,-2.5484,-2.5607,-2.5681,-2.5665,-2.5639,-2.56,-2.562,-2.5644,-2.5644,-2.5639,-2.5628,-2.5624,-2.5565,-2.5505,-2.5499,-2.5523,-2.5532,-2.5556,-2.5613,-2.5642,-2.5654,-2.5683,-2.5701,-2.5693,-2.5676,-2.5642,-2.5605,-2.564,-2.566,-2.5675,-2.5684,-2.5676,-2.5687,-2.5698,-2.5703,-2.5698,-2.5698,-2.5675,-2.5605,-2.5499,-2.5406,-2.5293,-2.513,-2.4962,-2.479,-2.4578,-2.4505,-2.4572,-2.4469,-2.4441,-2.4668,-2.4917,-2.4761,-2.9371,-2.9363,-2.9363,-2.9367,-2.9374,-2.9354,-2.8886,-2.8187,-2.8134,-2.8042,-2.7886,-2.7967,-2.7774,-2.8028,-2.7678,-2.7949,-2.793,-2.7756,-2.7446,-2.6845,-2.632,-2.6238,-2.6791,-2.6769,-2.6362,-2.5878,-2.5712,-2.5701,-2.5703,-2.5694,-2.5696,-2.5697,-2.5644,-2.5613,-2.5457,-2.4861,-2.3972,-2.3196,-2.2344,-2.145,-2.0826,-2.057,-2.0528,-2.0522,-2.0503,-2.1191,-2.1981,-2.2262,-2.275,-2.4999,-2.4312,-2.3899,-2.379,-2.374,-2.3814,-2.3955,-2.4444,-2.4856,-2.4912,-2.5,-2.5111,-2.5286,-2.5443,-2.5542,-2.5662,-2.5693,-2.5656,-2.5615,-2.5664,-2.5687,-2.5691,-2.5694,-2.5681,-2.5684,-2.5668,-2.5658,-2.5625,-2.5605,-2.56,-2.5618,-2.5657,-2.5683,-2.5702,-2.5691,-2.5693,-2.5668,-2.5644,-2.5628,-2.56,-2.5615,-2.5634,-2.5624,-2.5632,-2.564,-2.5662,-2.5698,-2.5698,-2.5703,-2.5693,-2.5671,-2.5639,-2.5537,-2.543,-2.533,-2.5194,-2.5024,-2.4847,-2.4657,-2.4462,-2.4284,-2.4288,-2.397,-2.3715,-2.3993,-2.4034,-2.8561,-2.8566,-2.8566,-2.8547,-2.855,-2.8535,-2.8049,-2.7288,-2.7274,-2.6945,-2.6419,-2.6302,-2.6322,-2.6322,-2.6421,-2.6244,-2.6419,-2.6419,-2.6108,-2.603,-2.5836,-2.5759,-2.6011,-2.6048,-2.5912,-2.5699,-2.5703,-2.5702,-2.5696,-2.5696,-2.5694,-2.5679,-2.5619,-2.5595,-2.5435,-2.4642,-2.3906,-2.3089,-2.2204,-2.1331,-2.0669,-2.0487,-2.0499,-2.0488,-2.0449,-2.0919,-2.1622,-2.1675,-2.2136,-2.2938,-2.3159,-2.3007,-2.312,-2.3507,-2.3736,-2.391,-2.4479,-2.4931,-2.4926,-2.5069,-2.5192,-2.5307,-2.5457,-2.5618,-2.5684,-2.5707,-2.5658,-2.5621,-2.5609,-2.5668,-2.5683,-2.5703,-2.5687,-2.5694,-2.5697,-2.5698,-2.57,-2.5659,-2.5679,-2.5683,-2.5683,-2.5694,-2.5687,-2.5648,-2.5644,-2.5628,-2.563,-2.5609,-2.5604,-2.5604,-2.5585,-2.5571,-2.5581,-2.5591,-2.5609,-2.5658,-2.5685,-2.57,-2.5702,-2.5689,-2.5652,-2.5571,-2.5479,-2.5371,-2.5274,-2.5096,-2.4934,-2.4768,-2.4564,-2.4357,-2.4153,-2.3958,-2.3774,-2.3667,-2.3594,-2.7704,-2.7686,-2.7689,-2.7689,-2.7689,-2.7672,-2.7184,-2.6501,-2.6405,-2.6132,-2.5781,-2.5703,-2.5703,-2.5703,-2.5703,-2.5723,-2.5703,-2.5703,-2.5722,-2.5722,-2.5703,-2.5703,-2.5703,-2.5703,-2.5703,-2.5703,-2.5701,-2.5691,-2.5654,-2.5644,-2.5615,-2.562,-2.554,-2.5277,-2.4907,-2.4141,-2.3252,-2.2401,-2.1628,-2.0932,-2.0523,-2.0452,-2.0425,-2.0394,-2.0379,-2.0692,-2.1427,-2.1048,-2.132,-2.1828,-2.2115,-2.2326,-2.2611,-2.3046,-2.3351,-2.3847,-2.4485,-2.494,-2.4999,-2.5069,-2.5201,-2.5337,-2.5479,-2.5597,-2.5658,-2.5701,-2.5691,-2.5664,-2.5664,-2.5673,-2.5699,-2.5699,-2.5702,-2.5703,-2.5703,-2.5702,-2.5698,-2.57,-2.5702,-2.5697,-2.5661,-2.5645,-2.5629,-2.5604,-2.5566,-2.5565,-2.5568,-2.555,-2.555,-2.5544,-2.555,-2.5537,-2.5549,-2.556,-2.5576,-2.5609,-2.5668,-2.5691,-2.5702,-2.5701,-2.5668,-2.5605,-2.5515,-2.5425,-2.5321,-2.5171,-2.4994,-2.4837,-2.4676,-2.4497,-2.4302,-2.4135,-2.3998,-2.3878,-2.3813,-2.6816,-2.6816,-2.6816,-2.6797,-2.6797,-2.6797,-2.6406,-2.58,-2.5702,-2.5759,-2.5701,-2.5699,-2.5698,-2.5699,-2.5699,-2.57,-2.5702,-2.5703,-2.5703,-2.5703,-2.5702,-2.5702,-2.5699,-2.5673,-2.5668,-2.5693,-2.5685,-2.5645,-2.5617,-2.56,-2.5574,-2.5486,-2.5312,-2.4982,-2.4277,-2.33,-2.2516,-2.1803,-2.1051,-2.0561,-2.0395,-2.0394,-2.036,-2.0265,-2.0246,-2.0455,-2.089,-2.0766,-2.0709,-2.1242,-2.1412,-2.1945,-2.2517,-2.278,-2.2961,-2.3796,-2.4536,-2.4915,-2.5012,-2.5082,-2.5212,-2.5365,-2.5467,-2.5561,-2.5661,-2.568,-2.5683,-2.5683,-2.5683,-2.5683,-2.5703,-2.5703,-2.5702,-2.568,-2.5673,-2.5683,-2.5693,-2.5679,-2.5676,-2.5651,-2.5605,-2.558,-2.5581,-2.5554,-2.5531,-2.5512,-2.5518,-2.5511,-2.5505,-2.5505,-2.5511,-2.5518,-2.5525,-2.5531,-2.5549,-2.5595,-2.5644,-2.5657,-2.5675,-2.5703,-2.57,-2.5657,-2.5576,-2.5453,-2.5357,-2.5224,-2.5068,-2.4934,-2.4764,-2.461,-2.4479,-2.4302,-2.4192,-2.4096,-2.4018,-2.5916,-2.5916,-2.5916,-2.5916,-2.5935,-2.5932,-2.5871,-2.5715,-2.5689,-2.5687,-2.5689,-2.5685,-2.5685,-2.5689,-2.5689,-2.5693,-2.5694,-2.5697,-2.5698,-2.57,-2.5697,-2.5693,-2.5683,-2.5648,-2.5632,-2.5617,-2.5613,-2.5604,-2.5586,-2.5554,-2.5518,-2.5376,-2.4852,-2.44,-2.3857,-2.2842,-2.1925,-2.1487,-2.0809,-2.041,-2.0328,-2.0282,-2.0262,-2.0182,-2.0193,-2.0317,-2.0469,-2.0859,-2.1183,-2.1344,-2.195,-2.2699,-2.3296,-2.3517,-2.3695,-2.3986,-2.4594,-2.5012,-2.5038,-2.5172,-2.5262,-2.5348,-2.5466,-2.5571,-2.5629,-2.5634,-2.565,-2.5675,-2.5697,-2.5696,-2.5693,-2.5689,-2.5661,-2.5632,-2.5619,-2.5621,-2.5615,-2.5605,-2.561,-2.5591,-2.554,-2.5517,-2.5525,-2.5538,-2.5518,-2.5498,-2.5483,-2.5476,-2.5468,-2.5488,-2.5488,-2.5495,-2.551,-2.5511,-2.5518,-2.5568,-2.561,-2.5632,-2.5661,-2.5699,-2.5703,-2.5691,-2.5632,-2.551,-2.5414,-2.5303,-2.5149,-2.4994,-2.4851,-2.4689,-2.4578,-2.4479,-2.4393,-2.4303,-2.4228,-2.5666,-2.5687,-2.5661,-2.564,-2.564,-2.5654,-2.5648,-2.5645,-2.5658,-2.5639,-2.5639,-2.5639,-2.5639,-2.5645,-2.5648,-2.5673,-2.5701,-2.5707,-2.5689,-2.5691,-2.5705,-2.5673,-2.5636,-2.5609,-2.5576,-2.5549,-2.5531,-2.5525,-2.5544,-2.5531,-2.5471,-2.5255,-2.4621,-2.4002,-2.3403,-2.2339,-2.1488,-2.1049,-2.0592,-2.0301,-2.0246,-2.0175,-2.0098,-2.0106,-2.0435,-2.0622,-2.0751,-2.1365,-2.1801,-2.199,-2.2622,-2.3227,-2.3682,-2.4093,-2.4333,-2.4454,-2.4803,-2.5044,-2.5051,-2.5172,-2.5203,-2.5321,-2.543,-2.5525,-2.5571,-2.5604,-2.5629,-2.5642,-2.5645,-2.5645,-2.5642,-2.5655,-2.5625,-2.5561,-2.5561,-2.5554,-2.5538,-2.5511,-2.5518,-2.5512,-2.5499,-2.5485,-2.5511,-2.5517,-2.5483,-2.5468,-2.5453,-2.5437,-2.544,-2.5432,-2.5443,-2.5448,-2.5464,-2.5476,-2.5485,-2.5538,-2.5593,-2.5619,-2.5639,-2.567,-2.5703,-2.5699,-2.5657,-2.5561,-2.5467,-2.5367,-2.5233,-2.5075,-2.4915,-2.4794,-2.4689,-2.4613,-2.4566,-2.4498,-2.4393,-2.5609,-2.5678,-2.5625,-2.5598,-2.5598,-2.5609,-2.5585,-2.5576,-2.5591,-2.5586,-2.5586,-2.5586,-2.5571,-2.558,-2.5589,-2.5617,-2.5678,-2.5681,-2.5665,-2.5665,-2.5655,-2.5636,-2.5591,-2.5549,-2.5506,-2.5478,-2.5441,-2.541,-2.5468,-2.5464,-2.5432,-2.5183,-2.4538,-2.3796,-2.3122,-2.2177,-2.1244,-2.0727,-2.0289,-2.0219,-2.0124,-2.0041,-2.0053,-2.0149,-2.0807,-2.118,-2.1413,-2.2161,-2.2539,-2.2803,-2.3313,-2.3865,-2.3959,-2.4469,-2.4837,-2.495,-2.4996,-2.5037,-2.507,-2.5137,-2.5182,-2.5274,-2.5337,-2.5449,-2.5518,-2.5556,-2.5579,-2.5595,-2.5586,-2.5571,-2.5586,-2.5586,-2.5546,-2.5498,-2.5486,-2.5485,-2.5468,-2.5456,-2.5421,-2.5429,-2.5437,-2.5445,-2.5445,-2.5472,-2.5437,-2.5432,-2.5415,-2.536,-2.5341,-2.5351,-2.5351,-2.536,-2.5395,-2.5429,-2.5449,-2.5498,-2.5557,-2.5604,-2.5636,-2.5651,-2.5677,-2.5703,-2.5648,-2.5609,-2.5504,-2.5387,-2.5274,-2.5176,-2.5038,-2.4921,-2.4827,-2.4723,-2.4645,-2.4582,-2.4498,-2.5551,-2.56,-2.5595,-2.5615,-2.561,-2.5595,-2.556,-2.5504,-2.5499,-2.5512,-2.5493,-2.5511,-2.5506,-2.5531,-2.5568,-2.5599,-2.5615,-2.562,-2.561,-2.5615,-2.5556,-2.5535,-2.5505,-2.5452,-2.5434,-2.5429,-2.5404,-2.5393,-2.5385,-2.5406,-2.5407,-2.5196,-2.4505,-2.3918,-2.3573,-2.2352,-2.1468,-2.1165,-2.0535,-2.0108,-1.9971,-1.9915,-2.0236,-2.0697,-2.1098,-2.1512,-2.2152,-2.2938,-2.3399,-2.3526,-2.4172,-2.4586,-2.4681,-2.47,-2.4794,-2.4856,-2.4917,-2.4991,-2.5037,-2.5113,-2.5168,-2.5224,-2.5303,-2.5404,-2.5453,-2.5503,-2.5517,-2.5517,-2.5518,-2.5493,-2.5512,-2.5492,-2.549,-2.5449,-2.5406,-2.5412,-2.5416,-2.5351,-2.5332,-2.5322,-2.5322,-2.534,-2.5359,-2.5387,-2.5387,-2.5379,-2.5341,-2.5293,-2.5262,-2.5271,-2.5292,-2.5332,-2.5351,-2.5367,-2.541,-2.5461,-2.5498,-2.5589,-2.5605,-2.5632,-2.5668,-2.5703,-2.5697,-2.5645,-2.5537,-2.5446,-2.5357,-2.5244,-2.5134,-2.5044,-2.4972,-2.4827,-2.4707,-2.4645,-2.4582,-2.5387,-2.5486,-2.5479,-2.5492,-2.5473,-2.5485,-2.5444,-2.5395,-2.5379,-2.539,-2.5371,-2.5401,-2.5418,-2.5449,-2.5483,-2.5505,-2.5538,-2.5544,-2.5551,-2.5538,-2.5473,-2.5452,-2.5434,-2.5385,-2.534,-2.5341,-2.5322,-2.5284,-2.5293,-2.5313,-2.5312,-2.5088,-2.4405,-2.3883,-2.3902,-2.2707,-2.2179,-2.1774,-2.1179,-2.0399,-1.9998,-1.9894,-2.0183,-2.095,-2.1424,-2.2093,-2.2909,-2.3731,-2.4193,-2.4283,-2.464,-2.4452,-2.4321,-2.4381,-2.4591,-2.4046,-2.4546,-2.4827,-2.4931,-2.5025,-2.508,-2.516,-2.5264,-2.534,-2.5395,-2.544,-2.5456,-2.5445,-2.5453,-2.5441,-2.5434,-2.5437,-2.5404,-2.535,-2.5322,-2.5293,-2.5273,-2.5233,-2.5212,-2.5212,-2.5201,-2.5214,-2.5234,-2.5274,-2.5274,-2.5253,-2.5222,-2.5179,-2.5187,-2.5214,-2.5258,-2.5302,-2.5313,-2.5331,-2.5387,-2.5421,-2.5453,-2.5531,-2.5587,-2.5609,-2.5673,-2.5699,-2.5702,-2.5683,-2.5598,-2.5504,-2.5418,-2.5321,-2.5212,-2.5141,-2.5095,-2.4959,-2.4813,-2.4692,-2.4596,-2.5203,-2.5302,-2.535,-2.5359,-2.5359,-2.5359,-2.5321,-2.5284,-2.5284,-2.5284,-2.5284,-2.5293,-2.534,-2.5359,-2.5376,-2.5393,-2.5456,-2.5437,-2.5437,-2.5429,-2.5393,-2.5376,-2.534,-2.5293,-2.5264,-2.5262,-2.5243,-2.5222,-2.522,-2.5209,-2.5157,-2.5041,-2.4548,-2.4176,-2.3872,-2.3259,-2.2697,-2.2231,-2.1714,-2.1091,-2.0575,-2.0437,-2.0877,-2.1484,-2.2103,-2.279,-2.3624,-2.4217,-2.4623,-2.4301,-2.4245,-2.3907,-2.3364,-2.3499,-2.3577,-2.3352,-2.3798,-2.4294,-2.4488,-2.4693,-2.4956,-2.5091,-2.5212,-2.5322,-2.536,-2.5369,-2.5388,-2.5378,-2.535,-2.534,-2.5351,-2.5341,-2.5303,-2.5233,-2.519,-2.5157,-2.5134,-2.5111,-2.5068,-2.5068,-2.5056,-2.5056,-2.5091,-2.5138,-2.5149,-2.5138,-2.5103,-2.5056,-2.5075,-2.5113,-2.5191,-2.5239,-2.5262,-2.5284,-2.5332,-2.5369,-2.5412,-2.5468,-2.5531,-2.56,-2.5655,-2.5693,-2.5703,-2.5673,-2.5642,-2.56,-2.5505,-2.539,-2.5293,-2.5239,-2.5149,-2.5051,-2.4912,-2.4783,-2.458,-2.5013,-2.5043,-2.516,-2.5222,-2.5233,-2.5222,-2.5231,-2.5209,-2.5209,-2.519,-2.522,-2.5271,-2.5273,-2.5302,-2.5303,-2.5293,-2.5322,-2.5303,-2.5313,-2.5322,-2.5293,-2.5293,-2.5273,-2.5243,-2.5212,-2.5212,-2.519,-2.5187,-2.5172,-2.5094,-2.5031,-2.4949,-2.4688,-2.4742,-2.4459,-2.3818,-2.306,-2.2605,-2.2154,-2.1998,-2.1678,-2.1649,-2.1968,-2.2588,-2.3047,-2.358,-2.4325,-2.4286,-2.4076,-2.3478,-2.3459,-2.3064,-2.2428,-2.2544,-2.251,-2.2469,-2.2992,-2.3431,-2.3637,-2.4389,-2.4877,-2.5019,-2.5157,-2.5273,-2.5313,-2.5312,-2.5302,-2.5312,-2.5253,-2.5222,-2.522,-2.5198,-2.5145,-2.513,-2.5082,-2.5044,-2.5019,-2.4974,-2.4942,-2.4929,-2.4896,-2.4915,-2.4915,-2.4955,-2.5006,-2.4994,-2.4981,-2.4947,-2.4961,-2.5025,-2.5101,-2.516,-2.5179,-2.5222,-2.5262,-2.5303,-2.5341,-2.5393,-2.5464,-2.5549,-2.5617,-2.5642,-2.5701,-2.5681,-2.5661,-2.5629,-2.56,-2.5492,-2.5385,-2.5303,-2.5198,-2.5094,-2.4879,-2.467,-2.4478,-2.4884,-2.4893,-2.4987,-2.5063,-2.5141,-2.5141,-2.513,-2.5144,-2.5144,-2.5125,-2.5144,-2.5168,-2.5203,-2.5236,-2.5248,-2.5231,-2.5233,-2.5243,-2.5243,-2.5233,-2.5222,-2.5231,-2.5228,-2.5217,-2.5206,-2.5195,-2.5164,-2.513,-2.512,-2.5025,-2.4912,-2.4837,-2.476,-2.4685,-2.4436,-2.4201,-2.3612,-2.3061,-2.2715,-2.2555,-2.1842,-2.1398,-2.153,-2.2182,-2.1664,-2.2064,-2.2652,-2.2817,-2.2701,-2.2569,-2.2476,-2.1956,-2.147,-2.1655,-2.1618,-2.1429,-2.208,-2.2483,-2.2911,-2.3902,-2.4869,-2.5101,-2.5184,-2.5239,-2.5233,-2.5241,-2.5231,-2.5209,-2.5195,-2.513,-2.5087,-2.505,-2.5,-2.498,-2.494,-2.4917,-2.4856,-2.4823,-2.479,-2.4756,-2.476,-2.4779,-2.4764,-2.4783,-2.4823,-2.4851,-2.4856,-2.4842,-2.4889,-2.4898,-2.498,-2.5063,-2.5075,-2.5111,-2.5164,-2.522,-2.5262,-2.5331,-2.541,-2.5486,-2.5561,-2.5658,-2.5691,-2.5683,-2.5675,-2.5657,-2.5636,-2.5574,-2.549,-2.5378,-2.5233,-2.5111,-2.4869,-2.4604,-2.4426,-2.4249,-2.4086,-2.4389,-2.475,-2.5063,-2.5082,-2.507,-2.5076,-2.5076,-2.5057,-2.507,-2.5101,-2.5126,-2.5156,-2.5168,-2.518,-2.5164,-2.5157,-2.5187,-2.5187,-2.5187,-2.5195,-2.5214,-2.5203,-2.521,-2.518,-2.5125,-2.5088,-2.5076,-2.4977,-2.4846,-2.4707,-2.4578,-2.453,-2.4461,-2.4336,-2.4024,-2.3619,-2.314,-2.2866,-2.206,-2.1418,-2.1125,-2.1659,-2.1291,-2.1345,-2.1837,-2.1966,-2.1743,-2.1576,-2.1371,-2.1021,-2.0763,-2.0668,-2.0776,-2.0825,-2.1044,-2.1575,-2.2111,-2.3262,-2.4563,-2.4975,-2.5125,-2.5134,-2.5138,-2.5138,-2.5122,-2.513,-2.5088,-2.5006,-2.4947,-2.4893,-2.4837,-2.4798,-2.4734,-2.4689,-2.4657,-2.4642,-2.4607,-2.4572,-2.4591,-2.4591,-2.4594,-2.4594,-2.466,-2.4689,-2.4723,-2.4742,-2.4772,-2.4817,-2.4856,-2.4926,-2.498,-2.5,-2.5044,-2.5087,-2.5138,-2.5224,-2.5321,-2.543,-2.5517,-2.5609,-2.569,-2.5698,-2.5683,-2.5693,-2.5665,-2.5595,-2.5518,-2.5429,-2.5254,-2.5056,-2.4869,-2.4639,-2.4461,-2.3,-2.2407,-2.3248,-2.4119,-2.4807,-2.501,-2.501,-2.4991,-2.4996,-2.5023,-2.4999,-2.5025,-2.507,-2.5082,-2.5082,-2.5095,-2.5088,-2.5082,-2.5113,-2.5125,-2.5149,-2.5191,-2.5191,-2.5191,-2.5199,-2.518,-2.5144,-2.5082,-2.501,-2.4889,-2.4753,-2.4615,-2.4481,-2.4393,-2.4375,-2.4266,-2.4192,-2.4044,-2.329,-2.2868,-2.2483,-2.1717,-2.1334,-2.1225,-2.1025,-2.0951,-2.1006,-2.1078,-2.0823,-2.0495,-2.0422,-2.0057,-1.9618,-1.9559,-1.9588,-1.958,-2.0218,-2.0649,-2.0908,-2.2566,-2.3681,-2.4604,-2.4803,-2.5025,-2.5049,-2.5043,-2.5,-2.4974,-2.4926,-2.4856,-2.4798,-2.4723,-2.466,-2.4629,-2.4564,-2.4512,-2.4478,-2.4478,-2.4478,-2.4459,-2.4424,-2.4407,-2.4408,-2.4426,-2.4479,-2.453,-2.4599,-2.4631,-2.4666,-2.4711,-2.4719,-2.4798,-2.4842,-2.4884,-2.4907,-2.4955,-2.5031,-2.5107,-2.5215,-2.5337,-2.5466,-2.5565,-2.5625,-2.5683,-2.5701,-2.5701,-2.5666,-2.5632,-2.5523,-2.5382,-2.5163,-2.4962,-2.4814,-2.4654,-2.4442,-2.2285,-2.2088,-2.2458,-2.2811,-2.3295,-2.4408,-2.4856,-2.4875,-2.4927,-2.4908,-2.4889,-2.4936,-2.4964,-2.4977,-2.4959,-2.4972,-2.498,-2.5025,-2.5032,-2.5051,-2.5101,-2.5125,-2.5137,-2.5168,-2.5168,-2.5125,-2.5088,-2.5025,-2.4931,-2.4813,-2.4673,-2.4547,-2.4339,-2.4266,-2.419,-2.4095,-2.4037,-2.3852,-2.3227,-2.2677,-2.2453,-2.133,-2.0571,-2.0514,-2.0101,-1.9921,-1.9921,-1.9975,-1.9759,-1.9489,-1.9453,-1.9273,-1.902,-1.9053,-1.9084,-1.9148,-1.965,-1.9989,-2.0449,-2.1525,-2.2368,-2.3493,-2.4464,-2.4747,-2.4883,-2.4879,-2.4856,-2.4813,-2.4738,-2.4676,-2.4613,-2.4549,-2.4481,-2.4464,-2.4429,-2.4375,-2.4338,-2.4357,-2.4357,-2.4338,-2.4321,-2.4321,-2.4321,-2.4284,-2.4321,-2.4357,-2.441,-2.4464,-2.4517,-2.4547,-2.4594,-2.4663,-2.4726,-2.4738,-2.4779,-2.4832,-2.4902,-2.4994,-2.5126,-2.5274,-2.539,-2.5499,-2.5586,-2.5639,-2.5672,-2.5703,-2.5652,-2.559,-2.548,-2.5329,-2.5122,-2.4975,-2.4861,-2.4651,-2.4425,-2.1258,-2.1081,-2.1436,-2.1608,-2.1924,-2.3309,-2.4068,-2.4369,-2.467,-2.4802,-2.4783,-2.4798,-2.4832,-2.4827,-2.4827,-2.4842,-2.4832,-2.4893,-2.494,-2.494,-2.5019,-2.5044,-2.5088,-2.5132,-2.5132,-2.5088,-2.5057,-2.4991,-2.4865,-2.4776,-2.458,-2.4338,-2.4154,-2.3817,-2.3701,-2.3642,-2.3676,-2.327,-2.2501,-2.1788,-2.1207,-2.0342,-1.9535,-1.9374,-1.9088,-1.8785,-1.8749,-1.8695,-1.8677,-1.8695,-1.8714,-1.8714,-1.8752,-1.8807,-1.886,-1.8948,-1.9173,-1.9492,-1.9918,-2.0567,-2.1541,-2.2691,-2.3715,-2.4369,-2.4625,-2.4707,-2.4657,-2.4594,-2.453,-2.4479,-2.441,-2.4339,-2.4303,-2.4284,-2.4266,-2.421,-2.4192,-2.421,-2.421,-2.421,-2.421,-2.421,-2.421,-2.4191,-2.4154,-2.4191,-2.4229,-2.4284,-2.4358,-2.4411,-2.4462,-2.4532,-2.4566,-2.4596,-2.4626,-2.4685,-2.476,-2.4865,-2.5019,-2.5222,-2.535,-2.5444,-2.5523,-2.5604,-2.5654,-2.5681,-2.5634,-2.5563,-2.5454,-2.5301,-2.5141,-2.5,-2.4902,-2.4666,-2.4407,-1.9892,-1.9374,-2.0181,-2.0594,-2.0819,-2.1849,-2.2703,-2.3487,-2.4257,-2.4542,-2.4523,-2.4343,-2.4309,-2.4542,-2.4598,-2.4617,-2.4689,-2.4749,-2.4798,-2.4842,-2.4912,-2.4953,-2.5012,-2.5038,-2.5051,-2.507,-2.5018,-2.4908,-2.4779,-2.4599,-2.4375,-2.4079,-2.3755,-2.3304,-2.3058,-2.2908,-2.2908,-2.2306,-2.1539,-2.085,-2.0182,-1.9253,-1.872,-1.8506,-1.8331,-1.8259,-1.8276,-1.8294,-1.8399,-1.8432,-1.8485,-1.8485,-1.8506,-1.8565,-1.8622,-1.8752,-1.8949,-1.9106,-1.9317,-1.9981,-2.0802,-2.1875,-2.2656,-2.3568,-2.4269,-2.4513,-2.4444,-2.4355,-2.4302,-2.4248,-2.421,-2.4153,-2.4113,-2.4075,-2.4075,-2.4056,-2.4018,-2.4018,-2.4018,-2.4037,-2.4037,-2.4037,-2.4057,-2.4037,-2.4057,-2.4077,-2.4096,-2.4153,-2.4228,-2.4303,-2.4339,-2.4375,-2.4411,-2.4446,-2.4478,-2.4578,-2.4654,-2.4779,-2.4968,-2.5138,-2.5274,-2.5401,-2.5506,-2.5581,-2.5671,-2.5675,-2.5616,-2.5535,-2.5441,-2.5292,-2.5141,-2.4981,-2.4865,-2.4666,-2.4441,-1.9181,-1.9104,-1.9403,-1.9543,-1.9685,-2.0551,-2.1491,-2.238,-2.3058,-2.3167,-2.2744,-2.2319,-2.2871,-2.3561,-2.3636,-2.3971,-2.4286,-2.4543,-2.461,-2.4657,-2.4697,-2.4794,-2.487,-2.4931,-2.494,-2.4926,-2.4889,-2.4783,-2.461,-2.4408,-2.4118,-2.3881,-2.3154,-2.2629,-2.2196,-2.1856,-2.1594,-2.1217,-2.0474,-1.9935,-1.9415,-1.867,-1.8141,-1.7703,-1.7546,-1.7546,-1.7507,-1.7507,-1.7698,-1.822,-1.8252,-1.827,-1.8307,-1.8406,-1.8505,-1.8622,-1.8752,-1.8843,-1.8966,-1.9217,-1.9939,-2.1079,-2.1771,-2.2813,-2.3695,-2.4192,-2.4136,-2.4116,-2.4077,-2.4018,-2.3978,-2.3937,-2.3915,-2.3915,-2.3915,-2.3915,-2.3915,-2.3935,-2.3935,-2.3955,-2.3937,-2.3955,-2.3955,-2.3958,-2.3976,-2.3978,-2.3998,-2.4018,-2.4075,-2.4171,-2.4209,-2.4266,-2.4303,-2.4339,-2.4411,-2.4497,-2.4594,-2.4719,-2.4902,-2.5099,-2.5222,-2.535,-2.5464,-2.5565,-2.5639,-2.5641,-2.5611,-2.5526,-2.5427,-2.5292,-2.5141,-2.4981,-2.4808,-2.4607,-2.4425,-1.8734,-1.8843,-1.8948,-1.9,-1.9107,-1.9575,-2.0203,-2.0851,-2.1832,-2.2122,-2.1847,-2.1567,-2.1824,-2.2525,-2.2671,-2.2891,-2.3299,-2.3737,-2.3938,-2.4027,-2.4428,-2.4623,-2.4738,-2.4764,-2.4779,-2.4779,-2.4734,-2.4642,-2.4293,-2.375,-2.3367,-2.3094,-2.236,-2.1669,-2.1088,-2.0534,-2.0084,-1.9874,-1.9516,-1.9129,-1.8635,-1.8107,-1.7391,-1.6818,-1.6663,-1.659,-1.6497,-1.6514,-1.6907,-1.7508,-1.7573,-1.7782,-1.7902,-1.8142,-1.8266,-1.8353,-1.8489,-1.8622,-1.8733,-1.8788,-1.9611,-2.0435,-2.1044,-2.197,-2.2885,-2.3565,-2.371,-2.3837,-2.3813,-2.3789,-2.375,-2.3728,-2.3707,-2.3707,-2.3768,-2.3807,-2.3828,-2.3828,-2.385,-2.3873,-2.3873,-2.3891,-2.3873,-2.3873,-2.3873,-2.3852,-2.3852,-2.3852,-2.3935,-2.4016,-2.4094,-2.4133,-2.4171,-2.4228,-2.4321,-2.4411,-2.453,-2.4657,-2.4832,-2.5006,-2.5157,-2.5322,-2.5444,-2.5542,-2.5634,-2.5625,-2.5605,-2.5513,-2.5413,-2.5264,-2.5084,-2.4855,-2.467,-2.4528,-2.4321,-1.8505,-1.8566,-1.8732,-1.8806,-1.8861,-1.8914,-1.8967,-1.9057,-2.0608,-2.137,-2.1349,-2.1415,-2.1379,-2.1601,-2.169,-2.1835,-2.2276,-2.277,-2.3209,-2.3189,-2.3869,-2.4253,-2.4508,-2.45,-2.4308,-2.442,-2.4279,-2.3771,-2.3657,-2.3028,-2.2329,-2.2128,-2.1285,-2.0525,-1.9851,-1.9376,-1.896,-1.8562,-1.8574,-1.8437,-1.7628,-1.7024,-1.6567,-1.588,-1.5707,-1.5654,-1.5528,-1.5573,-1.5755,-1.6189,-1.6677,-1.7002,-1.7518,-1.7839,-1.7915,-1.8044,-1.8187,-1.831,-1.8428,-1.8487,-1.9004,-1.9767,-2.0439,-2.1255,-2.2105,-2.3133,-2.3504,-2.3558,-2.3531,-2.3526,-2.3486,-2.3486,-2.3486,-2.3504,-2.3544,-2.3589,-2.3611,-2.3611,-2.3634,-2.3638,-2.3638,-2.3638,-2.3638,-2.3638,-2.3638,-2.3656,-2.3678,-2.366,-2.3725,-2.3831,-2.3915,-2.3976,-2.4056,-2.4152,-2.4228,-2.4339,-2.4464,-2.4613,-2.4794,-2.4961,-2.5111,-2.5284,-2.5439,-2.5537,-2.5642,-2.5644,-2.562,-2.5498,-2.5356,-2.5166,-2.4968,-2.4693,-2.4454,-2.4062,-2.4191,-1.8142,-1.8328,-1.8561,-1.8656,-1.8675,-1.8659,-1.8661,-1.8715,-1.9091,-1.9453,-1.9648,-1.9771,-2.0115,-2.0623,-2.0677,-2.0895,-2.1533,-2.1806,-2.2391,-2.2738,-2.3252,-2.3655,-2.4113,-2.3702,-2.3587,-2.3289,-2.298,-2.2588,-2.23,-2.1756,-2.1256,-2.0974,-2.0188,-1.9416,-1.8967,-1.8529,-1.7991,-1.7612,-1.7619,-1.7806,-1.7434,-1.716,-1.6825,-1.585,-1.5328,-1.5001,-1.4775,-1.449,-1.4591,-1.4857,-1.5868,-1.663,-1.7412,-1.7486,-1.7572,-1.771,-1.7822,-1.7954,-1.8082,-1.8218,-1.8627,-1.9121,-1.9804,-2.0582,-2.1528,-2.2629,-2.3242,-2.3236,-2.3253,-2.3247,-2.3223,-2.3223,-2.3247,-2.3289,-2.3307,-2.3354,-2.3378,-2.3378,-2.3383,-2.3383,-2.3389,-2.3389,-2.3407,-2.3407,-2.3383,-2.3407,-2.3453,-2.3476,-2.3499,-2.3611,-2.3725,-2.3792,-2.3937,-2.4056,-2.4152,-2.4247,-2.4375,-2.4547,-2.4719,-2.4907,-2.5063,-2.5293,-2.5479,-2.5565,-2.5629,-2.5624,-2.5587,-2.5485,-2.5327,-2.5111,-2.4568,-2.4157,-2.3271,-2.2741,-2.334,-1.6838,-1.7096,-1.7698,-1.7953,-1.7974,-1.8014,-1.8034,-1.7982,-1.7682,-1.7826,-1.836,-1.877,-1.9254,-1.9686,-1.9703,-1.992,-2.0553,-2.088,-2.1206,-2.1679,-2.2319,-2.2648,-2.2793,-2.2808,-2.2641,-2.2345,-2.2006,-2.1625,-2.118,-2.0596,-2.0201,-1.9904,-1.9149,-1.8512,-1.8236,-1.7733,-1.7384,-1.7134,-1.6977,-1.6986,-1.7093,-1.6799,-1.6233,-1.5277,-1.487,-1.4594,-1.4422,-1.4149,-1.4371,-1.4858,-1.5831,-1.6345,-1.6887,-1.6977,-1.7093,-1.7216,-1.7361,-1.7509,-1.767,-1.7867,-1.8126,-1.8551,-1.9076,-1.9812,-2.0178,-2.125,-2.2528,-2.2615,-2.2917,-2.2944,-2.2944,-2.2944,-2.2952,-2.297,-2.2995,-2.2995,-2.3045,-2.3095,-2.3119,-2.3102,-2.3126,-2.3175,-2.3193,-2.3241,-2.3217,-2.3241,-2.3265,-2.3265,-2.3289,-2.3354,-2.3458,-2.3576,-2.371,-2.3858,-2.3958,-2.4114,-2.4284,-2.4479,-2.4642,-2.4874,-2.508,-2.5321,-2.5538,-2.5598,-2.5615,-2.5599,-2.5527,-2.5402,-2.5236,-2.5005,-2.4276,-2.3529,-2.2296,-2.0142,-1.81,-1.5334,-1.566,-1.6527,-1.6939,-1.7001,-1.7073,-1.7095,-1.7044,-1.6606,-1.6747,-1.7487,-1.8339,-1.8717,-1.8843,-1.8913,-1.8931,-1.92,-1.9848,-2.0137,-2.0625,-2.1152,-2.1734,-2.1843,-2.1659,-2.1457,-2.1223,-2.0916,-2.0711,-2.0456,-1.9742,-1.9112,-1.8841,-1.8274,-1.7582,-1.7361,-1.7199,-1.7041,-1.6696,-1.6459,-1.6297,-1.6155,-1.6006,-1.5471,-1.4995,-1.4609,-1.4499,-1.4334,-1.4285,-1.4538,-1.4933,-1.5495,-1.6009,-1.6327,-1.6416,-1.6538,-1.6696,-1.6866,-1.7002,-1.7183,-1.7384,-1.7536,-1.7796,-1.837,-1.8822,-1.9142,-1.9942,-2.1224,-2.1975,-2.2278,-2.2649,-2.2649,-2.2667,-2.2667,-2.2676,-2.2676,-2.2659,-2.2738,-2.279,-2.2816,-2.2816,-2.285,-2.2902,-2.2927,-2.2995,-2.302,-2.302,-2.3045,-2.3028,-2.3028,-2.3095,-2.3175,-2.3277,-2.344,-2.358,-2.3756,-2.3939,-2.4153,-2.4339,-2.451,-2.4795,-2.5053,-2.5274,-2.546,-2.5582,-2.5598,-2.5574,-2.543,-2.5282,-2.5097,-2.4877,-2.1917,-2.007,-1.7963,-1.5344,-1.0848,-1.4886,-1.5304,-1.5728,-1.5897,-1.5938,-1.6014,-1.6107,-1.6266,-1.6645,-1.6997,-1.7281,-1.791,-1.843,-1.8678,-1.8734,-1.8752,-1.8806,-1.9183,-1.9705,-2.0246,-2.0373,-2.0934,-2.1116,-2.068,-2.0136,-1.9813,-1.9523,-1.9135,-1.9283,-1.8633,-1.8054,-1.7859,-1.759,-1.7126,-1.6892,-1.6785,-1.6649,-1.6262,-1.5864,-1.5694,-1.5681,-1.5581,-1.5499,-1.5121,-1.4727,-1.4291,-1.3959,-1.3759,-1.3778,-1.4031,-1.4606,-1.5272,-1.5628,-1.5851,-1.5978,-1.6105,-1.627,-1.6501,-1.6654,-1.6834,-1.6986,-1.7175,-1.7642,-1.7856,-1.8227,-1.8599,-1.9791,-2.0816,-2.1329,-2.2215,-2.2389,-2.244,-2.2468,-2.2434,-2.2434,-2.2366,-2.236,-2.2388,-2.2432,-2.2443,-2.248,-2.2535,-2.2561,-2.2615,-2.2615,-2.2642,-2.2668,-2.2651,-2.2651,-2.2773,-2.285,-2.296,-2.3067,-2.3399,-2.3649,-2.3795,-2.3978,-2.4173,-2.4391,-2.4693,-2.4962,-2.5207,-2.5374,-2.5535,-2.5563,-2.5562,-2.5399,-2.5186,-2.491,-2.4005,-1.916,-1.606,-1.3842,-1.0122,-0.5251]},{"header":{"parameterUnit":"m.s-1","parameterCategory":1,"la1":31.0,"la2":29.5877,"lo1":-88.7671,"lo2":-86.6584,"dy":0.0162,"dx":0.0185,"nx":115,"ny":88,"refTime":"2023-06-03T06:00:00:Z","depth":0,"parameterNumber":3,"parameterNumberName":"V-component_of_WINDS"},"data":[0.0,0.0,0.0,0.0,0.0,0.0,0.0,0.0,0.0,0.0,0.0,0.0,0.0,0.0,0.0,0.0,0.0,0.0,0.0,0.0,0.0,0.0,0.0,0.0,0.0,0.0,0.0,0.0,0.0,0.0,0.0,0.0,0.0,0.0,0.0,0.0,0.0,0.0,0.0,0.0,0.0,0.0,0.0,0.0,0.0,0.0,0.0,0.0,0.0,0.0,0.0,0.0,0.0,0.0,0.0,0.0,0.0,0.0,0.0,0.0,0.0,0.0,0.0,0.0,0.0,0.0,0.0,0.0,0.0,0.0,0.0,0.0,0.0,0.0,0.0,0.0,0.0,0.0,0.0,0.0,0.0,0.0,0.0,0.0,0.0,0.0,0.0,0.0,0.0,0.0,0.0,0.0,0.0,0.0,0.0,0.0,0.0,0.0,0.0,0.0,0.0,0.0,0.0,0.0,0.0,0.0,0.0,0.0,0.0,0.0,0.0,0.0,0.0,0.0,0.0,0.0,0.0,0.0,0.0,0.0,0.0,0.0,0.0,0.0,0.0,0.0,0.0,0.0,0.0,0.0,0.0,0.0,0.0,0.0,0.0,0.0,0.0,0.0,0.0,0.0,0.0,0.0,0.0,0.0,0.0,0.0,0.0,0.0,0.0,0.0,0.0,0.0,0.0,0.0,0.0,0.0,0.0,0.0,0.0,0.0,0.0,0.0,0.0,0.0,0.0,0.0,0.0,0.0,0.0,0.0,0.0,0.0,0.0,0.0,0.0,0.0,0.0,0.0,0.0,0.0,0.0,0.0,0.0,0.0,0.0,0.0,0.0,0.0,0.0,0.0,0.0,0.0,0.0,0.0,0.0,0.0,0.0,0.0,0.0,0.0,0.0,0.0,0.0,0.0,0.0,0.0,0.0,0.0,0.0,0.0,0.0,0.0,0.0,0.0,0.0,0.0,0.0,0.0,0.0,0.0,0.0,0.0,0.0,0.0,0.0,0.0,0.0,0.0,0.0,0.0,0.0,0.0,0.0,0.0,0.0,0.0,0.0,0.0,0.0,0.0,0.0,0.0,0.0,0.0,0.0,0.0,0.0,0.0,0.0,0.0,0.0,0.0,0.0,0.0,0.0,0.0,0.0,0.0,0.0,0.0,0.0,0.0,0.0,0.0,0.0,0.0,0.0,0.0,0.0,0.0,0.0,0.0,0.0,0.0,0.0,0.0,0.0,0.0,0.0,0.0,0.0,0.0,0.0,0.0,0.0,0.0,0.0,0.0,0.0,0.0,0.0,0.0,0.0,0.0,0.0,0.0,0.0,0.0,0.0,0.0,0.0,0.0,0.0,0.0,0.0,0.0,0.0,0.0,0.0,0.0,0.0,0.0,0.0,0.0,0.0,0.0,0.0,0.0,0.0,0.0,0.0,0.0,0.0,0.0,0.0,0.0,0.0,0.0,0.0,0.0,0.0,0.0,0.0,0.0,0.0,0.0,0.0,0.0,0.0,0.0,0.0,0.0,0.0,0.0,0.0,0.0,0.0,0.0,0.0,0.0,0.0,0.0,0.0,0.0,0.0,0.0,0.0,0.0,0.0,0.0,0.0,0.0,0.0,0.0,0.0,0.0,0.0,0.0,0.0,0.0,0.0,0.0,0.0,0.0,0.0,0.0,0.0,0.0,0.0,0.0,0.0,0.0,0.0,0.0,0.0,0.0,0.0,0.0,0.0,0.0,0.0,0.0,0.0,0.0,0.0,0.0,0.0,0.0,0.0,0.0,0.0,0.0,0.0,0.0,0.0,0.0,0.0,0.0,0.0,0.0,0.0,0.0,0.0,0.0,0.0,0.0,0.0,0.0,0.0,0.0,0.0,0.0,0.0,0.0,0.0,0.0,0.0,0.0,0.0,0.0,0.0,0.0,0.0,0.0,0.0,0.0,0.0,0.0,0.0,0.0,0.0,0.0,0.0,0.0,0.0,0.0,0.0,0.0,0.0,0.0,0.0,0.0,0.0,0.0,0.0,0.0,0.0,0.0,0.0,0.0,0.0,0.0,0.0,0.0,0.0,0.0,0.0,0.0,0.0,0.0,0.0,0.0,0.0,0.0,0.0,0.0,0.0,0.0,0.0,0.0,0.0,0.0,0.0,0.0,0.0,0.0,0.0,0.0,0.0,0.0,0.0,0.0,0.0,0.0,0.0,0.0,0.0,0.0,0.0,0.0,0.0,0.0,0.0,0.0,0.0,0.0,0.0,0.0,0.0,0.0,0.0,0.0,0.0,0.0,0.0,0.0,0.0,0.0,0.0,0.0,0.0,0.0,0.0,0.0,0.0,0.0,0.0,0.0,0.0,0.0,0.0,0.0,0.0,0.0,0.0,0.0,0.0,0.0,0.0,0.0,0.0,0.0,0.0,0.0,0.0,0.0,0.0,0.0,0.0,0.0,0.0,0.0,0.0,0.0,0.0,0.0,0.0,0.0,0.0,0.0,0.0,0.0,0.0,0.0,0.0,0.0,0.0,0.0,0.0,0.0,0.0,0.0,0.0,0.0,0.0,0.0,0.0,0.0,0.0,0.0,0.0,0.0,0.0,0.0,0.0,0.0,0.0,0.0,0.0,0.0,0.0,0.0,0.0,0.0,0.0,0.0,0.0,0.0,0.0,0.0,0.0,0.0,0.0,0.0,0.0,0.0,0.0,0.0,0.0,0.0,0.0,0.0,0.0,0.0,0.0,0.0,0.0,0.0,0.0,0.0,0.0,0.0,0.0,0.0,0.0,0.0,0.0,0.0,0.0,0.0,0.0,0.0,0.0,0.0,0.0,0.0,0.0,0.0,0.0,0.0,0.0,0.0,0.0,0.0,0.0,0.0,0.0,0.0,0.0,0.0,0.0,0.0,0.0,0.0,0.0,0.0,0.0,0.0,0.0,0.0,0.0,0.0,0.0,0.0,0.0,0.0,0.0,0.0,0.0,0.0,0.0,0.0,0.0,0.0,0.0,0.0,0.0,0.0,0.0,0.0,0.0,0.0,0.0,0.0,0.0,0.0,0.0,0.0,0.0,0.0,0.0,0.0,0.0,0.0,0.0,0.0,0.0,0.0,0.0,0.0,0.0,0.0,0.0,0.0,0.0,0.0,0.0,0.0,0.0,0.0,0.0,0.0,0.0,0.0,0.0,0.0,0.0,0.0,0.0,0.0,0.0,0.0,0.0,0.0,0.0,0.0,0.0,0.0,0.0,0.0,0.0,0.0,0.0,0.0,0.0,0.0,0.0,0.0,0.0,0.0,0.0,0.0,0.0,0.0,0.0,0.0,0.0,0.0,0.0,0.0,0.0,0.0,0.0,0.0,0.0,0.0,0.0,0.0,0.0,0.0,0.0,0.0,0.0,0.0,0.0,0.0,0.0,0.0,0.0,0.0,0.0,0.0,0.0,0.0,0.0,0.0,0.0,0.0,0.0,0.0,0.0,0.0,0.0,0.0,0.0,0.0,0.0,0.0,0.0,0.0,0.0,0.0,0.0,0.0,0.0,0.0,0.0,0.0,0.0,0.0,0.0,0.0,0.0,0.0,0.0,0.0,0.0,0.0,0.0,0.0,0.0,0.0,0.0,0.0,0.0,0.0,0.0,0.0,0.0,0.0,0.0,0.0,0.0,0.0,0.0,0.0,0.0,0.0,0.0,0.0,0.0,0.0,0.0,0.0,0.0,0.0,0.0,0.0,0.0,0.0,0.0,0.0,0.0,0.0,0.0,0.0,0.0,0.0,0.0,0.0,0.0,0.0,0.0,0.0,0.0,0.0,0.0,0.0,0.0,0.0,0.0,0.0,0.0,0.0,0.0,0.0,0.0,0.0,0.0,0.0,0.0,0.0,0.0,0.0,0.0,0.0,0.0,0.0,0.0,0.0,0.0,0.0,0.0,0.0,0.0,0.0,0.0,0.0,0.0,0.0,0.0,0.0,0.0,0.0,0.0,0.0,0.0,0.0,0.0,0.0,0.0,0.0,0.0,0.0,0.0,0.0,0.0,0.0,0.0,0.0,0.0,0.0,0.0,0.0,0.0,0.0,0.0,0.0,0.0,0.0,0.0,0.0,0.0,0.0,0.0,0.0,0.0,0.0,0.0,0.0,0.0,0.0,0.0,0.0,0.0,0.0,0.0,0.0,0.0,0.0,0.0,0.0,0.0,0.0,0.0,0.0,0.0,0.0,0.0,0.0,0.0,0.0,0.0,0.0,0.0,0.0,0.0,0.0,0.0,0.0,0.0,0.0,1.1408,0.0,0.0,0.0,1.3997,0.0,0.0,0.0,0.0,0.0,0.0,0.0,0.0,0.0,0.0,0.0,0.0,0.0,0.0,0.0,0.0,0.0,0.0,0.0,0.0,0.0,0.0,0.0,0.0,0.0,0.0,0.0,0.0,0.0,0.0,0.0,0.0,0.0,0.0,0.0,0.0,0.0,0.0,0.0,0.0,0.0,0.0,0.0,0.0,0.0,0.0,0.0,0.0,0.0,0.0,0.0,0.0,0.0,0.0,0.0,0.0,0.0,0.0,0.0,0.0,0.0,0.0,0.0,0.0,0.0,0.0,0.0,0.0,0.0,0.0,0.0,0.0,0.0,0.0,0.0,0.0,0.0,0.0,0.0,0.0,0.0,0.0,0.0,0.0,0.0,0.0,0.0,0.0,0.0,0.0,0.0,0.0,0.0,0.0,0.0,0.0,0.0,0.0,0.0,0.0,0.0,0.0,0.0,0.0,0.0,0.0,0.0,0.0,0.0,0.0,1.1154,1.2272,1.2796,1.3228,1.3574,0.0,0.0,0.0,0.0,0.0,0.0,0.0,0.0,0.0,0.0,0.0,0.0,0.0,0.0,0.0,0.0,0.0,0.0,0.0,0.0,0.0,0.0,0.0,0.0,0.0,0.0,0.0,0.0,0.0,0.0,0.0,0.0,0.0,0.0,0.0,0.0,0.0,0.0,0.0,0.0,0.0,0.0,0.0,0.0,0.0,0.0,0.0,0.0,0.0,0.0,0.0,0.0,0.0,0.0,0.0,0.0,0.0,0.0,0.0,0.0,0.0,0.0,0.0,0.0,0.0,0.0,0.0,0.0,0.0,0.0,0.0,0.0,0.0,0.0,0.0,0.0,0.0,0.0,0.0,0.0,0.0,0.0,0.0,0.0,0.0,0.0,0.0,0.0,0.0,0.0,0.0,0.0,0.0,0.0,0.0,0.0,0.0,0.0,0.0,0.0,0.0,0.0,0.0,0.0,0.0,0.0,0.0,0.0,0.0,0.0,0.0,0.0,1.2619,1.2881,1.2881,0.0,0.0,0.0,0.0,0.0,0.0,0.0,0.0,0.0,0.0,0.0,0.0,0.0,0.0,0.0,0.0,0.0,0.0,0.0,0.0,0.0,0.0,0.0,0.0,0.0,0.0,0.0,0.0,0.0,0.0,0.0,0.0,0.0,0.0,0.0,0.0,0.0,0.0,0.0,0.0,0.0,0.0,0.0,0.0,0.0,0.0,0.0,0.0,0.0,0.0,0.0,0.0,0.0,0.0,0.0,0.0,0.0,0.0,0.0,0.0,0.0,0.0,0.0,0.0,0.0,0.0,0.0,0.0,0.0,0.0,0.0,0.0,0.0,0.0,0.0,0.0,0.0,0.0,0.0,0.0,0.0,0.0,0.0,0.0,0.0,0.0,0.0,0.0,0.0,0.0,0.0,0.0,0.0,0.0,0.0,0.0,0.0,0.0,0.0,0.0,0.0,0.0,0.0,0.0,0.0,0.0,0.0,0.0,0.0,0.0,1.0809,1.1671,1.2192,0.0,1.21,0.0,0.0,0.0,0.0,0.0,0.0,0.0,0.0,0.0,0.0,0.0,0.0,0.0,0.0,0.0,0.0,0.0,0.0,0.0,0.0,0.0,0.0,0.0,0.0,0.0,0.0,0.0,0.0,0.0,0.0,0.0,0.0,0.0,0.0,0.0,0.0,0.0,0.0,0.0,0.0,0.0,0.0,0.0,0.0,0.0,0.0,0.0,0.0,0.0,0.0,0.0,0.0,0.0,0.0,0.0,0.0,0.0,0.0,0.0,0.0,0.0,0.0,0.0,0.0,0.0,0.0,0.0,0.0,0.0,0.0,0.0,0.0,0.0,0.0,0.0,0.0,0.0,0.0,0.0,0.0,0.0,0.0,0.0,0.0,0.0,0.0,0.0,0.0,0.0,0.0,0.0,0.0,0.0,0.0,0.0,0.0,0.0,0.0,0.0,0.0,0.0,0.0,0.0,0.0,0.0,0.0,0.0,0.0,0.0,0.0,1.1068,1.1671,1.1962,1.205,0.0,0.0,0.0,0.0,0.0,0.0,0.0,0.0,0.0,0.0,0.0,0.0,0.0,0.0,0.0,0.0,0.0,0.0,0.0,0.0,0.0,0.0,0.0,0.0,0.0,0.0,0.0,0.0,0.0,0.0,0.0,0.0,0.0,0.0,0.0,0.0,0.0,0.0,0.0,0.0,0.0,0.0,0.0,0.0,0.0,0.0,0.0,0.0,0.0,0.0,0.0,0.0,0.0,0.0,0.0,0.0,0.0,0.0,0.0,0.0,0.0,0.0,0.0,0.0,0.0,0.0,0.0,0.0,0.0,0.0,0.0,0.0,0.0,0.0,0.0,0.0,0.0,0.0,0.0,0.0,0.0,0.0,0.0,0.0,0.0,0.0,0.0,0.0,0.0,0.0,0.0,0.0,0.0,0.0,0.0,0.0,0.0,0.0,0.0,0.0,0.0,0.0,0.0,0.0,0.0,0.0,0.0,0.0,0.0,0.0,1.1408,1.1757,1.2095,1.2116,1.1987,1.1649,0.0,0.0,0.0,0.0,0.0,0.0,0.0,0.0,0.0,0.0,0.0,0.0,0.0,0.0,0.0,0.0,0.0,0.0,0.0,0.0,0.0,0.0,0.0,0.0,0.0,0.0,0.0,0.0,0.0,0.0,0.0,0.0,0.0,0.0,0.0,0.0,0.0,0.0,0.0,0.0,0.0,0.0,0.0,0.0,0.0,0.0,0.0,0.0,0.0,0.0,0.0,0.0,0.0,0.0,0.0,0.0,0.0,0.0,0.0,0.0,0.0,0.0,0.0,0.0,0.0,0.0,0.0,0.0,0.0,0.0,0.0,0.0,0.0,0.0,0.0,0.0,0.0,0.0,0.0,0.0,0.0,0.0,0.0,0.0,0.0,0.0,0.0,0.0,0.0,0.0,0.0,0.0,0.0,0.0,0.0,0.0,0.0,0.0,0.0,0.0,0.0,0.0,0.0,0.0,0.0,0.0,0.0,0.0,1.293,1.2948,1.3045,1.3288,1.2702,1.2064,0.0,0.0,0.0,0.0,0.0,0.0,0.0,0.0,0.0,0.0,0.0,0.0,0.0,0.0,0.0,0.0,0.0,0.0,0.0,0.0,0.0,0.0,0.0,0.0,0.0,0.0,0.0,0.0,0.0,0.0,0.0,0.0,0.0,0.0,0.0,0.0,0.0,0.0,0.0,0.0,0.0,0.0,0.0,0.0,0.0,0.0,0.0,0.0,0.0,0.0,0.0,0.0,0.0,0.0,0.0,0.0,0.0,0.0,0.0,0.0,0.0,0.0,0.0,0.0,0.0,0.0,0.0,0.0,0.0,0.0,0.0,0.0,0.0,0.0,0.0,0.0,0.0,0.0,0.0,0.0,0.0,0.0,0.0,0.0,0.0,0.0,0.0,0.0,0.0,0.0,0.0,0.0,0.0,0.0,0.0,0.0,0.0,0.0,0.0,0.0,0.0,0.0,0.0,0.0,0.0,0.0,0.0,0.0,0.0,1.5755,1.5837,1.5665,1.5219,1.418,1.299,0.0,0.0,0.0,0.0,0.0,0.0,0.0,0.0,0.0,0.0,0.0,0.0,0.0,0.0,0.0,0.0,0.0,0.0,0.0,0.0,0.0,0.0,0.0,0.0,0.0,0.0,0.0,0.0,0.0,0.0,0.0,0.0,0.0,0.0,0.0,0.0,0.0,0.0,0.0,0.0,0.0,0.0,0.0,0.0,0.0,0.0,0.0,0.0,0.0,0.0,0.0,0.0,0.0,0.0,0.0,0.0,0.0,0.0,0.0,0.0,0.0,0.0,0.0,0.0,0.0,0.0,0.0,0.0,0.0,0.0,0.0,0.0,0.0,0.0,0.0,0.0,0.0,0.0,0.0,0.0,0.0,0.0,0.0,0.0,0.0,0.0,0.0,0.0,0.0,0.0,0.0,0.0,0.0,0.0,0.0,0.0,0.0,0.0,0.0,0.0,0.0,0.0,0.0,0.0,0.0,0.0,0.0,0.0,0.0,1.9142,0.0,1.8976,1.7961,1.6377,1.4561,0.0,0.0,0.0,0.0,0.0,0.0,0.0,0.0,0.0,0.0,0.0,0.0,0.0,0.0,0.0,0.0,0.0,0.0,0.0,0.0,0.0,0.0,0.0,0.0,0.0,0.0,0.0,0.0,0.0,0.0,0.0,0.0,0.0,0.0,0.0,0.0,0.0,0.0,0.0,0.0,0.0,0.0,0.0,0.0,0.0,0.0,0.0,0.0,0.0,0.0,0.0,0.0,0.0,0.0,0.0,0.0,0.0,0.0,0.0,0.0,0.0,0.0,0.0,0.0,0.0,0.0,0.0,0.0,0.0,0.0,0.0,0.0,0.0,0.0,0.0,0.0,0.0,0.0,0.0,0.0,0.0,0.0,0.0,0.0,0.0,0.0,0.0,0.0,0.0,0.0,0.0,0.0,0.0,0.0,0.0,0.0,0.0,0.0,0.0,0.0,0.0,0.0,0.0,0.0,0.0,0.0,0.0,0.0,2.1429,2.3192,2.3378,2.282,2.1584,1.9365,1.6772,0.0,0.0,0.0,0.0,0.0,0.0,0.0,0.0,0.0,0.0,0.0,0.0,0.0,0.0,0.0,0.0,0.0,0.0,0.0,0.0,0.0,0.0,0.0,0.0,0.0,0.0,0.0,0.0,0.0,0.0,0.0,0.0,0.0,0.0,0.0,0.0,0.0,0.0,0.0,0.0,0.0,0.0,0.0,0.0,0.0,0.0,0.0,0.0,0.0,0.0,0.0,0.0,0.0,0.0,0.0,0.0,0.0,0.0,0.0,0.0,0.0,0.0,0.0,0.0,0.0,0.0,0.0,0.0,0.0,0.0,0.0,0.0,0.0,0.0,0.0,0.0,0.0,0.0,0.0,0.0,0.0,0.0,0.0,0.0,0.0,0.0,0.0,0.0,0.0,0.0,0.0,0.0,0.0,0.0,0.0,0.0,0.0,0.0,0.0,0.0,0.0,0.0,0.0,0.0,0.0,0.0,0.0,0.0,0.0,2.7883,2.7344,2.6571,2.5609,2.2392,1.8744,0.0,0.0,0.0,0.0,0.0,0.0,0.0,0.0,0.0,0.0,0.0,0.0,0.0,0.0,0.0,0.0,0.0,0.0,0.0,0.0,0.0,0.0,0.0,0.0,0.0,0.0,0.0,0.0,0.0,0.0,0.0,0.0,0.0,0.0,0.0,0.0,0.0,0.0,0.0,0.0,0.0,0.0,0.0,0.0,0.0,0.0,0.0,0.0,0.0,0.0,0.0,0.0,0.0,0.0,0.0,0.0,0.0,0.0,0.0,0.0,0.0,0.0,0.0,0.0,0.0,0.0,0.0,0.0,0.0,0.0,0.0,0.0,0.0,0.0,0.0,0.0,0.0,0.0,0.0,0.0,0.0,0.0,0.0,0.0,0.0,0.0,0.0,0.0,0.0,0.0,0.0,0.0,0.0,0.0,0.0,0.0,0.0,0.0,0.0,0.0,0.0,0.0,0.0,0.0,0.0,0.0,0.0,0.0,0.0,2.869,2.8717,2.801,2.6525,2.0732,1.615,1.3068,0.0,0.0,0.0,0.0,0.0,0.0,0.0,0.0,0.0,0.0,0.0,0.0,0.0,0.0,0.0,0.0,0.0,0.0,0.0,0.0,0.0,0.0,0.0,0.0,0.0,0.0,0.0,0.0,0.0,0.0,0.0,0.0,0.0,0.0,0.0,0.0,0.0,0.0,0.0,0.0,0.0,0.0,0.0,0.0,0.0,0.0,0.0,0.0,0.0,0.0,0.0,0.0,0.0,0.0,0.0,0.0,0.0,0.0,0.0,0.0,0.0,0.0,0.0,0.0,0.0,0.0,0.0,0.0,0.0,0.0,0.0,0.0,0.0,0.0,0.0,0.0,0.0,0.0,0.0,0.0,0.0,0.0,0.0,0.0,0.0,0.0,0.0,0.0,0.0,0.0,0.0,0.0,0.0,0.0,0.0,0.0,0.0,0.0,0.0,0.0,0.0,0.0,0.0,0.0,0.0,0.0,0.0,0.0,2.5963,2.7321,2.691,2.4672,1.5418,0.9968,0.0,0.0,0.0,0.0,0.0,0.0,0.0,0.0,0.0,0.0,0.0,0.0,0.0,0.0,0.0,0.0,0.0,0.0,0.0,0.0,0.0,0.0,0.0,0.0,0.0,0.0,0.0,0.0,0.0,0.0,0.0,0.0,0.0,0.0,0.0,0.0,0.0,0.0,0.0,0.0,0.0,0.0,0.0,0.0,0.0,0.0,0.0,0.0,0.0,0.0,0.0,0.0,0.0,0.0,0.0,0.0,0.0,0.0,0.0,0.0,0.0,0.0,0.0,0.0,0.0,0.0,0.0,0.0,0.0,0.0,0.0,0.0,0.0,0.0,0.0,0.0,0.0,0.0,0.0,0.0,0.0,0.0,0.0,0.0,0.0,0.0,0.0,0.0,0.0,0.0,0.0,0.0,0.0,0.0,0.0,0.0,0.0,0.0,0.0,0.0,0.0,0.0,0.0,0.0,0.0,0.0,0.0,0.0,0.0,2.0346,1.8722,1.9618,2.2922,1.3409,0.7443,0.0,0.0,0.0,0.0,0.0,0.0,0.0,0.0,0.0,0.0,0.0,0.0,0.0,0.0,0.0,0.0,0.0,0.0,0.0,0.0,0.0,0.0,0.0,0.0,0.0,0.0,0.0,0.0,0.0,0.0,0.0,0.0,0.0,0.0,0.0,0.0,0.0,0.0,0.0,0.0,0.0,0.0,0.0,0.0,0.0,0.0,0.0,0.0,0.0,0.0,0.0,0.0,0.0,0.0,0.0,0.0,0.0,0.0,0.0,0.0,0.0,0.0,0.0,0.0,0.0,0.0,0.0,0.0,0.0,0.0,0.0,0.0,0.0,0.0,0.0,0.0,0.0,0.0,0.0,0.0,0.0,0.0,0.0,0.0,0.0,0.0,0.0,0.0,0.0,0.0,0.0,0.0,0.0,0.0,0.0,0.0,0.0,0.0,0.0,0.0,0.0,0.0,0.0,0.0,0.0,0.0,0.0,0.0,1.9329,1.5085,1.1629,1.1,1.3478,0.4525,-0.0681,0.0,0.0,0.0,0.0,0.0,0.0,0.0,0.0,0.0,0.0,0.0,0.0,0.0,0.0,0.0,0.0,0.0,0.0,0.0,0.0,0.0,0.0,0.0,0.0,0.0,0.0,0.0,0.0,0.0,0.0,0.0,0.0,0.0,0.0,0.0,0.0,0.0,0.0,0.0,0.0,0.0,0.0,0.0,0.0,0.0,0.0,0.0,0.0,0.0,0.0,0.0,0.0,0.0,0.0,0.0,0.0,0.0,0.0,0.0,0.0,0.0,0.0,0.0,0.0,0.0,0.0,0.0,0.0,0.0,0.0,0.0,0.0,0.0,0.0,0.0,0.0,0.0,0.0,0.0,0.0,0.0,0.0,0.0,0.0,0.0,0.0,0.0,0.0,0.0,0.0,0.0,0.0,0.0,0.0,0.0,0.0,0.0,0.0,0.0,0.0,0.0,0.0,0.0,0.0,0.0,0.0,0.0,0.0,1.5195,1.0346,0.5979,0.2384,-0.034,-0.7242,-1.1011,0.0,0.0,0.0,0.0,0.0,0.0,0.0,0.0,0.0,0.0,0.0,0.0,0.0,0.0,0.0,0.0,0.0,0.0,0.0,0.0,0.0,0.0,0.0,0.0,0.0,0.0,0.0,0.0,0.0,0.0,0.0,0.0,0.0,0.0,0.0,0.0,0.0,0.0,0.0,0.0,0.0,0.0,0.0,0.0,0.0,0.0,0.0,0.0,0.0,0.0,0.0,0.0,0.0,0.0,0.0,0.0,0.0,0.0,0.0,0.0,0.0,0.0,0.0,0.0,0.0,0.0,0.0,0.0,0.0,0.0,0.0,0.0,0.0,0.0,0.0,0.0,0.0,0.0,0.0,0.0,0.0,0.0,0.0,0.0,0.0,0.0,0.0,0.0,0.0,0.0,0.0,0.0,0.0,0.0,0.0,0.0,0.0,0.0,0.0,0.0,0.0,0.0,0.0,0.0,0.0,0.0,0.0,0.0,1.2755,0.7144,0.2981,-0.1739,-0.7086,-1.149,-1.4185,0.0,0.0,0.0,0.0,0.0,0.0,0.0,0.0,0.0,0.0,0.0,0.0,0.0,0.0,0.0,0.0,0.0,0.0,0.0,0.0,0.0,0.0,0.0,0.0,0.0,0.0,0.0,0.0,0.0,0.0,0.0,0.0,0.0,0.0,0.0,0.0,0.0,0.0,0.0,0.0,0.0,0.0,0.0,0.0,0.0,0.0,0.0,0.0,1.1092,0.0,0.0,0.0,0.0,0.0,0.0,0.0,0.0,0.0,0.0,0.0,0.0,0.0,0.0,0.0,0.0,0.0,0.0,0.0,0.0,0.0,0.0,0.0,0.0,0.0,0.0,0.0,0.0,0.0,0.0,0.0,0.0,0.0,0.0,0.0,0.0,0.0,0.0,0.0,0.0,0.0,0.0,0.0,0.0,0.0,0.0,0.0,0.0,0.0,0.0,0.0,0.0,0.0,0.0,0.0,0.0,0.0,0.0,0.0,1.0534,0.5178,0.095,-0.4027,-0.9535,-1.3667,-1.7001,0.0,0.0,0.0,0.0,0.0,0.0,0.0,0.0,0.0,0.0,0.0,0.0,0.0,0.0,0.0,0.0,0.0,0.0,0.0,0.0,0.0,0.0,0.0,0.0,0.0,0.0,0.0,0.0,0.0,0.0,0.0,0.0,0.0,0.0,0.0,0.0,0.0,0.0,0.0,0.0,0.0,0.0,0.0,0.0,0.0,0.0,0.0,0.0,0.0,0.0,0.0,0.0,0.0,0.0,0.0,0.0,0.0,0.0,0.0,0.0,0.0,0.0,0.0,0.0,0.0,0.0,0.0,0.0,0.0,0.0,0.0,0.0,0.0,0.0,0.0,0.0,0.0,0.0,0.0,0.0,0.0,0.0,0.0,0.0,0.0,0.0,0.0,0.0,0.0,0.0,0.0,0.0,0.0,0.0,0.0,0.0,0.0,0.0,0.0,0.0,0.0,0.0,0.0,0.0,0.0,0.0,0.0,1.2838,0.8405,0.3761,-0.0696,-0.5336,-1.0164,-1.4665,-1.894,-2.3089,0.0,0.0,0.0,0.0,0.0,0.0,0.0,0.0,0.0,0.0,0.0,0.0,0.0,0.0,0.0,0.0,0.0,0.0,0.0,0.0,0.0,0.0,0.0,0.0,0.0,0.0,0.0,0.0,0.0,0.0,0.0,0.0,0.0,0.0,0.0,0.0,0.0,0.0,3.332,3.037,0.0,0.0,0.0,0.0,0.0,0.0,0.0,0.0,-0.0376,0.0,0.0,0.0,0.0,0.0,0.0,0.0,0.0,0.0,0.0,0.0,0.0,0.0,0.0,0.0,0.0,0.0,0.0,0.0,0.0,0.0,0.0,0.0,0.0,0.0,0.0,0.0,0.0,0.0,0.0,0.0,0.0,0.0,0.0,0.0,0.0,0.0,0.0,0.0,0.0,0.0,0.0,0.0,0.0,0.0,0.0,0.0,0.0,0.0,0.0,0.0,0.0,0.0,0.0,0.0,0.0,1.4449,1.0401,0.6233,0.1884,-0.2003,-0.6213,-1.0874,-1.4754,-1.865,-2.2655,0.0,0.0,0.0,0.0,0.0,0.0,0.0,0.0,0.0,0.0,0.0,0.0,0.0,0.0,0.0,0.0,0.0,0.0,0.0,0.0,0.0,0.0,0.0,0.0,0.0,0.0,0.0,0.0,0.0,0.0,0.0,0.0,0.0,0.0,0.0,0.0,0.0,0.0,0.0,2.783,2.474,0.0,0.0,0.0,0.0,0.0,0.0,0.0,0.0,-0.8664,0.0,0.0,0.0,0.0,0.0,0.0,0.0,0.0,0.0,0.0,0.0,0.0,0.0,0.0,0.0,0.0,0.0,0.0,0.0,0.0,0.0,0.0,0.0,0.0,0.0,0.0,0.0,0.0,0.0,0.0,0.0,0.0,0.0,0.0,0.0,0.0,0.0,0.0,0.0,0.0,0.0,0.0,0.0,0.0,0.0,0.0,0.0,0.0,0.0,0.0,0.0,0.0,0.0,0.0,0.0,1.187,0.8158,0.4342,0.0515,-0.3312,-0.7364,-1.1415,-1.497,-1.8591,0.0,0.0,0.0,0.0,0.0,0.0,0.0,0.0,0.0,0.0,0.0,0.0,0.0,0.0,0.0,0.0,0.0,0.0,0.0,0.0,0.0,0.0,0.0,0.0,0.0,0.0,0.0,0.0,0.0,0.0,0.0,0.0,0.0,0.0,0.0,0.0,0.0,0.0,0.0,0.0,2.5021,2.1588,1.8011,0.0,0.0,0.0,0.0,0.0,0.0,-0.5898,-1.0279,0.0,0.0,0.0,0.0,0.0,0.0,0.0,0.0,0.0,0.0,0.0,0.0,0.0,0.0,0.0,0.0,0.0,0.0,0.0,0.0,0.0,0.0,0.0,0.0,0.0,0.0,0.0,0.0,0.0,0.0,0.0,0.0,0.0,0.0,0.0,0.0,0.0,0.0,0.0,0.0,0.0,0.0,0.0,0.0,0.0,0.0,0.0,0.0,0.0,0.0,0.0,0.0,0.0,0.0,0.0,0.9361,0.5696,0.2263,-0.1031,-0.4802,-0.8418,-1.1876,-1.5148,-1.8495,0.0,0.0,0.0,0.0,0.0,0.0,0.0,0.0,0.0,0.0,0.0,0.0,0.0,0.0,0.0,0.0,0.0,0.0,0.0,0.0,0.0,0.0,0.0,0.0,0.0,0.0,0.0,0.0,0.0,0.0,0.0,0.0,0.0,0.0,0.0,0.0,0.0,0.0,0.0,0.0,0.0,1.8294,1.4537,1.0537,0.0,0.0,0.0,0.0,-0.4325,-0.7569,0.0,0.0,0.0,0.0,0.0,0.0,0.0,0.0,0.0,0.0,0.0,0.0,0.0,0.0,0.0,0.0,0.0,0.0,0.0,0.0,0.0,0.0,0.0,0.0,0.0,0.0,0.0,0.0,0.0,0.0,0.0,0.0,0.0,0.0,0.0,0.0,0.0,0.0,0.0,0.0,0.0,0.0,0.0,0.0,0.0,0.0,0.0,0.0,0.0,0.0,0.0,0.0,0.0,0.0,0.0,0.0,0.6424,0.2947,-0.0252,-0.3099,-0.6471,-0.951,-1.2005,-1.5173,-1.8078,0.0,0.0,0.0,0.0,0.0,0.0,0.0,0.0,0.0,0.0,0.0,0.0,0.0,0.0,0.0,0.0,0.0,0.0,0.0,0.0,0.0,0.0,0.0,0.0,0.0,0.0,0.0,0.0,0.0,0.0,0.0,0.0,0.0,0.0,0.0,0.0,0.0,0.0,0.0,0.0,0.0,1.5212,1.0368,0.6521,0.301,0.0,0.0,-0.5081,-0.771,-0.994,0.0,0.0,0.0,0.0,0.0,0.0,0.0,0.0,0.0,0.0,0.0,0.0,0.0,0.0,0.0,0.0,0.0,0.0,0.0,0.0,0.0,0.0,0.0,0.0,0.0,0.0,0.0,0.0,0.0,0.0,0.0,0.0,0.0,0.0,0.0,0.0,0.0,0.0,0.0,0.0,0.0,0.0,0.0,0.0,0.0,0.0,0.0,0.0,0.0,0.0,0.0,0.0,0.0,0.0,0.0,0.6288,0.4309,0.1273,-0.154,-0.4229,-0.7174,-0.9897,-1.2252,-1.4767,-1.7297,0.0,0.0,0.0,0.0,0.0,0.0,0.0,0.0,0.0,0.0,0.0,0.0,0.0,0.0,0.0,0.0,0.0,0.0,0.0,0.0,0.0,0.0,0.0,0.0,0.0,0.0,0.0,0.0,0.0,0.0,0.0,0.0,0.0,0.0,0.0,0.0,0.0,0.0,0.0,0.0,0.0,0.0,0.6656,0.2813,0.0,0.0,0.0,-0.8032,-1.0245,0.0,0.0,0.0,0.0,0.0,0.0,0.0,0.0,0.0,0.0,0.0,0.0,0.0,0.0,0.0,0.0,0.0,0.0,0.0,0.0,0.0,0.0,0.0,0.0,0.0,0.0,0.0,0.0,0.0,0.0,0.0,0.0,0.0,0.0,0.0,0.0,0.0,0.0,0.0,0.0,0.0,0.0,0.0,0.0,0.0,0.0,0.0,0.0,0.0,0.0,0.0,0.0,0.0,0.0,0.0,0.0,0.0,0.2251,-0.0391,-0.2929,-0.5236,-0.7797,-1.0145,-1.2164,-1.4245,0.0,0.0,0.0,0.0,0.0,0.0,0.0,0.0,0.0,0.0,0.0,0.0,0.0,0.0,0.0,0.0,0.0,0.0,0.0,0.0,0.0,0.0,0.0,0.0,0.0,0.0,0.0,0.596,0.0,0.0,0.0,0.0,0.0,0.0,0.0,0.0,0.0,0.0,0.0,0.0,0.0,0.0,0.7538,0.3109,-0.0568,-0.3987,0.0,0.0,-1.0442,-1.2264,-1.3273,-1.4161,0.0,0.0,0.0,0.0,0.0,0.0,0.0,0.0,0.0,0.0,0.0,0.0,0.0,0.0,0.0,0.0,0.0,0.0,0.0,0.0,0.0,0.0,0.0,0.0,0.0,0.0,0.0,0.0,0.0,0.0,0.0,0.0,0.0,0.0,0.0,0.0,0.0,0.0,0.0,0.0,0.0,0.0,0.0,0.0,0.0,0.0,0.0,0.0,0.0,0.0,0.0,0.0,0.0,0.0,0.1595,-0.0078,-0.2549,-0.4591,-0.6374,-0.8711,-1.0423,-1.1444,-1.3464,-1.5267,0.0,0.0,0.0,0.0,0.0,0.0,0.0,0.0,0.0,0.0,0.0,0.0,0.0,0.0,0.0,0.0,0.0,0.0,0.0,0.0,0.0,0.0,0.0,0.0,0.0,0.0,0.0,0.0,0.0,0.0,0.0,0.0,0.0,0.0,0.0,0.0,0.0,0.0,0.0,0.0,0.0,0.366,-0.0294,-0.3803,-0.6873,0.0,-1.1019,-1.2344,-1.3671,-1.4,-1.4543,-1.5576,0.0,0.0,0.0,0.0,0.0,0.0,0.0,0.0,0.0,0.0,0.0,0.0,0.0,0.0,0.0,0.0,0.0,0.0,0.0,0.0,0.0,0.0,0.0,0.0,0.0,0.0,0.0,0.0,0.0,0.0,0.0,0.0,0.0,0.0,0.0,0.0,0.0,0.0,0.0,0.0,0.0,0.0,0.0,0.0,0.0,0.0,0.0,0.0,0.0,0.0,0.0,0.0,0.0,0.0,-0.1638,-0.3616,-0.5442,-0.7099,-0.8728,-1.0049,-1.1187,-1.252,-1.3988,0.0,0.0,0.0,0.0,0.0,0.0,0.0,0.0,0.0,0.0,0.0,0.0,0.0,0.0,0.0,0.0,0.0,0.0,0.0,0.0,0.0,0.0,0.0,0.0,0.0,0.0,0.0,0.0,0.4707,0.5231,0.5375,0.0,0.0,0.0,0.0,0.0,0.0,0.0,0.0,0.0,0.0,-0.0094,-0.3844,-0.6724,0.0,0.0,-1.2784,-1.3844,-1.4892,-1.4976,-1.526,-1.6206,-1.5711,0.0,0.0,0.0,0.0,0.0,0.0,0.0,0.0,0.0,0.0,0.0,0.0,0.0,0.0,0.0,0.0,0.0,0.0,0.0,0.0,0.0,0.0,0.0,0.0,0.0,0.0,0.0,0.0,0.0,0.0,0.0,0.0,0.0,0.0,0.0,0.0,0.0,0.0,0.0,0.0,0.0,0.0,0.0,0.0,0.0,0.0,0.0,0.0,0.0,0.0,0.0,0.0,-0.1636,-0.3122,-0.4748,-0.6217,-0.7693,-0.877,-0.983,-1.0812,-1.1706,-1.2792,0.0,0.0,0.0,0.0,0.0,0.0,0.0,0.0,0.0,0.0,0.0,0.0,0.0,0.0,0.0,0.0,0.0,0.0,0.0,0.0,0.0,0.0,0.0,0.0,0.0,0.0,0.0,0.0,0.3407,0.3669,0.3663,0.0,0.0,0.0,0.0,0.0,0.0,0.0,0.0,0.0,0.0,-0.3723,-0.7024,-0.9453,-1.1541,-1.3307,-1.4178,-1.4823,-1.5617,-1.546,-1.5534,-1.6418,0.0,0.0,0.0,0.0,0.0,0.0,0.0,0.0,0.0,0.0,0.0,0.0,0.0,0.0,0.0,0.0,0.0,0.0,0.0,0.0,0.0,0.0,0.0,0.0,0.0,0.0,0.0,-0.8856,0.0,0.0,-1.1198,0.0,0.0,0.0,0.0,0.0,0.0,0.0,0.0,0.0,0.0,0.0,0.0,0.0,0.0,0.0,0.0,0.0,0.0,0.0,0.0,0.0,0.0,-0.3591,-0.4606,-0.6073,-0.723,-0.808,-0.9084,-0.9771,-1.0218,-1.0812,-1.17,-1.2938,0.0,0.0,0.0,0.0,0.0,0.0,0.0,0.0,0.0,0.0,0.0,0.0,0.0,0.0,0.0,0.0,0.0,0.0,0.0,0.0,0.0,0.0,0.0,0.0,0.0,0.0,0.1643,0.1486,0.1406,0.0,0.0,0.0,0.0,0.0,0.0,0.0,0.0,0.0,-0.1399,-0.4387,-0.7199,-0.9624,-1.1731,-1.3409,-1.4465,-1.5051,-1.5435,-1.5464,-1.5345,-1.5485,0.0,0.0,0.0,0.0,0.0,0.0,0.0,0.0,0.0,0.0,0.0,0.0,0.0,0.0,0.0,0.0,0.0,0.0,0.0,0.0,0.0,0.0,0.0,0.0,0.0,0.0,0.0,-1.3306,-1.3518,0.0,0.0,0.0,0.0,0.0,0.0,0.0,0.0,0.0,0.0,0.0,-0.8091,-0.7792,0.0,0.0,0.0,0.0,0.0,0.0,0.0,0.0,0.0,0.0,0.0,0.0,-0.5226,-0.615,-0.7153,-0.808,-0.8856,-0.9392,-0.97,-0.9997,-1.0438,-1.1403,-1.2886,0.0,0.0,0.0,0.0,0.0,0.0,0.0,0.0,0.0,0.0,0.0,0.0,0.0,0.0,0.0,0.0,0.0,0.0,0.0,0.0,0.0,0.0,0.0,0.0,0.0,0.0707,0.0,0.0,0.0,0.0,0.0,0.0,0.0,0.0,0.0,0.0,0.0,-0.3069,-0.5327,-0.76,-0.9819,-1.1976,-1.3397,-1.4478,0.0,0.0,0.0,0.0,0.0,0.0,0.0,0.0,0.0,0.0,0.0,0.0,0.0,0.0,-1.8117,-1.7851,-1.8098,-1.8619,-1.9167,0.0,0.0,0.0,0.0,0.0,0.0,0.0,0.0,0.0,0.0,0.0,0.0,0.0,0.0,-1.7154,0.0,-1.6378,0.0,0.0,0.0,0.0,0.0,0.0,0.0,0.0,-1.0345,-0.9552,-0.8959,-0.8623,-0.8778,0.0,-0.9854,-0.95,0.0,0.0,0.0,0.0,0.0,0.0,0.0,0.0,-0.6619,-0.7387,-0.808,-0.8775,-0.9397,-0.9549,-0.962,-0.9771,-1.0218,-1.1186,-1.2526,-1.3121,-1.3618,0.0,0.0,0.0,0.0,0.0,0.0,0.0,0.0,0.0,0.0,0.0,0.0,0.0,0.0,0.0,0.0,0.0,0.0,0.0,0.0,0.0,0.0,0.0,-0.0235,0.0,0.0,0.0,0.0,0.0,0.0,0.0,0.0,0.0,-0.3824,-0.4881,-0.6587,-0.8665,-1.0491,-1.2135,-1.3849,0.0,0.0,0.0,0.0,0.0,0.0,0.0,-1.526,-1.5855,-1.6271,-1.7028,-1.8396,-1.8997,-1.9282,-1.9358,0.0,0.0,-1.942,-1.9642,-2.0098,-2.0584,-2.1041,-2.1506,-2.207,-2.2433,-2.2809,0.0,0.0,0.0,0.0,0.0,0.0,0.0,0.0,-2.0436,-2.0362,0.0,-1.8751,0.0,0.0,0.0,0.0,0.0,-1.3639,0.0,0.0,-1.082,-1.0188,-0.9956,-0.9515,-0.9753,-1.058,-1.1107,-1.1764,-1.2599,-1.1109,0.0,0.0,0.0,0.0,0.0,0.0,-0.7851,-0.8399,-0.8851,-0.9231,-0.962,-0.9625,-0.9625,-0.9625,-1.0218,-1.0962,-1.1929,-1.2732,-1.323,-1.3307,-1.3899,0.0,0.0,0.0,0.0,0.0,0.0,0.0,0.0,0.0,0.0,0.0,0.0,0.0,0.0,0.0,0.0,0.0,0.0,0.0,0.0,-0.1333,0.0,0.0,0.0,0.0,0.0,0.0,0.0,0.0,0.0,0.0,-0.721,-0.8313,-0.978,-1.1318,0.0,0.0,0.0,0.0,-1.619,-1.619,-1.5906,-1.5516,-1.4676,-1.4578,-1.4563,-1.471,0.0,0.0,-1.8271,-1.9234,-1.991,-2.0351,-2.0784,-2.1115,-2.0906,-2.1211,-2.1614,-2.1983,-2.2219,-2.2446,-2.2749,-2.3029,-2.3276,-1.7935,0.0,0.0,0.0,0.0,-2.1082,-2.2186,-2.3002,-2.2846,-2.2413,-2.1619,-1.9975,0.0,0.0,0.0,0.0,0.0,0.0,-1.2726,-1.1898,-1.098,-1.0326,-0.996,-0.9157,-0.9506,-1.081,-1.1651,-1.2775,-1.4001,-1.3466,-1.2758,-1.1774,0.0,0.0,0.0,0.0,-0.8856,-0.9018,-0.9311,-0.9468,-0.962,-0.9625,-0.9625,-0.9625,-1.0067,-1.0669,-1.1558,-1.2243,-1.2842,-1.3165,-1.3127,0.0,0.0,0.0,0.0,0.0,0.0,0.0,0.0,0.0,0.0,0.0,0.0,0.0,0.0,0.0,0.0,0.0,0.0,0.0,-0.1682,-0.1942,-0.251,0.0,0.0,0.0,0.0,0.0,0.0,0.0,0.0,0.0,-1.1444,-1.1634,-1.2225,0.0,0.0,-1.571,-1.6109,-1.6393,-1.6386,-1.6197,-1.5544,0.0,-1.4192,-1.3973,-1.3894,-1.4254,-1.5547,-1.6967,-1.7971,-1.8682,-1.9303,-1.9638,-2.0339,-2.1093,-2.1533,-2.1873,-2.2241,-2.2617,-2.3029,-2.338,-2.3887,-2.426,-2.4564,-1.8026,-1.8362,-1.9166,-2.013,-2.1089,-2.2644,-2.3717,-2.4325,-2.4132,-2.3454,-2.2449,-2.0589,-1.9231,-1.8127,-1.6648,0.0,0.0,0.0,-1.2971,-1.2218,-1.1257,-1.0636,-1.0202,-0.9588,-0.9999,-1.1311,-1.2186,-1.3346,-1.4706,-1.4773,-1.4443,-1.3625,0.0,0.0,-1.073,-0.9916,-0.9578,-0.9569,-0.9502,-0.9549,-0.97,-0.9473,-0.9397,-0.9468,-0.9922,-1.0588,-1.1484,-1.1985,-1.2432,-1.2711,-1.2354,-1.2054,0.0,0.0,0.0,0.0,0.0,0.0,0.0,0.0,0.0,0.0,0.0,-0.3663,-0.3908,0.0,0.0,0.0,-0.3027,-0.2416,-0.2225,-0.2567,0.0,0.0,0.0,0.0,0.0,0.0,0.0,-1.0549,-1.1723,-1.2903,-1.4041,-1.434,-1.4504,-1.4955,-1.592,-1.6578,-1.6677,0.0,-1.6303,-1.5749,-1.5042,-1.4295,-1.3558,-1.3303,-1.343,-1.4084,-1.5626,-1.6993,-1.7668,-1.8532,-1.9182,-1.9578,-2.0337,-2.1143,-2.1609,-2.1889,-2.219,-2.2809,-2.3287,-2.3694,-2.3792,-2.4224,-2.473,-1.7707,-1.8503,-1.9362,-2.0234,-2.1296,-2.3079,-2.4106,-2.4375,-2.4354,-2.3567,-2.2361,-2.0665,-1.9137,-1.7806,-1.6319,0.0,-1.4999,-1.4028,-1.3243,-1.2589,-1.1729,-1.1042,-1.0687,-1.0304,-1.0762,-1.1787,-1.2412,-1.345,-1.485,-1.5172,-1.5188,-1.4942,-1.3258,-1.2011,-1.1204,-1.0351,-0.9936,-0.9874,-0.9489,-0.9453,-0.9765,-0.9246,-0.9022,-0.9246,-0.9846,-1.0594,-1.1558,-1.1787,-1.1952,-1.1911,-1.1482,-1.0937,-1.0451,0.0,0.0,0.0,0.0,0.0,0.0,0.0,0.0,0.0,0.0,0.0,0.0,0.0,0.0,-0.4126,-0.3361,0.0,-0.2896,-0.321,0.0,0.0,0.0,-0.6464,-0.7652,-0.9028,-1.0345,-1.1834,0.0,0.0,-1.5319,-1.6102,-1.6468,-1.6271,-1.674,-1.6999,-1.6815,-1.6566,-1.6006,-1.5073,-1.4475,-1.3814,-1.2869,-1.2721,-1.3046,-1.4015,-1.531,-1.6377,-1.7239,-1.8313,-1.9279,-1.9498,-2.0396,-2.1046,-2.1221,-2.1226,-2.1544,-2.2317,-2.2996,-2.324,-2.2958,-2.3409,-2.3928,-1.7333,-1.8257,-1.8999,-2.0078,-2.141,-2.2881,-2.3543,-2.3619,-2.3448,-2.2595,-2.1227,-1.9973,-1.8456,-1.6867,-1.5777,-1.5082,-1.4817,-1.3451,-1.2713,-1.2314,-1.1226,-1.0642,-1.0378,-0.982,-1.0023,-1.0775,-1.1868,-1.2832,-1.3769,-1.4055,-1.4126,-1.3984,-1.2683,-1.1866,-1.1403,-1.0557,-0.9997,-0.9656,-0.9416,-0.915,-0.8775,-0.8322,-0.8322,-0.8856,-0.9468,-1.0073,-1.0738,-1.0968,-1.0926,-1.0621,-0.9967,-0.9362,-0.897,-0.843,0.0,0.0,0.0,0.0,0.0,0.0,0.0,0.0,0.0,-0.4766,-0.4346,0.0,-0.4337,0.0,-0.3768,-0.3431,-0.3507,-0.3724,0.0,0.0,-0.6136,-0.7334,-0.8528,-1.0103,-1.1416,-1.2382,-1.362,-1.4685,-1.5472,-1.6103,-1.6561,-1.6743,-1.7363,-1.7692,-1.7255,-1.6903,-1.619,-1.5068,-1.4179,-1.3303,-1.2209,-1.1916,-1.2198,-1.3159,-1.4017,-1.4939,-1.5976,-1.674,-1.7484,-1.8006,-1.8683,-1.9249,-1.9757,-2.0058,-2.0411,-2.0948,-2.1564,-2.211,-2.2327,-2.2788,-2.3367,-1.6786,-1.7505,-1.8388,-1.9271,-2.0266,-2.1854,-2.2375,-2.212,-2.2031,-2.1218,-1.9765,-1.844,-1.7199,-1.6186,-1.5322,-1.4754,-1.4517,-1.3297,-1.2606,-1.2219,-1.1068,-1.0496,-1.0238,-0.9747,-0.9849,-1.0571,-1.1371,-1.2228,-1.2981,-1.3195,-1.3195,-1.2912,-1.2019,-1.1269,-1.0586,-1.007,-0.9625,-0.9272,-0.9038,-0.86,-0.7944,-0.771,-0.7936,-0.8394,-0.9155,-0.9765,-1.0368,-1.0282,-1.0126,-0.9804,-0.8722,-0.7995,-0.7778,-0.7135,-0.6597,0.0,0.0,0.0,0.0,0.0,0.0,0.0,0.0,0.0,0.0,0.0,-0.4675,-0.4578,-0.4312,-0.4067,-0.3991,-0.4276,-0.4774,-0.5395,-0.6542,-0.7844,-0.9097,-1.0695,-1.2101,-1.3276,-1.4403,-1.535,-1.6057,-1.6505,-1.6809,-1.6985,-1.7313,-1.7343,-1.6676,-1.6179,-1.5427,-1.422,-1.3341,-1.253,-1.1539,-1.1466,-1.184,-1.2625,-1.3416,-1.4294,-1.5142,-1.5912,-1.6522,-1.6968,-1.7578,-1.8184,-1.859,-1.8938,-1.9342,-1.9727,-2.0006,-2.0536,-2.136,-2.2004,-2.246,-1.6123,-1.6541,-1.746,-1.8057,-1.8692,-2.0103,-2.0587,-2.0369,-2.03,-1.9491,-1.8087,-1.6659,-1.5937,-1.571,-1.4999,-1.4573,-1.4204,-1.3316,-1.2662,-1.2117,-1.1066,-1.0514,-1.0246,-0.9797,-0.9932,-1.0541,-1.0899,-1.1445,-1.2238,-1.2371,-1.2169,-1.1694,-1.1213,-1.0412,-0.9432,-0.9155,-0.8938,-0.8725,-0.8393,-0.7842,-0.718,-0.7253,-0.7557,-0.8008,-0.8689,-0.9377,-0.9911,-0.9523,-0.9216,-0.8903,-0.7509,-0.6742,-0.6639,-0.587,-0.5369,0.0,-0.5196,0.0,0.0,0.0,0.0,0.0,0.0,0.0,0.0,-0.4925,-0.4983,-0.4897,-0.4762,-0.4663,-0.4516,-0.4815,-0.5186,-0.5647,-0.6786,-0.8076,-0.944,-1.0906,-1.2408,-1.3918,-1.4914,-1.578,-1.6419,-1.6759,-1.6881,-1.6811,-1.6624,-1.6238,-1.5427,-1.5003,-1.4381,-1.3015,-1.219,-1.1513,-1.1008,-1.1095,-1.1485,-1.2198,-1.2893,-1.374,-1.4273,-1.5047,-1.5681,-1.5972,-1.6573,-1.7131,-1.7487,-1.7816,-1.816,-1.8518,-1.8573,-1.8965,-2.0237,-2.0918,-2.119,-1.5264,-1.5666,-1.5991,-1.6557,-1.7196,-1.7359,-1.8039,-1.8994,-1.8603,-1.7728,-1.6589,-1.5876,-1.5723,-1.576,-1.5106,-1.4497,-1.4014,-1.3068,-1.2356,-1.184,-1.1132,-1.0499,-1.0074,-0.9707,-0.9456,-0.945,-0.9983,-1.0303,-1.0502,-1.1014,-1.1014,-1.038,-1.0019,-0.947,-0.8701,0.0,0.0,0.0,-0.7224,-0.6949,-0.6934,-0.6641,-0.6795,-0.733,-0.7859,0.0,-0.8466,-0.8075,-0.7613,-0.7069,-0.6067,0.0,0.0,0.0,0.0,0.0,0.0,0.0,0.0,0.0,0.0,0.0,-0.3818,-0.4059,-0.4423,-0.4789,-0.5104,-0.5253,-0.5064,-0.491,-0.4925,-0.5067,-0.5295,-0.5874,-0.6965,-0.8184,-0.9537,-1.0866,-1.2165,-1.3141,-1.4034,-1.4824,-1.5273,-1.5548,-1.5641,-1.5425,-1.5212,-1.4655,-1.3523,-1.3911,-1.3839,-1.2844,-1.1353,-1.041,-1.0179,-1.01,-1.0341,-1.093,-1.1325,-1.1868,-1.2656,-1.3207,-1.3669,-1.4114,-1.4587,-1.5036,-1.5458,-1.5809,-1.6365,-1.7006,-1.7316,-1.7862,-1.9169,-1.9614,-1.989,-1.4596,0.0,-1.5075,-1.5575,0.0,-1.602,-1.6191,-1.6639,-1.6537,-1.5915,-1.4832,-1.4568,-1.4501,-1.4757,-1.4349,-1.3957,-1.3495,-1.2822,-1.2228,-1.1708,-1.1012,-1.0406,-0.993,-0.9395,-0.9117,-0.8974,-0.9173,-0.9384,-0.9524,-0.9857,-0.9786,-0.9402,-0.9137,-0.8679,-0.7977,-0.6868,-0.6523,-0.6944,-0.646,-0.6245,-0.6244,-0.6025,-0.618,-0.671,-0.7007,0.0,0.0,0.0,0.0,0.0,0.0,0.0,0.0,0.0,0.0,-0.2554,-0.2551,-0.2552,-0.2554,-0.2624,-0.2891,-0.3228,-0.3758,-0.4341,-0.4876,-0.5168,-0.5467,-0.5676,-0.5485,-0.5331,-0.5319,-0.5409,-0.5653,-0.6154,-0.722,-0.8488,-0.9748,-1.093,-1.2044,-1.2983,-1.3725,-1.4329,-1.4772,-1.4911,-1.4985,-1.478,-1.4518,-1.39,-1.2811,-1.2678,-1.2365,-1.1043,-1.006,-0.9383,-0.9368,-0.9364,-0.9466,-0.9936,-1.0335,-1.0798,-1.141,-1.1955,-1.2497,-1.2923,-1.3318,-1.3842,-1.4387,-1.4846,-1.5495,-1.6163,-1.6648,-1.7124,-1.8057,-1.8747,-1.9256,-1.3774,-1.3673,-1.4166,-1.4714,-1.5239,-1.5055,-1.4622,-1.3908,0.0,0.0,0.0,-1.3107,-1.3186,-1.3502,-1.3416,-1.3338,-1.3058,-1.2689,-1.2227,-1.1632,-1.0887,-1.0218,-0.9744,-0.9011,-0.8654,-0.8764,-0.8522,-0.856,-0.8823,-0.8818,-0.8765,-0.8576,-0.8366,-0.7907,-0.7064,-0.5885,-0.5491,-0.5894,-0.5666,-0.5498,-0.5407,-0.541,-0.5637,-0.601,-0.6264,-0.65,-0.6648,-0.6154,-0.5649,-0.5144,-0.4055,-0.3233,-0.2657,-0.2122,-0.162,-0.1278,-0.1272,-0.1402,-0.1602,-0.1861,-0.2252,-0.2915,-0.3835,-0.4691,-0.5323,-0.561,-0.5811,-0.5898,-0.581,-0.5654,-0.5516,-0.5698,-0.5951,-0.6275,-0.7402,-0.8653,-0.9678,-1.0831,-1.184,-1.2867,-1.337,-1.386,-1.4289,-1.4401,-1.4444,-1.4306,-1.3802,-1.3072,-1.1935,-1.1301,-1.0615,-0.9297,-0.875,-0.8548,-0.8589,-0.8694,-0.8878,-0.9152,-0.9513,-0.9902,-1.0374,-1.0911,-1.1532,-1.1892,-1.2402,-1.2976,-1.3533,-1.4143,-1.4903,-1.5586,-1.6007,-1.6447,-1.7071,-1.7975,-1.8672,-1.2469,-1.2593,-1.2887,-1.3157,-1.342,-1.342,-1.2596,-1.1352,-1.1836,-1.2095,-1.2157,-1.2069,-1.2439,-1.3022,-1.3173,-1.3097,-1.2829,-1.2612,-1.2144,-1.1416,-1.0812,-1.0067,-0.9372,-0.8722,-0.8372,-0.8117,-0.8061,-0.8117,-0.8182,-0.8236,-0.8177,-0.7857,-0.7526,-0.6806,-0.5756,-0.5024,-0.4631,-0.4496,-0.4448,-0.4583,-0.4848,-0.4848,-0.4919,-0.5134,-0.5409,-0.5397,-0.5249,-0.487,-0.4432,-0.3998,-0.3118,-0.2292,-0.1679,-0.1044,-0.0413,0.0,-0.0131,-0.0324,-0.0518,-0.0949,-0.1684,-0.2686,-0.3308,-0.408,-0.5024,-0.5326,-0.5521,-0.5665,-0.5627,-0.5621,-0.5624,-0.5778,-0.5969,-0.615,-0.7114,-0.8159,-0.9068,-1.0091,-1.1001,-1.1881,-1.2438,-1.2827,-1.319,-1.3428,-1.3437,-1.3137,-1.2586,-1.1573,-0.9919,-0.9412,-0.9243,-0.8433,-0.8085,-0.8089,-0.8074,-0.8058,-0.8142,-0.8649,-0.8517,-0.8668,-0.9154,-0.9598,-1.0128,-1.0695,-1.1241,-1.1806,-1.2429,-1.2943,-1.368,-1.4553,-1.5131,-1.5723,-1.6545,-1.7223,-1.7778,-1.2037,-1.2203,-1.2289,-1.2454,-1.2595,-1.2063,-1.1159,-1.0179,-1.0103,-1.0231,-1.0678,-1.0883,-1.1338,-1.1922,-1.2165,-1.217,-1.2205,-1.1979,-1.1615,-1.1043,-1.0588,-0.9852,-0.8966,-0.8514,-0.8023,-0.7619,-0.7479,-0.7405,-0.74,-0.7591,-0.7526,-0.7209,-0.6609,-0.5943,-0.5084,-0.4421,-0.3891,-0.3618,-0.3861,-0.4111,-0.4362,-0.4506,-0.4648,-0.4865,-0.4947,-0.4909,-0.4759,-0.4279,-0.376,-0.3066,-0.2232,-0.1515,-0.0804,-0.0134,0.033,0.0707,0.0633,0.044,0.0189,-0.0621,-0.1478,-0.2405,-0.2958,-0.3608,-0.4469,-0.4925,-0.5272,-0.5474,-0.5407,-0.5367,-0.5371,-0.5557,-0.5728,-0.5953,-0.681,-0.7709,-0.8517,-0.945,-1.0302,-1.0852,-1.1436,-1.1774,-1.1945,-1.2089,-1.2236,-1.2038,-1.1345,-1.0072,-0.8603,-0.7902,-0.7483,-0.7369,-0.7185,-0.7056,-0.718,-0.7019,-0.7099,-0.7345,-0.738,-0.7616,-0.808,-0.8496,-0.9115,-0.9939,-1.0485,-1.1115,-1.1934,-1.249,-1.3155,-1.4001,-1.4765,-1.5468,-1.6171,-1.6965,-1.7799,-1.1746,-1.161,-1.1781,-1.1918,-1.1809,-1.0806,-0.9961,-0.9316,-0.8798,-0.878,-0.9236,-0.976,-1.0363,-1.0807,-1.1057,-1.1249,-1.1384,-1.1181,-1.0857,-1.0341,-0.9977,-0.9216,-0.8389,-0.7971,-0.7577,-0.715,-0.6968,-0.6876,-0.6946,-0.7007,-0.6937,-0.6548,-0.5815,-0.5134,-0.4569,-0.3833,-0.3334,-0.3007,-0.3398,-0.3646,-0.3792,-0.4,-0.4209,-0.4415,-0.4469,-0.4417,-0.4209,-0.3862,-0.3226,-0.2306,-0.1515,-0.0783,0.0064,0.0637,0.1136,0.1358,0.1346,0.1094,0.0544,-0.0302,-0.1206,-0.1994,-0.2534,-0.3073,-0.3735,-0.4332,-0.4843,-0.5143,-0.5232,-0.5214,-0.5178,-0.5288,-0.5512,-0.5838,-0.6515,-0.7303,-0.8019,-0.8938,-0.9569,-0.9973,-1.047,-1.0865,-1.089,-1.0937,-1.103,-1.0929,-0.9985,-0.8845,-0.7935,-0.6659,-0.6014,-0.6025,-0.5978,-0.5986,-0.6083,-0.6121,-0.6163,-0.6246,-0.6504,-0.688,-0.7296,-0.7788,-0.8443,-0.9316,-0.9939,-1.0667,-1.1677,-1.2182,-1.2797,-1.3761,-1.4538,-1.5235,-1.6171,-1.7078,-1.7909,-1.0877,-1.0611,-1.1098,-1.1051,-1.0513,-0.9632,-0.8885,-0.8278,-0.8181,-0.8097,-0.8075,-0.9145,-0.9739,-1.004,-1.0425,-1.0623,-1.0599,-1.0225,-0.9769,-0.9135,-0.8634,-0.8061,-0.7455,-0.7064,-0.6829,-0.6716,-0.6693,-0.6741,-0.6815,-0.6736,-0.6408,-0.5749,-0.5156,-0.4495,-0.3818,-0.3345,-0.2985,-0.2542,-0.2615,-0.2689,-0.2822,-0.3132,-0.3381,-0.3506,-0.381,-0.3735,-0.3384,-0.3168,-0.2731,-0.1862,-0.1057,-0.0248,0.0556,0.1361,0.1977,0.2398,0.2159,0.1575,0.0568,0.0113,-0.051,-0.1302,-0.1815,-0.2437,-0.3114,-0.3508,-0.4056,-0.4587,-0.5026,-0.5076,-0.4972,-0.5184,-0.5415,-0.5582,-0.6242,-0.6902,-0.7494,-0.8253,-0.8875,-0.933,-0.9789,-1.017,-1.0201,-1.0372,-1.0233,-0.9667,-0.879,-0.7783,-0.697,-0.5856,-0.4918,-0.4732,-0.4748,-0.4989,-0.5104,-0.5407,-0.5588,-0.5899,-0.6104,-0.6409,-0.6805,-0.7374,-0.797,-0.872,-0.9517,-1.0288,-1.1178,-1.1802,-1.2552,-1.3528,-1.43,-1.5001,-1.6343,-1.7256,-1.781,-1.0299,-1.0125,-1.0455,-1.0151,-0.9378,-0.8736,-0.8168,-0.7586,-0.7483,-0.7326,-0.7155,-0.7868,-0.869,-0.9321,-0.9536,-0.9647,-0.9564,-0.9249,-0.8855,-0.8498,-0.7938,-0.7381,-0.6921,-0.6721,-0.6427,-0.6257,-0.625,-0.6218,-0.6264,-0.6055,-0.5654,-0.512,-0.454,-0.3898,-0.3268,-0.2861,-0.249,-0.2158,-0.2122,-0.2102,-0.2229,-0.2783,-0.314,-0.3324,-0.363,-0.3628,-0.3202,-0.2954,-0.24,-0.1539,-0.0678,0.0183,0.1019,0.1739,0.2317,0.2685,0.2475,0.2047,0.1291,0.0729,0.0112,-0.0673,-0.1233,-0.1961,-0.2798,-0.3135,-0.3513,-0.3989,-0.4304,-0.4448,-0.4515,-0.4727,-0.4975,-0.5313,-0.5801,-0.6346,-0.6955,-0.7661,-0.8171,-0.8484,-0.897,-0.9283,-0.928,-0.9312,-0.9055,-0.844,-0.7644,-0.6885,-0.6026,-0.4918,-0.4059,-0.353,-0.3419,-0.3701,-0.4154,-0.4397,-0.466,-0.4991,-0.522,-0.5518,-0.6132,-0.6584,-0.7228,-0.8225,-0.9017,-0.9939,-1.0996,-1.1553,-1.2236,-1.3216,-1.441,-1.5352,-1.6374,-1.7043,-1.749,-0.9629,-0.957,-0.9431,-0.9072,-0.8461,-0.799,-0.7422,-0.6954,-0.6828,-0.66,-0.6397,-0.6738,-0.7367,-0.8112,-0.8413,-0.8488,-0.8409,-0.8072,-0.7771,-0.7498,-0.7011,-0.6591,-0.6271,-0.6199,-0.5936,-0.5701,-0.5712,-0.573,-0.5618,-0.5389,-0.5001,-0.4473,-0.389,-0.3283,-0.2748,-0.24,-0.205,-0.1798,-0.1703,-0.1684,-0.1753,-0.2349,-0.2763,-0.3062,-0.3359,-0.3356,-0.3002,-0.2701,-0.2039,-0.108,-0.024,0.0595,0.1452,0.2145,0.2697,0.3028,0.2907,0.2465,0.1906,0.1234,0.0561,-0.0168,-0.0785,-0.1513,-0.2354,-0.2798,-0.3077,-0.3418,-0.3691,-0.3922,-0.4135,-0.4353,-0.4625,-0.5011,-0.5445,-0.5996,-0.6564,-0.7147,-0.7566,-0.774,-0.819,-0.8433,-0.8284,-0.8227,-0.7935,-0.7353,-0.6658,-0.5909,-0.5005,-0.3985,-0.2991,-0.2494,-0.2273,-0.2495,-0.3225,-0.3597,-0.3802,-0.4187,-0.4487,-0.4867,-0.5421,-0.5976,-0.6575,-0.7638,-0.8533,-0.9503,-1.0521,-1.1233,-1.205,-1.3094,-1.4231,-1.541,-1.6124,-1.6751,-1.7155,-0.8896,-0.8458,-0.8039,-0.7893,-0.7795,-0.718,-0.6634,-0.619,-0.6094,-0.5949,-0.5738,-0.5867,-0.6011,-0.6164,-0.6975,-0.7236,-0.7065,-0.6722,-0.6394,-0.6074,-0.5733,-0.5379,-0.5163,-0.5163,-0.516,-0.5196,-0.5352,-0.528,-0.5078,-0.4806,-0.4433,-0.3827,-0.3315,-0.2786,-0.2261,-0.1944,-0.1622,-0.1357,-0.1349,-0.1346,-0.1347,-0.1691,-0.2151,-0.2604,-0.2871,-0.2822,-0.2537,-0.225,-0.152,-0.0507,0.0283,0.1071,0.1908,0.2695,0.3249,0.3516,0.3466,0.2965,0.2128,0.1569,0.0898,0.0112,-0.0449,-0.112,-0.1959,-0.2352,-0.2687,-0.3077,-0.3355,-0.3638,-0.3968,-0.4242,-0.4574,-0.4901,-0.534,-0.5832,-0.6327,-0.6732,-0.7003,-0.7317,-0.7603,-0.7716,-0.7574,-0.7203,-0.6834,-0.6332,-0.5546,-0.4749,-0.4048,-0.2988,-0.22,-0.1761,-0.1517,-0.1514,-0.2359,-0.286,-0.3302,-0.3688,-0.4079,-0.4421,-0.5023,-0.5676,-0.633,-0.7116,-0.7995,-0.8957,-0.9982,-1.0975,-1.1911,-1.2964,-1.4121,-1.5128,-1.5768,-1.64,-1.6864,-0.8104,-0.7806,-0.735,-0.711,-0.6859,-0.6403,-0.5946,-0.5586,-0.5496,-0.5358,-0.5294,-0.5232,-0.5171,-0.5171,-0.5433,-0.5765,-0.6093,-0.5841,-0.569,-0.5561,-0.5163,-0.5027,-0.5087,-0.4957,-0.4841,-0.4825,-0.4839,-0.4744,-0.4488,-0.4162,-0.3683,-0.3164,-0.2598,-0.2153,-0.1698,-0.1499,-0.1362,-0.118,-0.1122,-0.1066,-0.1066,-0.1066,-0.129,-0.1682,-0.2296,-0.2493,-0.2169,-0.188,-0.1274,-0.0326,0.0498,0.1398,0.2291,0.3403,0.4018,0.4125,0.4018,0.363,0.2965,0.224,0.1513,0.0673,0.0,-0.0729,-0.1513,-0.2073,-0.2464,-0.28,-0.319,-0.3527,-0.3749,-0.4024,-0.4353,-0.4739,-0.5179,-0.5614,-0.6055,-0.6381,-0.6712,-0.6982,-0.7144,-0.7036,-0.6701,-0.6376,-0.5968,-0.5353,-0.4587,-0.3806,-0.3069,-0.2276,-0.1645,-0.1294,-0.1121,-0.1234,-0.1457,-0.2128,-0.2685,-0.3188,-0.3635,-0.4079,-0.4605,-0.5091,-0.5711,-0.6483,-0.7429,-0.8408,-0.9481,-1.0857,-1.1813,-1.2854,-1.4007,-1.4775,-1.5352,-1.5999,-1.6467,-0.7159,-0.6934,-0.6633,-0.6346,-0.611,-0.5657,-0.5283,-0.5015,-0.4784,-0.4726,-0.4674,-0.4529,-0.4495,-0.4495,-0.4359,-0.4556,-0.4951,-0.496,-0.496,-0.4894,-0.4628,-0.4558,-0.4625,-0.4561,-0.4429,-0.4307,-0.4219,-0.4122,-0.3827,-0.351,-0.3045,-0.2493,-0.1941,-0.1529,-0.121,-0.1078,-0.0954,-0.0841,-0.0785,-0.0729,-0.0729,-0.0729,-0.0785,-0.1064,-0.1663,-0.1909,-0.1704,-0.1375,-0.0826,-0.0054,0.0824,0.1843,0.2959,0.4012,0.4625,0.4684,0.4515,0.4236,0.3633,0.2907,0.2071,0.1232,0.0449,-0.0393,-0.1234,-0.1793,-0.224,-0.2577,-0.297,-0.3304,-0.3471,-0.3747,-0.4132,-0.4632,-0.5066,-0.5504,-0.595,-0.6168,-0.6386,-0.6549,-0.6495,-0.6268,-0.5932,-0.5555,-0.5062,-0.434,-0.3622,-0.2956,-0.2178,-0.1509,-0.1008,-0.0673,-0.0617,-0.0785,-0.1065,-0.1569,-0.2296,-0.28,-0.3299,-0.3744,-0.4203,-0.4572,-0.5152,-0.5953,-0.6876,-0.7887,-0.9125,-1.0566,-1.1753,-1.2731,-1.3631,-1.4478,-1.5059,-1.571,-1.6124,-0.6108,-0.5899,-0.5669,-0.561,-0.545,-0.4939,-0.4651,-0.4477,-0.4117,-0.3988,-0.3917,-0.3828,-0.3825,-0.3825,-0.3825,-0.3825,-0.3892,-0.3959,-0.4028,-0.4095,-0.3959,-0.3892,-0.3892,-0.3889,-0.3828,-0.3648,-0.3573,-0.3364,-0.3105,-0.2819,-0.237,-0.1855,-0.1351,-0.0955,-0.0674,-0.0505,-0.0393,-0.0392,-0.0391,-0.0391,-0.0392,-0.0557,-0.0666,-0.0666,-0.0866,-0.1009,-0.106,-0.0658,-0.022,0.0428,0.1263,0.2458,0.3741,0.457,0.4959,0.5069,0.5011,0.4677,0.4177,0.3403,0.2627,0.179,0.0952,0.0,-0.0841,-0.1512,-0.2015,-0.241,-0.2747,-0.297,-0.3188,-0.3519,-0.4021,-0.4577,-0.5011,-0.5449,-0.5837,-0.6114,-0.6119,-0.6005,-0.5782,-0.5449,-0.5113,-0.4728,-0.4177,-0.3456,-0.2788,-0.2176,-0.1341,-0.0728,-0.0168,0.0,-0.0112,-0.0393,-0.0673,-0.1066,-0.1794,-0.2467,-0.3023,-0.3469,-0.3855,-0.4244,-0.4674,-0.5458,-0.6468,-0.7502,-0.8737,-1.0182,-1.1189,-1.2131,-1.3144,-1.4058,-1.4715,-1.5303,-1.5826,-0.5369,-0.5222,-0.4937,-0.4745,-0.468,-0.432,-0.4114,-0.4016,-0.3743,-0.3659,-0.3565,-0.3426,-0.336,-0.3357,-0.3291,-0.3291,-0.3224,-0.3155,-0.3355,-0.3756,-0.3825,-0.3758,-0.3758,-0.3823,-0.3668,-0.3425,-0.3224,-0.2941,-0.2637,-0.224,-0.179,-0.1232,-0.0785,-0.0505,-0.0224,-0.0168,-0.0112,-0.0112,-0.0109,-0.0161,-0.0108,-0.0212,-0.0209,-0.0209,-0.0258,-0.0254,-0.0199,-0.0157,0.0212,0.0823,0.1629,0.2794,0.4242,0.5069,0.5454,0.5673,0.5673,0.5395,0.4846,0.407,0.3183,0.2176,0.1229,0.0336,-0.0673,-0.1399,-0.1903,-0.2296,-0.2635,-0.3028,-0.3302,-0.3524,-0.3913,-0.4463,-0.4904,-0.5289,-0.5622,-0.5614,-0.5504,-0.5399,-0.5069,-0.468,-0.4236,-0.3796,-0.3239,-0.2512,-0.1899,-0.1285,-0.0728,-0.0168,0.0,0.0056,0.0,-0.0056,-0.0449,-0.0841,-0.1457,-0.213,-0.2689,-0.319,-0.358,-0.3919,-0.4337,-0.5102,-0.6149,-0.7203,-0.8468,-0.9566,-1.061,-1.16,-1.253,-1.3388,-1.4218,-1.4758,-1.5205,-0.4585,-0.4377,-0.4167,-0.3992,-0.3866,-0.3655,-0.3549,-0.3496,-0.3293,-0.3159,-0.3159,-0.3092,-0.3023,-0.3023,-0.2956,-0.2889,-0.2889,-0.2753,-0.2937,-0.3253,-0.3347,-0.3422,-0.3343,-0.3344,-0.3244,-0.303,-0.2699,-0.2408,-0.213,-0.1681,-0.1177,-0.0617,-0.028,0.0,0.0224,0.0168,0.0167,0.0165,0.0161,0.0158,0.0156,0.0153,0.0152,0.0151,0.015,0.0245,0.0384,0.0456,0.0723,0.1333,0.2211,0.34,0.4632,0.5238,0.5727,0.5946,0.6005,0.5841,0.5399,0.4739,0.379,0.2674,0.1619,0.0559,-0.0504,-0.1343,-0.1846,-0.2296,-0.2521,-0.2858,-0.3079,-0.319,-0.3524,-0.4024,-0.4574,-0.4959,-0.5179,-0.512,-0.4897,-0.4625,-0.4242,-0.3796,-0.3297,-0.2794,-0.2293,-0.1623,-0.1064,-0.0503,-0.0112,0.028,0.0393,0.0393,0.0393,0.0224,-0.0168,-0.0673,-0.1177,-0.1793,-0.2411,-0.2856,-0.3299,-0.358,-0.3987,-0.4986,-0.5994,-0.6789,-0.7944,-0.8983,-0.9995,-1.099,-1.193,-1.2685,-1.3398,-1.4005,-1.4523,-0.3766,-0.3498,-0.3433,-0.3372,-0.3167,-0.303,-0.2956,-0.2947,-0.2743,-0.2667,-0.2664,-0.2586,-0.2593,-0.2601,-0.2517,-0.2517,-0.2603,-0.2523,-0.2425,-0.247,-0.2558,-0.265,-0.2701,-0.2591,-0.2497,-0.2361,-0.2107,-0.185,-0.157,-0.1066,-0.0561,0.0,0.0168,0.0393,0.0617,0.0561,0.0497,0.0484,0.0477,0.0414,0.0403,0.0399,0.0349,0.0398,0.0387,0.0475,0.0665,0.1136,0.1421,0.1741,0.2983,0.3962,0.4688,0.5293,0.5727,0.6055,0.6173,0.6168,0.5891,0.523,0.4343,0.3176,0.1953,0.0727,-0.0448,-0.1231,-0.1846,-0.241,-0.2465,-0.2577,-0.2691,-0.2691,-0.2912,-0.3302,-0.3962,-0.4463,-0.4577,-0.446,-0.4184,-0.3793,-0.3352,-0.2852,-0.2294,-0.1846,-0.1287,-0.0784,-0.0224,0.0224,0.0616,0.0897,0.1066,0.101,0.0841,0.0505,0.0056,-0.0336,-0.084,-0.1345,-0.1962,-0.241,-0.2963,-0.3355,-0.3858,-0.4794,-0.5732,-0.65,-0.7361,-0.8435,-0.9369,-1.0246,-1.1106,-1.1861,-1.2616,-1.3295,-1.3756,-0.3226,-0.3092,-0.2956,-0.2889,-0.2822,-0.2622,-0.2591,-0.2481,-0.2151,-0.2061,-0.203,-0.1891,-0.1834,-0.183,-0.1831,-0.1828,-0.1835,-0.1833,-0.1824,-0.175,-0.1758,-0.2019,-0.2195,-0.2126,-0.2016,-0.1989,-0.1651,-0.1346,-0.1066,-0.0505,0.0,0.0505,0.0729,0.0953,0.1066,0.1064,0.1047,0.101,0.0865,0.0742,0.0677,0.0518,0.0418,0.0417,0.046,0.0641,0.0918,0.1802,0.2435,0.2715,0.3366,0.4125,0.478,0.5332,0.5764,0.6199,0.6431,0.649,0.6164,0.5504,0.4567,0.3514,0.212,0.0783,-0.0336,-0.1344,-0.2015,-0.241,-0.2579,-0.2635,-0.2635,-0.2465,-0.2464,-0.2575,-0.3352,-0.3907,-0.3907,-0.3572,-0.3239,-0.3072,-0.2516,-0.2014,-0.1511,-0.1008,-0.0504,0.0056,0.0505,0.0897,0.1232,0.1345,0.1458,0.1234,0.101,0.0729,0.0336,-0.0056,-0.0449,-0.0953,-0.1458,-0.1962,-0.2517,-0.313,-0.3741,-0.457,-0.5395,-0.6159,-0.6972,-0.7817,-0.868,-0.9582,-1.0384,-1.1231,-1.1994,-1.2718,-1.2976,-0.2574,-0.2509,-0.2377,-0.2309,-0.2245,-0.2113,-0.2016,-0.1969,-0.1709,-0.1569,-0.1546,-0.1419,-0.1356,-0.1356,-0.1357,-0.1358,-0.1357,-0.1357,-0.1286,-0.1206,-0.1074,-0.1315,-0.168,-0.1718,-0.1636,-0.1555,-0.119,-0.0898,-0.0505,0.0112,0.0617,0.1066,0.1289,0.1457,0.1567,0.1435,0.1404,0.1299,0.1089,0.0953,0.0881,0.0817,0.081,0.0808,0.0899,0.1133,0.1695,0.238,0.297,0.3382,0.3805,0.4311,0.485,0.5338,0.5712,0.6091,0.6479,0.6593,0.6322,0.5723,0.4838,0.3674,0.2286,0.095,-0.0336,-0.1401,-0.2074,-0.2296,-0.2298,-0.2244,-0.2244,-0.2074,-0.1961,-0.2017,-0.2462,-0.285,-0.3074,-0.2683,-0.2402,-0.2124,-0.1623,-0.1064,-0.0728,-0.0168,0.0336,0.0729,0.1177,0.1456,0.1734,0.1793,0.1794,0.157,0.1402,0.1177,0.0897,0.0505,0.0,-0.0505,-0.1122,-0.157,-0.224,-0.2905,-0.3627,-0.4346,-0.5113,-0.5878,-0.6642,-0.7456,-0.8259,-0.9065,-0.9824,-1.0501,-1.1242,-1.1818,-1.2143,-0.1925,-0.1732,-0.1732,-0.1668,-0.1539,-0.1538,-0.1514,-0.1416,-0.129,-0.1163,-0.1157,-0.1099,-0.1031,-0.104,-0.0967,-0.1037,-0.1036,-0.0969,-0.0898,-0.0762,-0.0632,-0.0802,-0.117,-0.1227,-0.1151,-0.1017,-0.0729,-0.0336,0.0112,0.0673,0.1178,0.1515,0.1737,0.1903,0.1892,0.1738,0.1571,0.147,0.1318,0.1218,0.1183,0.1213,0.1256,0.1345,0.1614,0.204,0.2553,0.298,0.3299,0.3848,0.4177,0.4483,0.484,0.5263,0.5553,0.5806,0.6265,0.6544,0.6327,0.5887,0.5109,0.3779,0.2506,0.1115,-0.028,-0.1234,-0.185,-0.2128,-0.1738,-0.1684,-0.1628,-0.1572,-0.1458,-0.1402,-0.1345,-0.1513,-0.1736,-0.1734,-0.151,-0.1174,-0.0616,-0.0112,0.028,0.0785,0.1234,0.1345,0.1737,0.1961,0.2071,0.2128,0.213,0.2017,0.1905,0.1793,0.1457,0.1122,0.0505,-0.0056,-0.0729,-0.1289,-0.2074,-0.274,-0.3461,-0.4125,-0.4783,-0.5605,-0.6426,-0.7187,-0.7889,-0.8599,-0.9323,-0.9806,-1.0311,-1.0745,-1.108,-0.1372,-0.1247,-0.1247,-0.1246,-0.1184,-0.1059,-0.098,-0.0953,-0.0774,-0.0647,-0.0576,-0.0574,-0.0574,-0.0574,-0.0519,-0.0573,-0.0576,-0.0576,-0.0513,-0.0511,-0.0451,-0.0393,-0.0511,-0.0568,-0.0565,-0.0449,-0.0168,0.0224,0.0617,0.1178,0.1572,0.1796,0.2073,0.2127,0.2169,0.2048,0.1934,0.1868,0.165,0.1538,0.1491,0.1567,0.1658,0.1792,0.2194,0.2708,0.3183,0.3482,0.3804,0.4096,0.4188,0.4368,0.4704,0.505,0.5371,0.574,0.6047,0.6332,0.6273,0.5673,0.4897,0.3895,0.2563,0.1174,0.0,-0.0898,-0.1513,-0.1792,-0.1679,-0.1345,-0.1009,-0.101,-0.0897,-0.0673,-0.0561,-0.0505,-0.0393,-0.0504,-0.0504,-0.0224,0.0224,0.0673,0.0897,0.1344,0.1737,0.1961,0.2186,0.241,0.2465,0.2465,0.2464,0.2406,0.2294,0.2183,0.1959,0.1513,0.0953,0.0393,-0.028,-0.0841,-0.1625,-0.2406,-0.3072,-0.3735,-0.4457,-0.5277,-0.6159,-0.6869,-0.7568,-0.8209,-0.8791,-0.9256,-0.9666,-0.9925,-1.0198,-0.0786,-0.0725,-0.0604,-0.0604,-0.0604,-0.0483,-0.0415,-0.0405,-0.023,-0.0171,-0.0112,-0.0056,0.0,-0.0056,0.0,-0.0056,-0.0112,-0.0168,-0.0224,-0.0168,-0.0168,-0.0056,0.0056,0.0112,0.0168,0.0056,0.0336,0.0785,0.1232,0.1737,0.2128,0.2298,0.2516,0.2601,0.2563,0.2378,0.2239,0.2108,0.1987,0.1877,0.1841,0.1969,0.2237,0.2504,0.2909,0.3324,0.3778,0.3901,0.4144,0.4391,0.4449,0.4492,0.4755,0.5056,0.5391,0.567,0.6105,0.6218,0.6059,0.5673,0.4956,0.3956,0.2734,0.1566,0.056,-0.0336,-0.0785,-0.1008,-0.1008,-0.0728,-0.0449,-0.0449,-0.028,-0.0112,0.0056,0.028,0.0505,0.0393,0.028,0.0561,0.1064,0.14,0.168,0.2015,0.2237,0.2462,0.2631,0.2798,0.2798,0.2854,0.2798,0.274,0.2629,0.2517,0.235,0.1959,0.1345,0.0785,0.0224,-0.0336,-0.0896,-0.1734,-0.2569,-0.3347,-0.4181,-0.5007,-0.5828,-0.6539,-0.7192,-0.7783,-0.8309,-0.8784,-0.9152,-0.9406,-0.9621,-0.0176,-0.0176,0.0,0.0058,0.0058,0.0117,0.0115,0.0113,0.028,0.0337,0.0336,0.0449,0.0505,0.0449,0.0449,0.0393,0.028,0.0168,0.0112,0.0056,0.0224,0.028,0.0449,0.0728,0.0896,0.0729,0.0953,0.14,0.1847,0.2296,0.2575,0.2847,0.2996,0.2957,0.2927,0.2706,0.2516,0.2388,0.2259,0.2252,0.2324,0.2504,0.2907,0.3391,0.3615,0.3883,0.4203,0.4319,0.4402,0.4709,0.4845,0.4966,0.5095,0.5259,0.5512,0.5713,0.6061,0.6154,0.6005,0.5618,0.4901,0.3904,0.3014,0.2068,0.1064,0.0448,0.0056,-0.0112,-0.0168,-0.0056,0.0112,0.0168,0.028,0.0448,0.0728,0.1009,0.1234,0.1121,0.1177,0.1288,0.1734,0.2069,0.2294,0.2573,0.2796,0.2963,0.3077,0.3132,0.3188,0.3188,0.3132,0.3077,0.3021,0.2796,0.2629,0.2352,0.1737,0.1176,0.0672,0.0112,-0.0393,-0.1176,-0.2125,-0.3125,-0.3959,-0.4732,-0.55,-0.6159,-0.681,-0.7348,-0.7836,-0.8309,-0.8626,-0.889,-0.9099,0.0283,0.0283,0.0339,0.0339,0.034,0.0509,0.0621,0.0617,0.0841,0.0897,0.0841,0.0953,0.0953,0.0841,0.0841,0.0729,0.0673,0.0561,0.0505,0.0393,0.0561,0.0729,0.1009,0.1344,0.1624,0.1847,0.1903,0.2015,0.2238,0.2573,0.2907,0.2947,0.3051,0.305,0.2982,0.2754,0.2692,0.2733,0.2647,0.2687,0.2857,0.3167,0.3527,0.406,0.4292,0.4458,0.4585,0.472,0.4793,0.4879,0.5118,0.5345,0.5539,0.5538,0.5634,0.5759,0.5905,0.6005,0.5896,0.5293,0.4739,0.4015,0.3183,0.2406,0.168,0.1231,0.084,0.0672,0.0561,0.0617,0.0729,0.0841,0.1064,0.1287,0.1511,0.1792,0.2128,0.224,0.2184,0.2183,0.2516,0.2738,0.2852,0.291,0.3077,0.3244,0.3355,0.3411,0.3466,0.3469,0.3469,0.3413,0.3302,0.3132,0.2907,0.2631,0.2184,0.1624,0.1064,0.0449,-0.0112,-0.0785,-0.1624,-0.2625,-0.3572,-0.4405,-0.5117,-0.5828,-0.6485,-0.7079,-0.7456,-0.7836,-0.8103,-0.8368,-0.8639,0.0952,0.0897,0.1064,0.1119,0.1119,0.1232,0.1344,0.14,0.1513,0.1512,0.1512,0.1512,0.1512,0.14,0.1344,0.1233,0.1066,0.0898,0.0841,0.0785,0.0954,0.1233,0.1568,0.1959,0.235,0.2629,0.2796,0.2852,0.2854,0.3135,0.3297,0.3437,0.346,0.3373,0.3289,0.314,0.302,0.3052,0.3077,0.317,0.3388,0.3785,0.4272,0.4596,0.4906,0.5046,0.5174,0.5376,0.5486,0.5534,0.5745,0.5899,0.6014,0.6063,0.6067,0.5984,0.5955,0.5955,0.5841,0.5293,0.4842,0.4181,0.3461,0.2852,0.2406,0.2015,0.168,0.1456,0.14,0.14,0.1456,0.1569,0.1736,0.2068,0.2293,0.2573,0.291,0.3132,0.3077,0.2963,0.3074,0.3186,0.3132,0.3246,0.3355,0.3466,0.3577,0.3688,0.3802,0.3858,0.3916,0.3747,0.3635,0.3411,0.3186,0.291,0.2577,0.2073,0.1512,0.084,0.0168,-0.0449,-0.1176,-0.2068,-0.3014,-0.4018,-0.4791,-0.5559,-0.6154,-0.6701,-0.7079,-0.7408,-0.7628,-0.7842,-0.8162,0.1679,0.1514,0.1736,0.1846,0.1846,0.1959,0.2014,0.2125,0.2183,0.2238,0.2238,0.2238,0.2181,0.2069,0.1958,0.1847,0.1514,0.1458,0.1401,0.1401,0.1569,0.1849,0.2183,0.2629,0.3019,0.3241,0.3519,0.3741,0.3466,0.3635,0.3858,0.3932,0.3886,0.3822,0.3714,0.3562,0.346,0.3469,0.3486,0.3656,0.4049,0.4443,0.4907,0.5164,0.543,0.5626,0.5737,0.5886,0.5987,0.6057,0.6192,0.6395,0.642,0.6556,0.6539,0.6337,0.6232,0.6069,0.5845,0.5458,0.4952,0.4457,0.3956,0.3463,0.3077,0.2742,0.2519,0.2352,0.2238,0.2181,0.2238,0.2238,0.246,0.2736,0.3016,0.3186,0.3466,0.3691,0.3799,0.3744,0.3688,0.3633,0.3633,0.358,0.3688,0.3858,0.3968,0.4187,0.4298,0.4356,0.4356,0.4187,0.3965,0.3744,0.3463,0.3244,0.2912,0.2465,0.1849,0.1288,0.056,-0.0168,-0.0896,-0.1679,-0.2681,-0.3624,-0.4457,-0.5179,-0.5723,-0.6213,-0.6652,-0.7031,-0.73,-0.7574,-0.7842,0.2404,0.2071,0.2127,0.2128,0.2184,0.2352,0.2517,0.2681,0.2905,0.2963,0.2961,0.3132,0.3019,0.2796,0.2631,0.2521,0.2354,0.2298,0.2184,0.2128,0.2348,0.2571,0.285,0.3294,0.3574,0.3744,0.391,0.3852,0.3907,0.4024,0.4138,0.4216,0.4321,0.4271,0.4316,0.4042,0.3882,0.4018,0.4085,0.432,0.4748,0.5058,0.5375,0.5691,0.5851,0.5966,0.6143,0.6307,0.6324,0.6304,0.6533,0.6645,0.6671,0.6676,0.6701,0.6544,0.6386,0.6173,0.6069,0.5567,0.512,0.4732,0.4291,0.391,0.3577,0.3357,0.3246,0.3246,0.3077,0.2961,0.2963,0.313,0.3299,0.3463,0.3627,0.3855,0.4082,0.4242,0.4353,0.4408,0.4294,0.4184,0.4073,0.4021,0.4021,0.419,0.4411,0.4574,0.4739,0.4798,0.4688,0.4467,0.4242,0.4018,0.3741,0.3522,0.3244,0.2802,0.224,0.1624,0.0896,0.0168,-0.0561,-0.14,-0.2347,-0.3181,-0.3959,-0.4622,-0.5285,-0.5782,-0.6168,-0.6652,-0.7085,-0.73,-0.7574,0.3624,0.3016,0.3072,0.313,0.3128,0.3186,0.335,0.3569,0.368,0.3738,0.3735,0.3796,0.3685,0.3463,0.3355,0.3188,0.3079,0.3023,0.2968,0.291,0.3128,0.3294,0.3574,0.3907,0.4184,0.4298,0.4408,0.4515,0.446,0.4463,0.4577,0.482,0.4854,0.4968,0.4972,0.4775,0.4815,0.4927,0.4987,0.5133,0.5358,0.5517,0.5787,0.6156,0.6346,0.6492,0.6623,0.6805,0.6823,0.6791,0.6891,0.6839,0.6802,0.6876,0.6993,0.6838,0.6865,0.6652,0.6332,0.5778,0.5445,0.5062,0.4625,0.4184,0.3965,0.3802,0.3691,0.3633,0.3577,0.3519,0.3574,0.3688,0.391,0.4128,0.4294,0.446,0.4684,0.4791,0.4901,0.4901,0.4956,0.4787,0.4677,0.457,0.457,0.468,0.4846,0.5066,0.5124,0.5187,0.4967,0.4632,0.4463,0.4239,0.4021,0.3799,0.3577,0.3135,0.2633,0.1959,0.1233,0.0449,-0.028,-0.1009,-0.1846,-0.2681,-0.3403,-0.4181,-0.4901,-0.5344,-0.5736,-0.6223,-0.6707,-0.7139,-0.7461,0.4842,0.4177,0.4128,0.4073,0.4073,0.4073,0.4181,0.4401,0.4401,0.4401,0.4401,0.4346,0.4184,0.4073,0.3962,0.3852,0.3691,0.3688,0.3688,0.3744,0.3852,0.3962,0.4184,0.446,0.4625,0.4739,0.4736,0.4846,0.4959,0.5014,0.5175,0.5437,0.5498,0.5637,0.5731,0.5691,0.5606,0.5698,0.5818,0.5948,0.6046,0.6102,0.6333,0.662,0.6863,0.7022,0.7166,0.7231,0.7235,0.7083,0.7067,0.6968,0.681,0.6905,0.6984,0.6917,0.6993,0.6966,0.6561,0.6157,0.5819,0.5391,0.4901,0.4408,0.4187,0.4132,0.4135,0.4076,0.4128,0.4184,0.4242,0.4298,0.4519,0.4791,0.5011,0.5175,0.5285,0.5395,0.55,0.55,0.5555,0.5555,0.5391,0.5171,0.5117,0.5171,0.5336,0.5555,0.5559,0.5567,0.5297,0.4963,0.4739,0.4515,0.4353,0.4132,0.3855,0.3466,0.2965,0.2296,0.1569,0.0729,0.0,-0.0728,-0.1456,-0.2071,-0.285,-0.3738,-0.4574,-0.4963,-0.5403,-0.5841,-0.6327,-0.6815,-0.7515,0.5832,0.5609,0.5062,0.4846,0.4791,0.4846,0.4904,0.5014,0.5014,0.5011,0.4959,0.4798,0.4684,0.4632,0.4519,0.446,0.4408,0.4405,0.4349,0.4408,0.4574,0.4574,0.4684,0.4736,0.4901,0.4901,0.5011,0.5124,0.5293,0.5563,0.5664,0.576,0.6098,0.6284,0.644,0.6494,0.6449,0.6482,0.6562,0.6673,0.6783,0.6878,0.7032,0.7339,0.7377,0.7378,0.7611,0.7541,0.7361,0.7178,0.7172,0.6996,0.6804,0.6892,0.6936,0.687,0.7029,0.6996,0.6778,0.6478,0.6145,0.5719,0.5175,0.4684,0.4463,0.4577,0.4632,0.4577,0.468,0.4846,0.4959,0.5069,0.523,0.5399,0.5618,0.5782,0.5891,0.5996,0.6046,0.61,0.615,0.6154,0.6154,0.5991,0.5773,0.5828,0.5882,0.6105,0.605,0.595,0.5622,0.5348,0.5066,0.4846,0.4739,0.4519,0.4298,0.3852,0.3352,0.2629,0.1847,0.1064,0.0336,-0.0392,-0.1064,-0.168,-0.2296,-0.313,-0.3907,-0.4519,-0.5069,-0.5563,-0.6376,-0.7074,-0.7777,0.6436,0.6322,0.5941,0.5614,0.5344,0.5344,0.5399,0.5517,0.5517,0.5513,0.5517,0.5407,0.5242,0.5077,0.5022,0.4904,0.4791,0.4736,0.4736,0.4791,0.4846,0.4904,0.5018,0.5073,0.5128,0.5183,0.5234,0.5399,0.5626,0.595,0.6327,0.6539,0.675,0.702,0.718,0.7284,0.7275,0.7271,0.7326,0.7438,0.7414,0.7264,0.7361,0.7746,0.7512,0.749,0.7579,0.7579,0.7431,0.7333,0.7303,0.7134,0.6924,0.6984,0.6972,0.6859,0.7068,0.7089,0.6895,0.6629,0.6258,0.5622,0.5238,0.4963,0.4791,0.4849,0.4904,0.5014,0.5183,0.5399,0.5504,0.5668,0.5887,0.6055,0.6218,0.6386,0.6544,0.6593,0.6642,0.6691,0.675,0.6756,0.681,0.6815,0.6593,0.6485,0.6544,0.6598,0.6495,0.6381,0.6055,0.5786,0.5559,0.5395,0.5234,0.4959,0.4739,0.4239,0.3741,0.3016,0.2293,0.1513,0.0785,0.0056,-0.0672,-0.1176,-0.1849,-0.2575,-0.3299,-0.4076,-0.4791,-0.5395,-0.6258,-0.723,-0.7937,0.6839,0.6623,0.6478,0.6171,0.5786,0.5791,0.5845,0.5905,0.5905,0.59,0.5845,0.5795,0.5686,0.5462,0.5407,0.5352,0.5234,0.5175,0.5124,0.5124,0.5124,0.5183,0.5187,0.5242,0.5301,0.5352,0.5513,0.5677,0.5905,0.6228,0.6657,0.7085,0.7456,0.7676,0.783,0.8025,0.8097,0.8075,0.8024,0.8041,0.7975,0.7796,0.7689,0.799,0.7802,0.7769,0.7786,0.7832,0.77,0.7587,0.7463,0.7341,0.7251,0.7167,0.7154,0.7069,0.7092,0.7167,0.6971,0.667,0.6352,0.5823,0.5513,0.5285,0.5171,0.5171,0.534,0.5399,0.5677,0.5946,0.6105,0.6322,0.6539,0.6761,0.6918,0.7079,0.7187,0.7241,0.7289,0.7337,0.7343,0.7343,0.7402,0.7402,0.7246,0.7079,0.7031,0.7036,0.6928,0.6766,0.6544,0.6273,0.6055,0.5887,0.5782,0.5504,0.5171,0.4732,0.4181,0.3461,0.2738,0.1959,0.129,0.0505,-0.0112,-0.0729,-0.1401,-0.2127,-0.2907,-0.3744,-0.4567,-0.5555,-0.6258,-0.7182,-0.783,0.6868,0.6531,0.6502,0.635,0.6185,0.6178,0.6178,0.6173,0.6232,0.6123,0.6059,0.595,0.5845,0.5791,0.5791,0.5736,0.5677,0.5618,0.5567,0.5513,0.5403,0.5297,0.5297,0.5297,0.5356,0.5352,0.5517,0.5791,0.6178,0.6495,0.6923,0.7467,0.7895,0.8162,0.8215,0.8474,0.8567,0.8574,0.8535,0.855,0.8574,0.8336,0.8243,0.8307,0.8176,0.8095,0.8116,0.8091,0.7993,0.7867,0.7839,0.7699,0.7482,0.7361,0.7227,0.7078,0.7209,0.716,0.6945,0.6684,0.6401,0.6192,0.5955,0.5778,0.5496,0.5609,0.5887,0.5996,0.6273,0.6544,0.6761,0.7031,0.7246,0.7354,0.7568,0.767,0.7777,0.7777,0.7777,0.7771,0.7818,0.7871,0.7931,0.7937,0.7836,0.7676,0.7521,0.7413,0.7365,0.7144,0.6972,0.6761,0.6598,0.6436,0.6268,0.5991,0.5664,0.5222,0.4673,0.3956,0.3183,0.2462,0.1736,0.1009,0.0336,-0.0336,-0.0952,-0.1624,-0.2683,-0.3793,-0.4948,-0.5878,-0.6475,-0.7128,-0.7824,0.7133,0.6912,0.6706,0.6541,0.6406,0.6483,0.6544,0.6549,0.6505,0.65,0.6495,0.6391,0.6282,0.6228,0.6223,0.6168,0.6055,0.595,0.5837,0.5841,0.5622,0.5513,0.5458,0.5407,0.5407,0.5513,0.5677,0.595,0.6332,0.6707,0.7133,0.7622,0.8321,0.8593,0.8745,0.8949,0.9047,0.9096,0.9033,0.899,0.9129,0.8781,0.8521,0.8655,0.848,0.8354,0.8354,0.8376,0.8286,0.8222,0.8207,0.8082,0.7927,0.7795,0.7614,0.7398,0.7396,0.7325,0.7141,0.6942,0.6732,0.657,0.6498,0.6342,0.6204,0.6376,0.6544,0.6707,0.6977,0.7192,0.7408,0.7681,0.7895,0.7949,0.8055,0.8156,0.8203,0.8209,0.8209,0.8203,0.8256,0.8256,0.8256,0.8362,0.8256,0.8209,0.8049,0.7949,0.7848,0.7622,0.7402,0.7306,0.709,0.6977,0.6756,0.648,0.6209,0.5828,0.5226,0.4457,0.3738,0.2905,0.2238,0.1512,0.0784,0.0056,-0.0784,-0.1677,-0.2903,-0.4012,-0.5054,-0.5823,-0.6372,-0.7069,-0.7877,0.7372,0.7105,0.6965,0.6813,0.665,0.6574,0.6618,0.6701,0.6784,0.682,0.6815,0.6761,0.6712,0.6652,0.6652,0.6598,0.648,0.6322,0.6218,0.6218,0.5891,0.5782,0.5677,0.5572,0.5572,0.5677,0.59,0.6173,0.6663,0.6987,0.7515,0.8203,0.8732,0.9023,0.9217,0.9313,0.9386,0.9402,0.932,0.9305,0.9221,0.9004,0.88,0.8778,0.8699,0.861,0.8594,0.8618,0.861,0.8618,0.8578,0.8578,0.8447,0.8324,0.8103,0.7897,0.7601,0.7482,0.7348,0.7334,0.7208,0.7209,0.7137,0.6988,0.6945,0.7085,0.7187,0.7402,0.7676,0.7836,0.8049,0.8321,0.8427,0.848,0.8533,0.8633,0.8626,0.8633,0.8633,0.8633,0.8633,0.8633,0.8633,0.8685,0.8732,0.8685,0.858,0.848,0.8328,0.8109,0.7889,0.7735,0.7628,0.7461,0.7295,0.702,0.675,0.6431,0.5719,0.4846,0.4128,0.335,0.2683,0.2015,0.1232,0.0392,-0.0727,-0.1788,-0.2956,-0.4064,-0.5058,-0.5714,-0.6209,-0.7015,-0.7871,0.7586,0.7244,0.7196,0.7141,0.6966,0.6628,0.6564,0.6735,0.6956,0.7095,0.709,0.6866,0.6913,0.7095,0.7111,0.7117,0.7079,0.6864,0.6761,0.6598,0.6327,0.6164,0.6005,0.5896,0.5841,0.5845,0.6064,0.65,0.7047,0.7521,0.8156,0.8823,0.9238,0.9475,0.961,0.9665,0.9665,0.9583,0.9534,0.9447,0.9358,0.9132,0.8979,0.8926,0.8842,0.8856,0.8865,0.8873,0.8924,0.899,0.9016,0.9016,0.8926,0.8805,0.8683,0.8398,0.7995,0.7768,0.7609,0.757,0.7829,0.7854,0.7691,0.7544,0.7594,0.7729,0.7883,0.809,0.8309,0.8468,0.8633,0.8791,0.8956,0.9001,0.9001,0.9054,0.9099,0.9099,0.9099,0.9047,0.9047,0.9047,0.8995,0.9047,0.8995,0.8942,0.889,0.8791,0.8639,0.8487,0.8321,0.8215,0.8109,0.8002,0.7777,0.7456,0.7128,0.6756,0.5937,0.5171,0.4457,0.3796,0.3019,0.2294,0.1626,0.0672,-0.0671,-0.1898,-0.3067,-0.4119,-0.5058,-0.5882,-0.6431,-0.7015,-0.7765,0.7945,0.767,0.7497,0.7404,0.736,0.7379,0.7295,0.7218,0.7215,0.7193,0.7171,0.7091,0.7156,0.7372,0.7396,0.7501,0.7541,0.7503,0.7348,0.7187,0.6907,0.6701,0.649,0.6332,0.6218,0.6273,0.6495,0.6815,0.7348,0.7931,0.8659,0.9347,0.9532,0.9722,0.9882,1.0018,0.9841,0.9725,0.9656,0.9562,0.9469,0.9258,0.9094,0.8923,0.8844,0.8844,0.892,0.892,0.9018,0.9284,0.935,0.9359,0.9328,0.9177,0.8975,0.8683,0.8398,0.8193,0.7953,0.796,0.8208,0.8516,0.8521,0.8473,0.8507,0.8567,0.8666,0.8778,0.8942,0.9099,0.9204,0.9309,0.942,0.942,0.942,0.942,0.942,0.9368,0.9368,0.9316,0.9309,0.9316,0.9316,0.9256,0.9263,0.9204,0.9152,0.9099,0.9001,0.8798,0.8692,0.8593,0.8487,0.8321,0.8109,0.7783,0.7402,0.6972,0.6209,0.5449,0.4846,0.4128,0.3352,0.2462,0.1512,0.0392,-0.0838,-0.2009,-0.3178,-0.4119,-0.5058,-0.5882,-0.6647,-0.7289,-0.7877,0.839,0.8193,0.7946,0.7821,0.7817,0.7859,0.7755,0.7641,0.7624,0.7563,0.7522,0.7374,0.7408,0.7591,0.7586,0.7604,0.7739,0.7656,0.7605,0.7518,0.741,0.7235,0.6977,0.681,0.6756,0.6756,0.6918,0.7241,0.7776,0.8469,0.9264,0.9625,0.9606,0.9818,1.0002,1.0071,1.0013,0.9909,0.9837,0.9694,0.9546,0.9376,0.9102,0.8848,0.8767,0.8821,0.8911,0.892,0.918,0.9506,0.9591,0.9655,0.972,0.9646,0.9408,0.9151,0.8918,0.8683,0.8488,0.8365,0.8629,0.8939,0.9205,0.9326,0.9363,0.9401,0.9459,0.951,0.9621,0.9732,0.9777,0.9829,0.988,0.988,0.9784,0.974,0.9688,0.9688,0.9636,0.9524,0.9524,0.9532,0.9524,0.9524,0.9524,0.9577,0.9577,0.9577,0.9368,0.9159,0.9008,0.8903,0.8798,0.8639,0.8374,0.8109,0.7676,0.7187,0.648,0.5773,0.5175,0.4294,0.335,0.2291,0.1231,0.0112,-0.1006,-0.2176,-0.3289,-0.4284,-0.5332,-0.6312,-0.7074,-0.7616,-0.8256,0.8975,0.8756,0.8537,0.8373,0.825,0.8126,0.8051,0.8089,0.817,0.815,0.7929,0.7689,0.7676,0.7809,0.7734,0.7732,0.7834,0.784,0.7822,0.7759,0.7756,0.7647,0.7551,0.7374,0.72,0.7233,0.7365,0.7552,0.8204,0.8897,0.9478,0.9794,0.9812,0.9956,1.0169,1.0194,1.0187,1.0183,1.0243,1.0167,0.9571,0.9291,0.923,0.8939,0.8887,0.8902,0.8965,0.9082,0.9234,0.9536,0.9824,0.9965,1.0165,1.0196,0.9981,0.9746,0.9518,0.9279,0.9088,0.8967,0.9064,0.9323,0.9639,0.9968,1.0132,1.0179,1.0159,1.0182,1.0293,1.0352,1.0395,1.0395,1.0395,1.0403,1.036,1.0257,1.0205,1.0205,1.0154,1.0095,1.0095,1.0095,1.0095,1.0095,1.0095,1.0102,1.0051,1.0043,0.9888,0.9629,0.942,0.9263,0.9054,0.885,0.8639,0.8321,0.7949,0.7408,0.6701,0.605,0.5395,0.4401,0.3236,0.2122,0.1064,-0.0056,-0.1119,-0.2343,-0.3564,-0.4721,-0.5764,-0.6848,-0.7593,-0.8227,-0.8685,0.9646,0.9288,0.8903,0.8749,0.8708,0.8602,0.8504,0.8529,0.855,0.8307,0.7938,0.7788,0.7822,0.7968,0.7937,0.7969,0.8104,0.8044,0.815,0.8108,0.812,0.803,0.7951,0.7701,0.755,0.7455,0.7522,0.7888,0.856,0.9179,0.9687,1.006,1.0066,1.0161,1.046,1.0483,1.044,1.0582,1.0797,1.0752,1.027,1.0158,1.011,0.9571,0.9301,0.9238,0.9232,0.9098,0.934,0.9648,1.0061,1.0391,1.0723,1.0715,1.0611,1.038,1.0186,0.9952,0.9716,0.9585,0.9645,0.9795,1.0091,1.0543,1.0792,1.0854,1.0838,1.0897,1.0905,1.0964,1.1015,1.1015,1.0964,1.0922,1.093,1.0828,1.0777,1.0777,1.0718,1.0718,1.0659,1.0659,1.0667,1.0667,1.0718,1.0667,1.0565,1.0514,1.0462,1.0205,0.9888,0.9673,0.9309,0.9054,0.885,0.8586,0.8215,0.7622,0.6972,0.6268,0.5614,0.4346,0.3072,0.2012,0.0895,-0.0224,-0.1397,-0.2679,-0.3898,-0.5109,-0.6411,-0.7559,-0.8585,-0.9303,-0.9489,0.9624,0.9282,0.9018,0.8902,0.8815,0.8689,0.8602,0.8529,0.8387,0.8218,0.8079,0.8016,0.8025,0.8054,0.8011,0.8048,0.82,0.8172,0.8087,0.816,0.8234,0.8187,0.8071,0.7909,0.7796,0.7694,0.8009,0.841,0.8936,0.944,0.9907,1.0196,1.0289,1.0474,1.0795,1.076,1.0916,1.1234,1.1505,1.1457,1.1153,1.0961,1.0542,0.9969,0.9842,0.9798,0.9912,0.9861,1.0156,1.055,1.1034,1.1286,1.1498,1.1505,1.1367,1.118,1.0954,1.0677,1.0408,1.0264,1.0203,1.0283,1.0465,1.0869,1.1013,1.1121,1.1541,1.1585,1.1551,1.1628,1.1628,1.1628,1.1569,1.1578,1.1528,1.1528,1.1427,1.1326,1.1276,1.1267,1.1217,1.1116,1.1124,1.1023,1.1074,1.1023,1.0972,1.0972,1.0922,1.0828,1.0506,1.019,0.9821,0.9458,0.9256,0.8896,0.848,0.7836,0.7241,0.6317,0.5445,0.4181,0.291,0.1846,0.0727,-0.0559,-0.1729,-0.3063,-0.4336,-0.5601,-0.6961,-0.8332,-0.9407,-1.071,-1.1754,0.9443,0.9087,0.902,0.8912,0.8709,0.8652,0.8523,0.8405,0.8144,0.8168,0.8388,0.8503,0.8333,0.8144,0.8028,0.7987,0.8002,0.812,0.8085,0.8125,0.8226,0.818,0.8112,0.799,0.7916,0.8041,0.8345,0.8791,0.9322,0.9736,1.0109,1.0283,1.0497,1.0669,1.0954,1.1276,1.1549,1.1909,1.2234,1.2449,1.2119,1.1629,1.1137,1.0795,1.0663,1.0778,1.09,1.1061,1.1308,1.1563,1.189,1.2118,1.2248,1.2259,1.2126,1.1909,1.17,1.1468,1.1159,1.0916,1.0746,1.0693,1.0875,1.1032,1.1219,1.1514,1.1947,1.2244,1.2222,1.2234,1.2234,1.2243,1.2243,1.2184,1.2184,1.2175,1.2026,1.1927,1.1877,1.1877,1.1769,1.1669,1.1619,1.1528,1.1477,1.1477,1.1427,1.1418,1.1418,1.1326,1.1116,1.0854,1.0498,1.0131,0.9658,0.9249,0.8791,0.8262,0.761,0.647,0.5382,0.4229,0.307,0.1789,0.0614,-0.0781,-0.2225,-0.3666,-0.4878,-0.6145,-0.8249,-0.9952,-1.1279,-1.2705,-1.4593,0.9994,0.9378,0.9126,0.8948,0.8834,0.8695,0.8564,0.8513,0.8758,0.8801,0.8805,0.9076,0.9039,0.8561,0.8439,0.8398,0.8373,0.8291,0.8212,0.8283,0.8231,0.8193,0.8211,0.8146,0.7982,0.8207,0.8539,0.8923,0.9562,1.0012,1.0371,1.0625,1.0992,1.1282,1.1664,1.1918,1.2207,1.2591,1.2904,1.311,1.3216,1.2787,1.2329,1.2082,1.1979,1.1833,1.1713,1.1648,1.1716,1.1931,1.231,1.2701,1.2883,1.2951,1.2824,1.2696,1.2484,1.221,1.1934,1.1678,1.1457,1.1207,1.1348,1.1376,1.1556,1.1735,1.2187,1.2756,1.2816,1.289,1.2861,1.289,1.2842,1.2822,1.2822,1.2783,1.2715,1.2666,1.2627,1.2569,1.2461,1.2363,1.2314,1.2215,1.2215,1.2166,1.2116,1.2107,1.2107,1.1918,1.1769,1.151,1.125,1.0541,0.9917,0.9614,0.9204,0.8679,0.7984,0.6848,0.5706,0.4501,0.3284,0.1898,0.039,-0.1116,-0.2558,-0.4158,-0.5579,-0.7054,-0.9763,-1.1722,-1.3078,-1.4728,-1.6653]}]]